Date StartTime U_cm/s V_cm/s W_cm/s Ustd_cm/s Vstd_cm/s Wstd_cm/s Uvar_(cm/s)^2 Vvar_(cm/s)^2 Wvar_(cm/s)^2 KE_(m/s)^2 TurbulentKE_(m/s)^2 HorizWindSpeed_cm/s FrictionSpeec_cm/s DragCoef SpeedOfSound_m/s SonicTemperature_C Pressure_mb 
07/11/2013  00:00:00       -8.839      -11.564       -0.280       13.615       18.680       14.288      185.358      348.943      204.141        0.048        0.037       14.555        4.639        0.102      346.789       25.289      861.409
07/11/2013  00:01:00        2.592       26.002       10.500       11.931       15.189       10.630      142.343      230.712      112.990        0.064        0.024       26.131        9.833        0.142      346.736       25.200      861.383
07/11/2013  00:02:00      -13.728        1.944       15.939       19.543       29.098       14.273      381.948      846.671      203.724        0.094        0.072       13.864       16.894        1.485      346.588       24.944      861.370
07/11/2013  00:03:00       -7.607      -10.860       -9.047       15.530       28.548       11.135      241.194      815.012      123.991        0.072        0.059       13.259       13.986        1.113      346.771       25.258      861.374
07/11/2013  00:04:00        8.340       17.867       12.103       12.943       10.659        9.757      167.530      113.609       95.195        0.046        0.019       19.718        7.135        0.131      346.544       24.869      861.380
07/11/2013  00:05:00       43.189       46.100       47.885       33.274       36.483       22.726     1107.136     1331.019      516.473        0.462        0.148       63.170       26.961        0.182      346.675       25.093      861.371
07/11/2013  00:06:00       34.798       26.783        0.821       52.635       35.184       37.402     2770.488     1237.942     1398.888        0.367        0.270       43.912       32.197        0.538      346.689       25.117      861.363
07/11/2013  00:07:00      -32.199      -20.578        1.351       11.119       15.973       10.733      123.624      255.127      115.194        0.098        0.025       38.213        6.160        0.026      346.617       24.991      861.366
07/11/2013  00:08:00      -23.222       16.476       -0.518       22.002       12.243       15.779      484.086      149.897      248.977        0.085        0.044       28.473       16.322        0.329      346.706       25.146      861.364
07/11/2013  00:09:00      -10.690       32.399        0.892       29.057       23.353       14.725      844.330      545.363      216.824        0.139        0.080       34.117       14.469        0.180      346.507       24.804      861.362
07/11/2013  00:10:00      -38.928       66.143      -15.474       12.971       23.842        7.230      168.241      568.442       52.272        0.346        0.039       76.748        5.881        0.006      346.411       24.639      861.361
07/11/2013  00:11:00      -63.332       18.128       -8.975       14.456       10.074        9.614      208.974      101.488       92.429        0.241        0.020       65.875        3.173        0.002      346.601       24.968      861.360
07/11/2013  00:12:00      -57.214       21.551       -8.624       11.707       11.759        6.925      137.065      138.275       47.949        0.207        0.016       61.138        2.971        0.002      346.545       24.871      861.355
07/11/2013  00:13:00      -85.222        9.218       -0.432       18.359       14.180       10.081      337.040      201.061      101.622        0.399        0.032       85.719        9.008        0.011      346.421       24.657      861.348
07/11/2013  00:14:00      -41.209        6.518       -0.848       13.825       13.171       11.076      191.119      173.488      122.688        0.111        0.024       41.722       10.674        0.065      346.379       24.585      861.346
07/11/2013  00:15:00      -10.571       18.097        2.884       20.426       13.422       10.920      417.234      180.138      119.252        0.058        0.036       20.959       12.532        0.358      346.467       24.735      861.341
07/11/2013  00:16:00      -67.136       17.458      -11.026       19.200       18.117       13.127      368.627      328.212      172.319        0.290        0.043       69.369       10.425        0.023      346.479       24.758      861.343
07/11/2013  00:17:00      -32.282       17.177       -4.503       10.554       14.575        6.409      111.388      212.440       41.075        0.086        0.018       36.567        7.105        0.038      346.498       24.789      861.329
07/11/2013  00:18:00      -24.099       12.016       -4.562       24.373       33.263       11.371      594.033     1106.410      129.297        0.129        0.091       26.928       11.831        0.193      346.541       24.863      861.336
07/11/2013  00:19:00     -125.179      -53.172       -0.677       53.148       40.038       23.026     2824.704     1603.019      530.219        1.173        0.248      136.004       18.711        0.019      346.693       25.123      861.341
07/11/2013  00:20:00      -54.162      -10.302       -8.232       31.709       20.405       16.548     1005.471      416.374      273.821        0.240        0.085       55.133       13.276        0.058      346.825       25.350      861.346
07/11/2013  00:21:00       -0.425       -9.457        2.123       17.632       38.694       12.844      310.873     1497.216      164.976        0.103        0.099        9.466        8.005        0.715      346.813       25.331      861.346
07/11/2013  00:22:00       -1.561       15.764       -3.023        7.676       15.257        5.506       58.914      232.783       30.320        0.029        0.016       15.841        3.806        0.058      346.763       25.245      861.346
07/11/2013  00:23:00        5.772       13.920       11.147       12.169       10.945       11.698      148.080      119.802      136.839        0.038        0.020       15.069       10.002        0.441      346.612       24.984      861.336
07/11/2013  00:24:00      -68.364       19.441        2.438       44.428       14.394       17.462     1973.822      207.194      304.918        0.377        0.124       71.074       18.243        0.066      346.721       25.172      861.326
07/11/2013  00:25:00       13.396       26.899        8.928       33.880       36.979       24.164     1147.883     1367.472      583.922        0.204        0.155       30.050       26.225        0.762      346.592       24.951      861.314
07/11/2013  00:26:00       25.380        2.040       21.407       30.031       13.618       23.989      901.842      185.451      575.491        0.138        0.083       25.462       23.356        0.841      346.642       25.036      861.302
07/11/2013  00:27:00      -22.454      -16.703       -7.564       10.978        9.082        8.006      120.514       82.477       64.091        0.055        0.013       27.985        6.333        0.051      346.657       25.061      861.309
07/11/2013  00:28:00      -58.605       -1.936       -5.757       21.659       18.746       15.461      469.126      351.405      239.045        0.227        0.053       58.637       12.188        0.043      346.632       25.019      861.315
07/11/2013  00:29:00      -57.465       -6.643       -1.862       39.550       24.726       15.575     1564.175      611.382      242.581        0.288        0.121       57.848        7.543        0.017      346.602       24.968      861.319
07/11/2013  00:30:00      -58.440       -7.951        2.045       24.632       19.288       12.868      606.735      372.042      165.590        0.231        0.057       58.978       13.890        0.055      346.591       24.948      861.321
07/11/2013  00:31:00      -51.899      -25.917       -3.247       50.618       22.029       18.705     2562.163      485.298      349.862        0.339        0.170       58.010       17.447        0.090      346.765       25.249      861.314
07/11/2013  00:32:00       -0.158       -6.659       11.646       16.456       31.228       10.015      270.815      975.202      100.309        0.076        0.067        6.661       12.837        3.714      346.496       24.784      861.307
07/11/2013  00:33:00       -1.675       27.198       -4.976       15.787       12.248        6.810      249.233      150.004       46.375        0.061        0.022       27.250        8.215        0.091      346.623       25.003      861.313
07/11/2013  00:34:00       -4.088      -18.583       -2.320       18.315       11.938        9.655      335.450      142.513       93.228        0.047        0.029       19.027        6.859        0.130      346.690       25.118      861.320
07/11/2013  00:35:00        8.092      -33.170       -3.988        9.664        9.801       11.278       93.391       96.064      127.185        0.075        0.016       34.143        7.994        0.055      346.639       25.033      861.318
07/11/2013  00:36:00       11.788      -72.568       -6.678       21.750       26.176       15.078      473.078      685.173      227.357        0.342        0.069       73.519       14.759        0.040      346.566       24.905      861.318
07/11/2013  00:37:00      -31.595      -74.514        1.655       40.153       59.425       24.935     1612.285     3531.287      621.752        0.616        0.288       80.936       30.511        0.142      346.691       25.120      861.337
07/11/2013  00:38:00      -30.994      -20.145       -0.828       33.976       11.884        6.515     1154.370      141.218       42.439        0.135        0.067       36.965        5.304        0.021      346.440       24.690      861.347
07/11/2013  00:39:00       21.996      -21.174        1.936       37.579       43.016       23.705     1412.160     1850.349      561.922        0.238        0.191       30.532       28.028        0.843      346.532       24.846      861.340
07/11/2013  00:40:00       -0.779      -55.356       -3.172       23.501       27.601       12.822      552.283      761.823      164.411        0.228        0.074       55.362       15.076        0.074      346.608       24.977      861.330
07/11/2013  00:41:00       -3.092      -52.786        2.011       27.689       18.777       16.023      766.654      352.559      256.747        0.209        0.069       52.877        9.343        0.031      346.628       25.012      861.300
07/11/2013  00:42:00      -46.292      -63.181       -5.970       23.625       31.117       17.519      558.162      968.297      306.899        0.400        0.092       78.325        9.996        0.016      346.714       25.160      861.268
07/11/2013  00:43:00      -54.941      -57.161       -2.757       31.554       31.080       15.565      995.663      965.976      242.270        0.425        0.110       79.283       12.396        0.024      346.698       25.132      861.248
07/11/2013  00:44:00      -38.948      -41.917       -0.641       15.182       24.866       19.334      230.496      618.296      373.810        0.225        0.061       57.219        8.698        0.023      346.702       25.141      861.235
07/11/2013  00:45:00      -47.654      -17.111        0.508       21.504       23.080       13.225      462.401      532.703      174.901        0.187        0.059       50.632       11.429        0.051      346.593       24.954      861.225
07/11/2013  00:46:00      -38.749      -16.056        5.076       32.894       14.892       12.152     1082.025      221.782      147.663        0.162        0.073       41.944       13.155        0.098      346.426       24.666      861.221
07/11/2013  00:47:00      -42.588      -52.945        6.103       26.069       28.592       17.283      679.586      817.515      298.716        0.322        0.090       67.948       12.521        0.034      346.511       24.812      861.215
07/11/2013  00:48:00      -74.778      -64.250        0.324       46.156       41.741       22.560     2130.397     1742.277      508.943        0.705        0.219       98.589       21.610        0.048      346.591       24.950      861.204
07/11/2013  00:49:00      -83.380     -114.679       -8.919       39.737       41.455       25.369     1579.028     1718.492      643.575        1.206        0.197      141.786       17.976        0.016      346.656       25.059      861.207
07/11/2013  00:50:00      -59.820      -89.950        0.632       25.752       41.417       26.537      663.189     1715.398      704.198        0.738        0.154      108.025       20.812        0.037      346.609       24.980      861.207
07/11/2013  00:51:00      -85.779     -133.327        0.909       45.047       41.721       25.600     2029.219     1740.626      655.355        1.478        0.221      158.538       18.124        0.013      346.519       24.824      861.216
07/11/2013  00:52:00      -90.960     -135.072        5.090       59.648       51.709       33.476     3557.873     2673.853     1120.668        1.695        0.368      162.844       23.860        0.021      346.462       24.728      861.224
07/11/2013  00:53:00      -60.097     -110.070       -3.860       46.414       43.580       29.126     2154.271     1899.244      848.338        1.032        0.245      125.408       17.972        0.021      346.459       24.720      861.210
07/11/2013  00:54:00      -29.540      -49.438        6.568       39.071       34.392       21.875     1526.540     1182.802      478.534        0.327        0.159       57.591       21.624        0.141      346.391       24.605      861.172
07/11/2013  00:55:00      -36.636      -64.056        3.569       19.838       29.223       15.630      393.547      853.987      244.302        0.347        0.075       73.793       13.759        0.035      346.462       24.727      861.121
07/11/2013  00:56:00      -79.344      -26.219        2.465       34.929       25.298       19.230     1220.001      639.971      369.803        0.461        0.111       83.564       19.986        0.057      346.389       24.601      861.099
07/11/2013  00:57:00      -41.389      -40.757        5.586       42.532       34.074       21.666     1808.938     1161.008      469.426        0.342        0.172       58.088       19.786        0.116      346.357       24.547      861.082
07/11/2013  00:58:00      -78.052      -57.746       -4.506       34.117       37.493       22.833     1163.996     1405.707      521.340        0.627        0.155       97.091       20.706        0.045      346.313       24.469      861.054
07/11/2013  00:59:00      -53.364      -60.768       -3.882       21.107       15.361       14.453      445.521      235.961      208.899        0.372        0.045       80.873       11.215        0.019      346.364       24.559      861.016
07/11/2013  01:00:00      -70.824      -28.297       -8.282       18.895       16.566       10.367      357.019      274.433      107.471        0.331        0.037       76.267        6.049        0.006      346.375       24.577      860.995
07/11/2013  01:01:00      -66.960      -35.667        1.037       40.958       26.732       17.212     1677.537      714.617      296.245        0.422        0.134       75.867       17.249        0.052      346.355       24.542      860.997
07/11/2013  01:02:00      -11.339      -38.140       22.157       38.174       29.119       27.844     1457.231      847.888      775.267        0.258        0.154       39.790       27.425        0.475      346.312       24.470      861.020
07/11/2013  01:03:00      -30.916      -87.534        1.935       44.584       47.274       21.203     1987.733     2234.842      449.579        0.665        0.234       92.833       20.223        0.047      346.368       24.565      861.051
07/11/2013  01:04:00      -18.651      -81.440        2.761       23.191       43.998       27.382      537.801     1935.859      749.762        0.511        0.161       83.548       23.373        0.078      346.362       24.554      861.078
07/11/2013  01:05:00       -2.378        2.244       17.905       25.301       25.311       31.622      640.140      640.662      999.963        0.131        0.114        3.269       14.477       19.609      346.235       24.336      861.076
07/11/2013  01:06:00        7.263       35.570       51.477       23.759       29.184       23.837      564.504      851.685      568.185        0.298        0.099       36.304       18.172        0.251      346.127       24.150      861.072
07/11/2013  01:07:00       -5.958        2.249       22.639       11.947       13.953       10.148      142.735      194.692      102.976        0.050        0.022        6.368        6.692        1.104      346.135       24.164      861.084
07/11/2013  01:08:00       -3.824       18.438       11.726       11.202       11.550       14.349      125.491      133.411      205.897        0.048        0.023       18.830        9.439        0.251      346.114       24.127      861.083
07/11/2013  01:09:00       -2.911       -5.473       10.053       12.297       34.750       16.552      151.211     1207.581      273.955        0.089        0.082        6.199       13.839        4.983      346.132       24.158      861.080
07/11/2013  01:10:00       34.833      -87.564       -9.206       32.751       30.820       23.224     1072.610      949.895      539.369        0.576        0.128       94.238       18.790        0.040      346.260       24.380      861.099
07/11/2013  01:11:00       76.649      -77.498      -12.058       21.964       32.755       14.475      482.427     1072.898      209.527        0.690        0.088      109.000       12.947        0.014      346.177       24.238      861.118
07/11/2013  01:12:00       23.774      -16.174       14.019       43.121       25.601       25.454     1859.381      655.414      647.885        0.209        0.158       28.754       26.494        0.849      346.057       24.030      861.119
07/11/2013  01:13:00       25.917        0.610       14.878       17.551       21.473       13.947      308.035      461.096      194.508        0.093        0.048       25.924       15.001        0.335      346.013       23.955      861.110
07/11/2013  01:14:00       30.177       13.892       11.630       12.715       15.434       13.745      161.664      238.216      188.916        0.091        0.029       33.221       12.712        0.146      346.085       24.074      861.099
07/11/2013  01:15:00       41.664       62.925       -0.140       13.385       20.562       14.889      179.162      422.782      221.697        0.326        0.041       75.468       14.888        0.039      346.186       24.252      861.074
07/11/2013  01:16:00       41.136       60.827       -7.490       25.558       32.187       24.695      653.212     1036.018      609.848        0.387        0.115       73.431       22.100        0.091      346.084       24.077      861.050
07/11/2013  01:17:00       46.335       53.473       -7.159       38.557       27.834       23.946     1486.674      774.740      573.393        0.395        0.142       70.755       18.480        0.068      346.153       24.197      861.026
07/11/2013  01:18:00        3.980       20.254      -10.387       40.547       28.933       16.900     1644.074      837.107      285.611        0.165        0.138       20.642       12.779        0.383      346.197       24.272      861.016
07/11/2013  01:19:00       -3.079      -35.071       -5.891       15.250       17.549       13.872      232.551      307.967      192.438        0.100        0.037       35.206        9.431        0.072      346.166       24.218      861.013
07/11/2013  01:20:00      -19.300        9.692        4.604       27.174       10.127       10.944      738.426      102.548      119.769        0.072        0.048       21.597       12.543        0.337      346.034       23.990      861.014
07/11/2013  01:21:00      -67.326       23.228      -15.933       11.654       12.766        7.796      135.823      162.968       60.770        0.284        0.018       71.220        4.495        0.004      345.951       23.848      861.009
07/11/2013  01:22:00      -36.023       50.496       -9.992       25.470       25.171        8.649      648.696      633.583       74.800        0.265        0.068       62.029        4.658        0.006      345.919       23.795      861.000
07/11/2013  01:23:00       -1.605       24.042       -6.709        8.926       27.985       15.009       79.674      783.183      225.277        0.086        0.054       24.095       16.586        0.474      345.919       23.794      861.000
07/11/2013  01:24:00       -3.888        4.454        4.427       14.810        5.537        9.873      219.335       30.656       97.469        0.020        0.017        5.912       10.157        2.951      345.958       23.862      860.990
07/11/2013  01:25:00        8.520       43.119       -0.073       11.583       15.151       10.846      134.175      229.543      117.636        0.121        0.024       43.952        7.456        0.029      345.993       23.920      860.967
07/11/2013  01:26:00        3.293       57.936       -2.651       14.481       12.733       11.841      209.690      162.129      140.217        0.194        0.026       58.029        9.018        0.024      346.002       23.936      860.967
07/11/2013  01:27:00      -13.715       36.375       -6.099       11.153       21.120        8.276      124.398      446.060       68.493        0.109        0.032       38.874        6.351        0.027      345.999       23.931      860.972
07/11/2013  01:28:00      -13.005       47.830       -9.389       15.726       16.392        7.175      247.307      268.687       51.483        0.156        0.028       49.566        6.792        0.019      346.099       24.102      860.970
07/11/2013  01:29:00      -27.061       12.928       -5.429        9.591       12.116        7.891       91.985      146.792       62.271        0.061        0.015       29.990        3.765        0.016      345.990       23.915      860.953
07/11/2013  01:30:00      -21.122       19.570       -5.919        8.831       20.127        6.304       77.988      405.083       39.741        0.069        0.026       28.794        8.317        0.083      346.011       23.952      860.938
07/11/2013  01:31:00      -11.338       50.188       -7.397       12.822       12.580        9.532      164.406      158.244       90.859        0.156        0.021       51.452        5.543        0.012      346.043       24.008      860.930
07/11/2013  01:32:00        7.528       27.875        3.651       12.897       30.759        9.728      166.323      946.135       94.629        0.103        0.060       28.874       14.629        0.257      346.088       24.083      860.929
07/11/2013  01:33:00      -19.783      -12.335       -0.459        9.213       12.284       11.207       84.882      150.901      125.600        0.045        0.018       23.313        8.267        0.126      346.106       24.115      860.946
07/11/2013  01:34:00      -41.098      -10.170       -4.561       19.214       16.099        8.955      369.192      259.177       80.194        0.126        0.035       42.338        7.024        0.028      346.033       23.991      860.948
07/11/2013  01:35:00      -53.127      -15.621       -4.207       18.871       15.798       10.049      356.133      249.578      100.986        0.190        0.035       55.376        6.585        0.014      346.043       24.007      860.938
07/11/2013  01:36:00      -63.517       -4.552       -9.507       12.149        7.155        6.718      147.599       51.196       45.137        0.219        0.012       63.679        5.628        0.008      345.996       23.925      860.929
07/11/2013  01:37:00      -43.959        3.091       -9.107       15.344        8.480        4.781      235.429       71.913       22.854        0.118        0.017       44.068        4.393        0.010      346.122       24.141      860.915
07/11/2013  01:38:00      -29.347      -10.348       -8.194       12.011        8.714        6.308      144.269       75.933       39.794        0.065        0.013       31.118        8.259        0.070      346.097       24.103      860.908
07/11/2013  01:39:00      -24.301       -2.531       -6.318       12.295        9.304        7.391      151.155       86.565       54.624        0.046        0.015       24.432        7.002        0.082      346.139       24.172      860.899
07/11/2013  01:40:00      -21.323        0.892       -3.509       15.995        5.057        5.060      255.850       25.572       25.600        0.039        0.015       21.342        6.418        0.090      346.130       24.150      860.884
07/11/2013  01:41:00       24.964       25.276       -4.650       15.967       11.124        6.849      254.934      123.750       46.909        0.085        0.021       35.525        6.576        0.034      346.263       24.385      860.858
07/11/2013  01:42:00       36.563       25.389       -6.686       19.906       16.150       10.279      396.265      260.812      105.668        0.139        0.038       44.514       13.664        0.094      346.314       24.470      860.846
07/11/2013  01:43:00      -68.413       15.186       -6.398       29.987       16.720        9.763      899.247      279.562       95.321        0.311        0.064       70.078       12.769        0.033      346.039       23.999      860.853
07/11/2013  01:44:00      -82.550      -23.074       -3.618       43.774       26.315       17.801     1916.162      692.498      316.874        0.514        0.146       85.714       19.782        0.053      345.796       23.581      860.868
07/11/2013  01:45:00       -1.376      -23.436        1.774       11.313       10.975        7.454      127.991      120.445       55.555        0.043        0.015       23.476        6.123        0.068      345.837       23.654      860.880
07/11/2013  01:46:00       23.371       -2.832        3.143        9.008        8.328        8.057       81.142       69.361       64.910        0.039        0.011       23.542        5.354        0.052      345.808       23.604      860.891
07/11/2013  01:47:00       -4.467      -13.016       -2.770       10.509        6.214        5.309      110.433       38.619       28.188        0.019        0.009       13.762        5.771        0.176      346.090       24.089      860.914
07/11/2013  01:48:00        4.977      -27.459       -1.639        6.488        8.890        4.511       42.100       79.038       20.353        0.046        0.007       27.906        4.366        0.024      346.257       24.376      860.918
07/11/2013  01:49:00       22.429      -39.639      -12.344       32.862       42.775       18.792     1079.897     1829.734      353.157        0.274        0.163       45.544       17.512        0.148      345.996       23.925      860.908
07/11/2013  01:50:00       21.056      -76.591        2.183       19.579       21.847       17.563      383.341      477.278      308.472        0.374        0.058       79.433       13.701        0.030      346.149       24.189      860.904
07/11/2013  01:51:00       22.999        1.741       17.736       27.169       38.707       29.035      738.157     1498.206      843.006        0.196        0.154       23.065       31.230        1.833      346.085       24.078      860.869
07/11/2013  01:52:00       11.230       76.423       -9.147       30.109       19.658       21.715      906.573      386.433      471.554        0.391        0.088       77.243       20.466        0.070      345.941       23.832      860.813
07/11/2013  01:53:00       34.849       64.758      -10.470       25.985       23.441       15.808      675.232      549.474      249.896        0.350        0.074       73.540       12.417        0.029      346.057       24.029      860.792
07/11/2013  01:54:00       34.436        9.029        5.816       22.233       34.875       17.523      494.308     1216.241      307.043        0.166        0.101       35.600       12.571        0.125      346.118       24.136      860.813
07/11/2013  01:55:00       18.565       44.020       61.643       32.465       65.255       33.660     1053.985     4258.158     1132.975        0.626        0.322       47.775       42.273        0.783      345.981       23.901      860.831
07/11/2013  01:56:00        9.558       49.102       62.079       51.589       94.999       54.097     2661.396     9024.750     2926.442        1.048        0.731       50.023       67.400        1.815      345.947       23.843      860.799
07/11/2013  01:57:00      -48.602      -66.435       -9.627       41.332       32.392       17.908     1708.364     1049.230      320.697        0.497        0.154       82.315        8.723        0.011      346.096       24.097      860.810
07/11/2013  01:58:00       28.403      -78.388        2.855       65.740       39.861       22.947     4321.796     1588.932      526.562        0.670        0.322       83.375       12.406        0.022      346.393       24.610      860.812
07/11/2013  01:59:00        6.373      -86.056        5.347       29.691       28.856       18.049      881.580      832.655      325.750        0.476        0.102       86.292       14.235        0.027      346.398       24.617      860.801
07/11/2013  02:00:00       32.942       13.255       25.912       34.149       61.776       38.598     1166.130     3816.287     1489.827        0.420        0.324       35.509       43.967        1.533      346.379       24.584      860.749
07/11/2013  02:01:00       39.124       61.448       57.944       61.060       39.350       38.472     3728.318     1548.444     1480.087        0.771        0.338       72.846       41.199        0.320      346.294       24.439      860.705
07/11/2013  02:02:00       -2.992        5.337       27.812       23.927       30.573       32.602      572.519      934.718     1062.860        0.169        0.129        6.118       24.571       16.130      346.233       24.332      860.720
07/11/2013  02:03:00     -119.732       -9.741       -0.340       75.417       45.717       29.005     5687.727     2090.018      841.265        1.152        0.431      120.127       15.100        0.016      345.859       23.689      860.761
07/11/2013  02:04:00     -101.509        4.366       -6.593       45.136       23.488       20.514     2037.264      551.664      420.836        0.669        0.150      101.603       14.579        0.021      345.934       23.820      860.781
07/11/2013  02:05:00        7.934        7.951        6.674       21.416       14.958       12.933      458.625      223.737      167.261        0.051        0.042       11.233        9.066        0.651      346.067       24.049      860.752
07/11/2013  02:06:00        2.419        5.685       32.897       17.953       24.923       20.617      322.316      621.158      425.054        0.124        0.068        6.178       19.246        9.704      345.944       23.837      860.724
07/11/2013  02:07:00       -0.278      -23.569       12.754       15.831       27.866       21.987      250.606      776.533      483.408        0.111        0.076       23.570       19.522        0.686      346.056       24.028      860.718
07/11/2013  02:08:00        3.778      -80.455       15.241       26.014       46.156       17.726      676.745     2130.371      314.201        0.492        0.156       80.543       10.720        0.018      346.288       24.426      860.718
07/11/2013  02:09:00      -78.039       58.627      -11.846       41.425       24.976       17.464     1715.997      623.815      305.007        0.616        0.132       97.607       19.173        0.039      345.949       23.846      860.728
07/11/2013  02:10:00       30.914       54.423       11.672       30.338       35.811       26.731      920.424     1282.431      714.559        0.348        0.146       62.590       18.290        0.085      346.114       24.130      860.706
07/11/2013  02:11:00       16.731       36.980       -2.313       13.540       24.503       14.068      183.334      600.411      197.897        0.132        0.049       40.589       13.746        0.115      346.073       24.059      860.715
07/11/2013  02:12:00      -20.683        6.984       -4.302       30.415       17.473       14.031      925.102      305.303      196.858        0.096        0.071       21.830       17.204        0.621      346.028       23.978      860.703
07/11/2013  02:13:00      -30.849       29.338       -3.352       55.355       32.651       16.517     3064.137     1066.098      272.797        0.311        0.220       42.572        6.424        0.023      345.908       23.773      860.687
07/11/2013  02:14:00       -7.000      -31.183      -13.101       43.767       16.236       15.704     1915.590      263.599      246.630        0.181        0.121       31.959        7.105        0.049      345.843       23.665      860.668
07/11/2013  02:15:00       -0.130      -10.654       -8.472       16.765       13.087       12.365      281.080      171.268      152.888        0.040        0.030       10.655        9.335        0.768      345.971       23.883      860.662
07/11/2013  02:16:00       13.428       10.191       14.594       15.795       11.651        9.220      249.497      135.740       85.017        0.048        0.024       16.857        9.751        0.335      346.018       23.965      860.672
07/11/2013  02:17:00       14.302       23.350       -0.169       16.102       19.977       11.929      259.282      399.073      142.294        0.078        0.040       27.382       13.308        0.236      345.969       23.881      860.688
07/11/2013  02:18:00       -6.906       16.124       -0.248       34.044       16.130       11.954     1159.001      260.193      142.904        0.093        0.078       17.540        9.632        0.302      345.948       23.844      860.700
07/11/2013  02:19:00      -41.172       16.273       -3.405       17.503       15.601        8.436      306.352      243.398       71.163        0.130        0.031       44.271        9.973        0.051      346.002       23.937      860.713
07/11/2013  02:20:00        6.503       37.614        2.172       12.195        9.999       11.020      148.716       99.988      121.445        0.092        0.019       38.172        9.448        0.061      346.014       23.955      860.695
07/11/2013  02:21:00       15.577       62.342       -6.888       48.579       19.360       14.814     2359.883      374.812      219.449        0.356        0.148       64.259       14.538        0.051      346.114       24.129      860.671
07/11/2013  02:22:00       57.239       51.506        2.148       22.044       17.240       14.879      485.941      297.226      221.389        0.347        0.050       77.001       14.893        0.037      345.995       23.925      860.647
07/11/2013  02:23:00       24.294       40.486      -12.229       18.650       18.053       12.550      347.838      325.912      157.506        0.160        0.042       47.215        8.521        0.033      345.894       23.750      860.664
07/11/2013  02:24:00        0.073        1.468       -4.266       11.833       15.112       10.191      140.029      228.374      103.852        0.025        0.024        1.470       11.758       63.995      346.163       24.214      860.703
07/11/2013  02:25:00      -17.569       -2.759       12.010       24.370       15.136       12.159      593.900      229.092      147.834        0.072        0.049       17.784       15.948        0.804      345.965       23.872      860.742
07/11/2013  02:26:00       11.765        9.649       17.807        6.962        8.214        4.902       48.470       67.475       24.028        0.034        0.007       15.216        2.867        0.036      345.933       23.818      860.765
07/11/2013  02:27:00       10.016       26.490       36.740       14.227       23.876       16.643      202.405      570.052      276.993        0.160        0.052       28.320       17.560        0.384      346.003       23.938      860.747
07/11/2013  02:28:00       41.642       37.534       25.082       17.244       23.606       23.973      297.362      557.230      574.689        0.260        0.071       56.061       17.236        0.095      346.059       24.034      860.702
07/11/2013  02:29:00        0.025       37.449       -5.120       32.100       30.310       17.240     1030.432      918.679      297.220        0.184        0.112       37.449       12.791        0.117      345.890       23.744      860.678
07/11/2013  02:30:00       10.519       87.240      -12.458       22.080       20.569        9.533      487.536      423.102       90.874        0.444        0.050       87.872        5.813        0.004      345.745       23.495      860.687
07/11/2013  02:31:00      -14.090       41.845       -8.151       16.322       29.688        9.360      266.408      881.372       87.602        0.163        0.062       44.154       12.581        0.081      345.789       23.573      860.732
07/11/2013  02:32:00      -37.842      -22.128       -6.045       30.347       18.831       13.794      920.954      354.594      190.280        0.171        0.073       43.837       11.491        0.069      345.876       23.720      860.749
07/11/2013  02:33:00      -76.481       -9.361       -1.830       38.031       47.183       15.624     1446.394     2226.208      244.101        0.493        0.196       77.051       12.477        0.026      345.820       23.626      860.718
07/11/2013  02:34:00      -60.314       65.847      -13.919       23.581       25.077       13.127      556.056      628.873      172.327        0.476        0.068       89.295        5.571        0.004      345.761       23.523      860.691
07/11/2013  02:35:00      -18.839       94.176       -4.291       39.194       63.841       32.391     1536.187     4075.663     1049.155        0.795        0.333       96.042       33.247        0.120      346.017       23.962      860.674
07/11/2013  02:36:00       16.832      122.686      -15.580       29.753       37.075       21.668      885.216     1374.590      469.498        0.915        0.136      123.835       20.658        0.028      346.018       23.964      860.652
07/11/2013  02:37:00      -13.242       52.722       -3.160       31.921       42.203       16.572     1018.958     1781.118      274.632        0.302        0.154       54.360       11.311        0.043      346.018       23.964      860.674
07/11/2013  02:38:00       14.721       -1.398        7.466       12.098       16.680       11.920      146.355      278.210      142.078        0.042        0.028       14.787        3.793        0.066      346.070       24.052      860.690
07/11/2013  02:39:00      -16.407       21.430       -3.005       23.110       17.582       12.233      534.069      309.136      149.646        0.086        0.050       26.989       10.549        0.153      346.017       23.963      860.663
07/11/2013  02:40:00      -40.242       70.589      -13.229       25.600       27.182       15.787      655.353      738.875      249.231        0.421        0.082       81.254       11.890        0.021      346.216       24.303      860.628
07/11/2013  02:41:00      -76.757        7.993       -8.540       31.424       25.914       12.573      987.450      671.531      158.079        0.392        0.091       77.172       10.820        0.020      346.178       24.239      860.600
07/11/2013  02:42:00     -185.064       27.213       -0.441       85.574       70.857       52.259     7322.875     5020.733     2731.015        2.503        0.754      187.054       38.987        0.043      346.256       24.369      860.559
07/11/2013  02:43:00     -226.671        9.464      -25.954       94.845       83.006       43.775     8995.490     6889.922     1916.238        3.497        0.890      226.868       46.761        0.042      346.226       24.319      860.542
07/11/2013  02:44:00     -288.341     -140.676      -11.603      129.268      124.901       58.874    16710.135    15600.165     3466.177        6.941        1.789      320.828       51.654        0.026      346.283       24.416      860.507
07/11/2013  02:45:00     -316.778     -103.155      -10.195      142.154      116.130       58.782    20207.775    13486.163     3455.354        7.411        1.857      333.150       60.470        0.033      346.308       24.458      860.506
07/11/2013  02:46:00     -226.967      -80.493       -2.853      123.285      104.168       61.909    15199.081    10850.880     3832.775        4.394        1.494      240.818       67.531        0.079      346.291       24.429      860.478
07/11/2013  02:47:00     -249.347      -55.709       -0.014      142.057       89.604       59.861    20180.123     8028.927     3583.358        4.853        1.590      255.495       66.603        0.068      346.267       24.388      860.460
07/11/2013  02:48:00     -271.812     -102.301       -1.070      166.762       98.270       55.487    27809.602     9657.025     3078.786        6.244        2.027      290.426       69.672        0.058      346.317       24.475      860.451
07/11/2013  02:49:00     -248.731      -67.682        0.940      132.450      113.935       63.643    17542.968    12981.265     4050.389        5.050        1.729      257.775       71.140        0.076      346.316       24.474      860.454
07/11/2013  02:50:00     -332.531     -104.133       -2.365      138.399      108.471       69.050    19154.228    11765.878     4767.855        7.855        1.784      348.455       75.399        0.047      346.376       24.576      860.437
07/11/2013  02:51:00     -327.633     -146.023       -1.804      192.334      121.357       81.304    36992.486    14727.422     6610.316        9.349        2.917      358.700       93.804        0.068      346.417       24.646      860.421
07/11/2013  02:52:00     -307.473      -47.922       -8.753      175.922      128.244       63.695    30948.377    16446.602     4057.024        7.417        2.573      311.185       72.175        0.054      346.373       24.569      860.418
07/11/2013  02:53:00     -378.536      -78.572      -10.765      154.488      143.340       74.626    23866.695    20546.302     5568.999        9.977        2.499      386.605       71.333        0.034      346.398       24.612      860.437
07/11/2013  02:54:00     -211.562      -80.376       -3.762      120.465      125.759       57.328    14511.767    15815.275     3286.491        4.242        1.681      226.316       53.342        0.056      346.408       24.631      860.459
07/11/2013  02:55:00     -174.715      -73.996       -3.194      110.851       83.346       57.909    12288.042     6946.527     3353.461        2.929        1.129      189.739       61.392        0.105      346.426       24.661      860.462
07/11/2013  02:56:00     -254.221      -93.505        2.223      126.342      106.447       53.547    15962.319    11330.864     2867.312        5.176        1.508      270.872       53.273        0.039      346.439       24.684      860.447
07/11/2013  02:57:00     -270.958     -106.396        2.427      104.682       92.474       60.942    10958.256     8551.463     3713.969        5.398        1.161      291.099       63.500        0.048      346.435       24.676      860.463
07/11/2013  02:58:00     -339.696     -182.478       -6.840      146.213      103.392       73.049    21378.135    10689.928     5336.184        9.306        1.870      385.606       78.666        0.042      346.463       24.724      860.489
07/11/2013  02:59:00     -275.223     -164.807       -4.465      141.569      100.739       61.665    20041.721    10148.273     3802.554        6.845        1.700      320.794       70.747        0.049      346.463       24.725      860.501
07/11/2013  03:00:00     -228.033     -136.666       -3.023      132.807      115.407       63.651    17637.625    13318.833     4051.501        5.284        1.750      265.851       71.832        0.073      346.449       24.701      860.486
07/11/2013  03:01:00     -351.885      -71.987       -8.037      200.654      129.250       77.115    40262.110    16705.624     5946.763        9.598        3.146      359.173       89.856        0.063      346.420       24.651      860.489
07/11/2013  03:02:00     -365.802     -111.737      -16.938      181.420      136.154       71.546    32913.272    18537.841     5118.841       10.157        2.828      382.487       83.726        0.048      346.446       24.696      860.521
07/11/2013  03:03:00     -271.355     -149.490       -6.822      140.664      115.221       74.237    19786.477    13275.836     5511.084        6.729        1.929      309.808       75.940        0.060      346.485       24.763      860.513
07/11/2013  03:04:00     -390.409     -148.981      -14.188      168.859      130.264       76.280    28513.352    16968.770     5818.639       11.305        2.565      417.870       74.228        0.032      346.437       24.681      860.507
07/11/2013  03:05:00     -276.630      -87.996        0.326      194.536      114.697       73.745    37844.330    13155.334     5438.257        7.034        2.822      290.288       87.674        0.091      346.350       24.531      860.512
07/11/2013  03:06:00     -315.275      -94.732       -6.010      142.998      101.289       68.396    20448.414    10259.411     4678.017        7.189        1.769      329.200       73.913        0.050      346.357       24.543      860.489
07/11/2013  03:07:00     -325.059     -118.886      -16.797      162.940      142.409       69.063    26549.516    20280.199     4769.640        8.583        2.580      346.118       75.029        0.047      346.366       24.558      860.489
07/11/2013  03:08:00     -297.085      -55.187       -3.047      144.663      113.911       69.930    20927.338    12975.713     4890.181        6.505        1.940      302.167       79.272        0.069      346.344       24.520      860.497
07/11/2013  03:09:00     -239.624     -101.419       -3.124      204.326      118.895       78.147    41749.032    14136.005     6106.905        6.484        3.100      260.203      102.369        0.155      346.352       24.534      860.489
07/11/2013  03:10:00     -364.424      -37.763       -2.364      146.171      120.571       63.834    21365.834    14537.339     4074.766        8.710        1.999      366.375       68.869        0.035      346.328       24.493      860.494
07/11/2013  03:11:00     -384.488      -89.716      -15.606      157.883      113.903       72.958    24927.043    12973.952     5322.903        9.967        2.161      394.817       78.939        0.040      346.360       24.549      860.486
07/11/2013  03:12:00     -296.169      -44.775       -5.437      134.030      113.029       72.685    17963.993    12775.626     5283.139        6.288        1.801      299.534       75.042        0.063      346.312       24.467      860.476
07/11/2013  03:13:00     -386.861     -153.079      -20.405      190.481      107.208       68.662    36283.027    11493.573     4714.459       11.299        2.625      416.047       71.756        0.030      346.338       24.510      860.482
07/11/2013  03:14:00     -223.133      -60.524       11.463      163.509       99.115       64.273    26735.285     9823.738     4130.994        4.713        2.035      231.196       72.591        0.099      346.264       24.383      860.495
07/11/2013  03:15:00     -333.647     -115.258      -22.239      137.184      121.615       66.320    18819.540    14790.294     4398.315        8.155        1.900      352.994       52.583        0.022      346.282       24.414      860.497
07/11/2013  03:16:00     -363.582     -113.131       -9.295      129.645      130.586       72.243    16807.945    17052.624     5219.002        9.207        1.954      380.776       71.011        0.035      346.249       24.356      860.492
07/11/2013  03:17:00     -390.765     -148.944      -22.081      202.039      182.460       81.089    40819.955    33291.813     6575.405       12.801        4.034      418.188       93.589        0.050      346.286       24.421      860.495
07/11/2013  03:18:00     -340.301      -75.463        0.724      171.709      105.091       75.150    29483.939    11044.180     5647.583        8.383        2.309      348.568       70.940        0.041      346.270       24.393      860.476
07/11/2013  03:19:00     -501.193     -243.832      -27.584      234.908      169.361       87.169    55181.582    28683.124     7598.391       20.142        4.573      557.358       92.449        0.028      346.351       24.532      860.442
07/11/2013  03:20:00     -409.052     -221.409      -15.199      212.426      166.900       90.273    45125.013    27855.729     8149.194       14.884        4.056      465.129       97.687        0.044      346.391       24.601      860.436
07/11/2013  03:21:00     -478.846     -131.399      -16.026      173.090      126.709       80.454    29960.090    16055.248     6472.823       14.964        2.624      496.547       91.996        0.034      346.327       24.491      860.420
07/11/2013  03:22:00     -323.140     -111.244      -10.586      212.273      122.712       84.303    45059.860    15058.323     7106.943        9.205        3.361      341.752       95.824        0.079      346.293       24.435      860.417
07/11/2013  03:23:00     -352.380     -141.412       -7.390      181.872      149.655       97.936    33077.520    22396.614     9591.393       10.463        3.253      379.697       97.900        0.066      346.302       24.448      860.426
07/11/2013  03:24:00     -442.641      -93.695      -17.094      242.747      151.267       92.590    58926.012    22881.735     8572.954       14.767        4.519      452.449      108.019        0.057      346.331       24.499      860.406
07/11/2013  03:25:00     -415.815     -123.000        4.433      223.895      147.370      100.928    50128.793    21718.005    10186.459       13.503        4.102      433.626      115.799        0.071      346.337       24.508      860.400
07/11/2013  03:26:00     -407.433     -132.762      -22.513      209.354      179.352       87.093    43829.125    32167.121     7585.127       13.384        4.179      428.518       87.218        0.041      346.349       24.530      860.420
07/11/2013  03:27:00     -490.705     -201.938      -25.204      197.066      168.379      100.653    38834.820    28351.625    10130.979       17.975        3.866      530.632      105.920        0.040      346.357       24.543      860.419
07/11/2013  03:28:00     -258.802     -142.711        5.660      202.555      149.811       80.955    41028.410    22443.206     6553.658        7.869        3.501      295.541       97.895        0.110      346.301       24.448      860.399
07/11/2013  03:29:00     -364.154     -186.484      -15.539      184.313      141.228       76.874    33971.452    19945.446     5909.607       11.371        2.991      409.127       82.002        0.040      346.344       24.521      860.390
07/11/2013  03:30:00     -221.702     -104.735       -0.284      197.161      131.364       73.684    38872.437    17256.435     5429.280        6.083        3.078      245.196       67.403        0.076      346.362       24.552      860.350
07/11/2013  03:31:00     -327.322      -77.343      -11.365      200.927      117.672       79.825    40371.827    13846.804     6372.095        8.691        3.030      336.336       98.450        0.086      346.401       24.618      860.372
07/11/2013  03:32:00     -325.929     -162.698      -13.200      156.206      112.634       74.712    24400.458    12686.512     5581.920        8.776        2.133      364.280       69.960        0.037      346.394       24.605      860.359
07/11/2013  03:33:00     -418.254      -81.069       -4.836      187.263      145.114       87.118    35067.611    21058.166     7589.473       12.261        3.186      426.038       95.757        0.051      346.396       24.610      860.359
07/11/2013  03:34:00     -297.799     -137.745       -3.107      170.389      131.219       73.996    29032.572    17218.442     5475.406        7.969        2.586      328.112       82.482        0.063      346.386       24.593      860.377
07/11/2013  03:35:00     -156.438     -117.610        6.866      176.435      124.778       92.611    31129.338    15569.470     8576.766        4.680        2.764      195.716      106.667        0.297      346.399       24.616      860.380
07/11/2013  03:36:00     -224.087     -177.684      -17.361      138.872      118.025       71.008    19285.447    13929.996     5042.146        6.017        1.913      285.983       70.337        0.060      346.412       24.637      860.378
07/11/2013  03:37:00     -356.074      -62.717      -19.085      130.248      115.316       66.831    16964.548    13297.828     4466.343        8.290        1.736      361.555       68.924        0.036      346.363       24.554      860.355
07/11/2013  03:38:00     -306.369      -92.266       16.018      196.514      176.190       84.935    38617.846    31042.815     7213.988        8.974        3.844      319.961       89.780        0.079      346.375       24.575      860.342
07/11/2013  03:39:00     -378.514     -266.610      -18.393      204.007      136.479       73.466    41618.976    18626.527     5397.266       14.015        3.282      462.984       87.552        0.036      346.385       24.590      860.334
07/11/2013  03:40:00     -298.150     -195.631      -14.978      148.657      100.200       74.274    22099.018    10039.953     5516.619        8.251        1.883      356.602       70.072        0.039      346.350       24.530      860.331
07/11/2013  03:41:00     -227.673     -154.984       10.185      185.075      141.463       83.983    34252.848    20011.840     7053.153        6.863        3.066      275.418       90.352        0.108      346.320       24.479      860.314
07/11/2013  03:42:00     -199.496     -121.021       18.959      224.222      187.435       91.031    50275.300    35131.881     8286.716        7.423        4.685      233.334      106.639        0.209      346.301       24.448      860.332
07/11/2013  03:43:00     -198.535     -136.642        0.861      178.604      144.616       85.644    31899.317    20913.846     7334.904        5.911        3.007      241.013       90.155        0.140      346.290       24.428      860.346
07/11/2013  03:44:00     -289.828     -187.913      -30.296      146.994      144.843       71.498    21607.318    20979.524     5111.909        8.395        2.385      345.415       59.652        0.030      346.261       24.376      860.322
07/11/2013  03:45:00     -217.294     -139.395      -19.320      118.746      129.836       64.939    14100.546    16857.483     4217.025        5.109        1.759      258.162       41.782        0.026      346.245       24.350      860.265
07/11/2013  03:46:00     -416.107      -81.090      -13.783      237.085      139.286       79.671    56209.207    19400.631     6347.530       13.092        4.098      423.934       81.517        0.037      346.252       24.362      860.231
07/11/2013  03:47:00     -506.209      -55.210      -29.091      191.673      130.114       77.116    36738.567    16929.715     5946.829       15.987        2.981      509.211       87.036        0.029      346.283       24.416      860.253
07/11/2013  03:48:00     -338.045     -133.740      -15.169      217.210      170.702       77.925    47180.104    29139.132     6072.301       10.737        4.120      363.539       89.639        0.061      346.308       24.459      860.334
07/11/2013  03:49:00     -194.948     -174.007       22.179      217.207      124.657       85.715    47179.037    15539.266     7347.090        6.941        3.503      261.310      105.818        0.164      346.261       24.377      860.410
07/11/2013  03:50:00     -146.577     -147.417       11.223      166.346      137.795       65.949    27670.850    18987.592     4349.210        4.716        2.550      207.886       89.896        0.187      346.254       24.367      860.403
07/11/2013  03:51:00     -130.674     -161.845       18.836      138.715      133.136       76.606    19241.771    17725.115     5868.482        4.322        2.142      208.013       80.432        0.150      346.244       24.348      860.383
07/11/2013  03:52:00     -153.820      -96.528        8.433      141.325      116.919       64.445    19972.775    13669.976     4153.147        3.542        1.890      181.599       65.794        0.131      346.223       24.314      860.420
07/11/2013  03:53:00     -291.389     -138.375      -10.669      135.470      132.711       79.611    18352.053    17612.219     6337.878        7.323        2.115      322.576       78.684        0.059      346.314       24.468      860.418
07/11/2013  03:54:00     -170.992     -124.267        3.311      138.850       98.435       61.137    19279.446     9689.415     3737.691        3.869        1.635      211.378       72.350        0.117      346.300       24.446      860.423
07/11/2013  03:55:00     -134.780     -116.064       18.853      143.717      116.869       66.595    20654.453    13658.350     4434.897        3.536        1.937      177.867       79.145        0.198      346.281       24.415      860.422
07/11/2013  03:56:00     -257.949      -45.972       10.583      105.935      128.901       58.782    11222.133    16615.526     3455.279        5.002        1.565      262.014       60.486        0.053      346.355       24.539      860.406
07/11/2013  03:57:00      -79.918     -127.762       -5.178       94.897       85.989       54.006     9005.511     7394.161     2916.664        2.102        0.966      150.699       39.097        0.067      346.336       24.510      860.454
07/11/2013  03:58:00     -160.113     -159.865        6.402      103.308      117.987       70.667    10672.558    13920.886     4993.887        4.040        1.479      226.259       67.715        0.090      346.335       24.506      860.411
07/11/2013  03:59:00     -111.004     -105.580       10.223       89.204      114.615       48.250     7957.368    13136.620     2328.060        2.349        1.171      153.196       47.078        0.094      346.337       24.511      860.438
07/11/2013  04:00:00     -249.501     -214.351      -12.540      135.131      115.588       74.827    18260.434    13360.589     5599.119        7.278        1.861      328.933       82.525        0.063      346.353       24.537      860.420
07/11/2013  04:01:00     -178.092     -107.944       19.477      127.383      122.604       71.385    16226.361    15031.691     5095.765        4.004        1.818      208.252       66.622        0.102      346.347       24.527      860.451
07/11/2013  04:02:00     -271.924     -136.482       -3.224      187.137      141.769       83.184    35020.214    20098.433     6919.583        7.730        3.102      304.253       95.524        0.099      346.308       24.459      860.452
07/11/2013  04:03:00     -368.137     -198.600      -19.195      190.856      148.974       79.480    36426.112    22193.220     6317.138       12.012        3.247      418.290       65.382        0.024      346.327       24.490      860.449
07/11/2013  04:04:00     -331.750     -229.883      -17.519      184.363      145.524       94.478    33989.609    21177.308     8926.100       11.364        3.205      403.614       90.822        0.051      346.272       24.397      860.396
07/11/2013  04:05:00     -272.615     -166.259        5.697      190.000      128.550      106.368    36099.941    16524.986    11314.171        8.295        3.197      319.313      120.326        0.142      346.230       24.324      860.342
07/11/2013  04:06:00     -281.990      -91.012       -3.006      213.300      137.118       79.379    45496.678    18801.248     6300.984        7.919        3.530      296.314       95.287        0.103      346.203       24.277      860.377
07/11/2013  04:07:00     -328.125     -152.830       17.913      181.128      137.448       83.649    32807.187    18892.065     6997.163        9.501        2.935      361.971       88.553        0.060      346.175       24.229      860.373
07/11/2013  04:08:00     -260.875     -110.907       12.019      196.678      117.169       69.025    38682.212    13728.541     4764.497        6.883        2.859      283.472       95.959        0.115      346.147       24.182      860.359
07/11/2013  04:09:00     -334.264     -140.503       -2.447      194.174      145.184       79.031    37703.478    21078.318     6245.949        9.824        3.251      362.592       89.549        0.061      346.156       24.198      860.323
07/11/2013  04:10:00     -293.525      -73.342       -9.766      142.131      107.947       78.113    20201.092    11652.644     6101.711        6.479        1.898      302.549       74.680        0.061      346.134       24.160      860.309
07/11/2013  04:11:00     -224.406      -99.938       -0.686      155.083      112.551       63.427    24050.878    12667.805     4023.004        5.054        2.037      245.654       67.437        0.075      346.115       24.127      860.285
07/11/2013  04:12:00     -436.537     -132.851      -26.693      142.583      137.794       69.716    20330.009    18987.074     4860.317       12.654        2.209      456.305       40.111        0.008      346.129       24.149      860.255
07/11/2013  04:13:00     -379.256     -141.241       -4.197      157.535       99.258       74.578    24817.284     9852.093     5561.872       10.201        2.012      404.703       63.268        0.024      346.112       24.121      860.257
07/11/2013  04:14:00     -318.645     -126.084      -19.995      141.947      127.802       72.387    20149.086    16333.445     5239.879        7.977        2.086      342.683       75.038        0.048      346.084       24.071      860.231
07/11/2013  04:15:00     -354.061     -205.495      -11.728      141.235      118.192       78.659    19947.317    13969.376     6187.179       10.391        2.005      409.375       67.316        0.027      346.068       24.046      860.192
07/11/2013  04:16:00     -306.096      -86.754       -6.481      180.003      137.315       88.154    32401.069    18855.537     7771.174        8.013        2.951      318.152       95.349        0.090      346.060       24.032      860.149
07/11/2013  04:17:00     -394.479     -111.010      -20.869      179.522      191.212       82.402    32227.984    36562.121     6790.043       12.196        3.779      409.801       93.810        0.052      346.055       24.023      860.135
07/11/2013  04:18:00     -416.286      -91.897      -23.185      188.206      143.972       84.439    35421.545    20727.991     7129.924       12.277        3.164      426.308       78.946        0.034      346.022       23.969      860.138
07/11/2013  04:19:00     -392.362     -149.519      -24.338      183.002      161.746       77.345    33489.690    26161.915     5982.295       12.125        3.282      419.886       83.837        0.040      346.005       23.937      860.149
07/11/2013  04:20:00     -325.990      -72.177      -18.144      155.349      143.130       77.458    24133.355    20486.098     5999.686        8.120        2.531      333.884       78.373        0.055      346.014       23.954      860.155
07/11/2013  04:21:00     -206.535      -72.617       -7.366      130.076      115.567       67.511    16919.717    13355.682     4557.758        4.140        1.742      218.929       69.589        0.101      346.039       23.998      860.177
07/11/2013  04:22:00     -275.545      -62.695      -20.107      181.609      152.108       88.977    32981.770    23136.735     7916.900        7.213        3.202      282.587       91.685        0.105      346.069       24.048      860.185
07/11/2013  04:23:00     -332.616     -117.640      -16.234      146.901      140.288       77.453    21579.880    19680.709     5999.001        8.599        2.363      352.806       73.019        0.043      346.059       24.029      860.216
07/11/2013  04:24:00     -431.141     -138.474      -29.927      217.551      177.595       80.527    47328.651    31539.902     6484.623       14.564        4.268      452.833       69.524        0.024      346.049       24.014      860.201
07/11/2013  04:25:00     -266.686     -182.501       -6.260      151.444      126.825       69.242    22935.257    16084.471     4794.482        7.413        2.191      323.154       68.571        0.045      346.024       23.970      860.194
07/11/2013  04:26:00     -240.101      -98.725        1.885      158.872      135.933       81.764    25240.258    18477.771     6685.339        5.889        2.520      259.605       68.912        0.070      346.059       24.031      860.215
07/11/2013  04:27:00     -252.735     -132.281        7.641      184.429      177.246       86.053    34014.154    31416.066     7405.060        7.712        3.642      285.260       98.717        0.120      346.134       24.160      860.239
07/11/2013  04:28:00     -364.109     -151.892      -21.203      182.147      150.706       75.603    33177.415    22712.291     5715.801       10.884        3.080      394.521       73.585        0.035      346.157       24.198      860.256
07/11/2013  04:29:00     -303.778      -55.699       -8.013      209.339      131.281       71.210    43822.763    17234.734     5070.910        8.077        3.306      308.842       78.015        0.064      346.147       24.182      860.282
07/11/2013  04:30:00     -374.269      -10.841       -8.268      263.236      144.146       72.129    69293.060    20777.975     5202.622       11.775        4.764      374.426       85.417        0.052      346.122       24.139      860.286
07/11/2013  04:31:00     -504.184      -57.608      -24.010      206.683      173.439       95.922    42717.849    30081.182     9201.039       17.003        4.100      507.464      108.300        0.046      346.126       24.146      860.226
07/11/2013  04:32:00     -421.795      -81.626        4.991      273.682      180.541      114.575    74901.988    32594.996    13127.355       15.259        6.031      429.621      123.660        0.083      346.099       24.100      860.244
07/11/2013  04:33:00     -366.487     -108.242      -22.680      141.404      142.835       77.107    19994.974    20401.947     5945.543        9.643        2.317      382.138       75.084        0.039      346.091       24.085      860.317
07/11/2013  04:34:00     -365.863     -139.777       -6.619      223.626      136.889       92.993    50008.634    18738.659     8647.627       11.540        3.870      391.655      103.865        0.070      346.061       24.034      860.343
07/11/2013  04:35:00     -204.671      -80.914       11.388      177.422      140.827       83.098    31478.416    19832.376     6905.216        5.338        2.911      220.085       95.258        0.187      346.029       23.979      860.364
07/11/2013  04:36:00     -283.517     -134.710      -16.772      139.173      148.431       69.256    19369.101    22031.713     4796.438        7.249        2.310      313.893       66.614        0.045      346.018       23.960      860.356
07/11/2013  04:37:00     -304.495      -29.493       -7.278      191.862      119.096       72.138    36811.215    14183.821     5203.931        7.491        2.810      305.920       70.350        0.053      345.989       23.911      860.361
07/11/2013  04:38:00     -386.858      -90.185      -15.045      217.322      141.083       88.995    47228.693    19904.325     7920.050       11.652        3.753      397.231      112.202        0.080      346.000       23.931      860.347
07/11/2013  04:39:00     -391.556     -145.800      -12.488      239.654      176.055       84.012    57434.006    30995.237     7058.059       13.509        4.774      417.821      103.496        0.061      345.980       23.897      860.340
07/11/2013  04:40:00     -294.658     -110.714       -1.992      159.408      139.727       65.915    25411.025    19523.695     4344.792        7.417        2.464      314.772       77.691        0.061      345.951       23.847      860.340
07/11/2013  04:41:00     -278.529     -159.924      -10.556      138.056       85.417       65.298    19059.510     7296.089     4263.854        6.694        1.531      321.176       64.402        0.040      345.970       23.878      860.289
07/11/2013  04:42:00     -318.730      -70.936      -10.781      176.775       99.892       69.607    31249.373     9978.372     4845.120        7.640        2.304      326.528       79.326        0.059      345.966       23.871      860.281
07/11/2013  04:43:00     -189.771      -72.651        5.191      128.103       98.990       58.866    16410.265     9799.115     3465.215        3.549        1.484      203.202       62.591        0.095      345.929       23.808      860.298
07/11/2013  04:44:00     -413.128      -52.767      -19.740      195.875      164.949       93.449    38366.939    27208.073     8732.639       12.406        3.715      416.484       91.168        0.048      345.915       23.783      860.319
07/11/2013  04:45:00     -371.445      -77.796       -8.773      172.568      156.509       77.547    29779.578    24494.953     6013.559       10.218        3.014      379.504       88.153        0.054      345.883       23.730      860.299
07/11/2013  04:46:00     -441.717      -21.842      -41.170      169.013      106.780       59.630    28565.239    11402.004     3555.698       12.040        2.176      442.256       53.303        0.015      345.855       23.681      860.250
07/11/2013  04:47:00     -249.144      -58.873       -7.453      134.419      125.592       69.588    18068.481    15773.465     4842.531        5.213        1.934      256.005       68.889        0.072      345.804       23.593      860.263
07/11/2013  04:48:00     -298.739      -47.668       -8.026      180.868      146.964       80.412    32713.242    21598.371     6466.042        7.617        3.039      302.518       81.567        0.073      345.781       23.554      860.245
07/11/2013  04:49:00     -371.644      -96.176       -3.070      147.554      140.069       76.424    21772.306    19619.234     5840.689        9.730        2.362      383.887       75.745        0.039      345.746       23.494      860.247
07/11/2013  04:50:00     -350.919     -118.386      -16.555      151.022      124.251       65.515    22807.535    15438.294     4292.262        8.998        2.127      370.351       71.302        0.037      345.811       23.606      860.325
07/11/2013  04:51:00     -268.876      -77.032      -13.809      178.247      125.242       53.461    31771.833    15685.486     2858.124        6.436        2.516      279.693       71.952        0.066      345.844       23.663      860.323
07/11/2013  04:52:00     -271.678     -137.078        0.821      193.389      127.791       75.454    37399.438    16330.441     5693.304        7.600        2.971      304.301       84.670        0.077      345.819       23.620      860.290
07/11/2013  04:53:00     -248.243      -52.335      -11.878      135.517       96.911       54.060    18364.899     9391.789     2922.466        4.759        1.534      253.699       46.912        0.034      345.781       23.555      860.266
07/11/2013  04:54:00     -214.866     -145.942      -30.512       98.222       98.713       59.057     9647.657     9744.174     3487.755        4.563        1.144      259.743       44.647        0.030      345.779       23.550      860.278
07/11/2013  04:55:00      -99.780      -48.666       16.044       95.979       80.563       54.819     9211.922     6490.334     3005.144        1.564        0.935      111.015       53.857        0.235      345.747       23.498      860.304
07/11/2013  04:56:00     -318.312     -151.365      -14.905      146.929      100.752       68.654    21588.137    10151.000     4713.412        8.045        1.823      352.468       75.536        0.046      345.783       23.558      860.273
07/11/2013  04:57:00     -361.084     -127.275        3.753      183.054      172.481       81.355    33508.649    29749.611     6618.658       10.822        3.494      382.858       75.857        0.039      345.768       23.532      860.303
07/11/2013  04:58:00     -256.790     -193.597      -19.206      157.304      124.525       76.613    24744.480    15506.511     5869.505        7.495        2.306      321.591       72.956        0.051      345.787       23.565      860.342
07/11/2013  04:59:00     -233.592     -115.913       -5.651      141.149      119.709       51.541    19923.033    14330.187     2656.430        5.246        1.845      260.770       46.037        0.031      345.776       23.547      860.364
07/11/2013  05:00:00     -270.667     -133.565       -2.254      176.298      192.441       90.844    31080.957    37033.507     8252.658        8.372        3.818      301.828       90.110        0.089      345.836       23.649      860.354
07/11/2013  05:01:00     -368.083      -22.720      -30.053      165.488      138.955       79.873    27386.229    19308.509     6379.731        9.498        2.654      368.784       78.373        0.045      345.831       23.641      860.364
07/11/2013  05:02:00     -265.107      -74.201       -7.906      153.794      137.608       67.091    23652.635    18935.914     4501.236        6.146        2.354      275.296       68.286        0.062      345.789       23.568      860.317
07/11/2013  05:03:00     -307.520      -14.448       -4.548      184.577      144.217       77.487    34068.680    20798.681     6004.182        7.782        3.044      307.860       86.348        0.079      345.773       23.541      860.303
07/11/2013  05:04:00     -334.079      -25.960       -2.582      176.758      148.913       72.038    31243.300    22175.191     5189.462        8.544        2.930      335.086       79.498        0.056      345.761       23.519      860.306
07/11/2013  05:05:00     -392.035     -111.648      -15.178      200.032      169.306       84.352    40012.703    28664.550     7115.189       12.107        3.790      407.623       99.197        0.059      345.791       23.573      860.365
07/11/2013  05:06:00     -297.774     -131.246       -3.601      211.245      154.698       72.787    44624.494    23931.420     5297.904        8.987        3.693      325.415       89.460        0.076      345.763       23.524      860.350
07/11/2013  05:07:00     -510.209       20.457      -47.826      219.212      109.950       72.114    48053.896    12089.096     5200.445       16.417        3.267      510.619       71.884        0.020      345.787       23.564      860.358
07/11/2013  05:08:00     -371.537      -78.469       -2.529      155.230      128.470       87.945    24096.264    16504.493     7734.299        9.626        2.417      379.733       89.555        0.056      345.766       23.528      860.354
07/11/2013  05:09:00     -289.877      -70.816       15.060      152.320      132.146       70.163    23201.297    17462.437     4922.855        6.742        2.279      298.402       71.645        0.058      345.761       23.520      860.371
07/11/2013  05:10:00     -352.414     -120.462      -20.296      154.019      152.723       76.898    23721.950    23324.179     5913.328        9.603        2.648      372.434       73.732        0.039      345.742       23.487      860.379
07/11/2013  05:11:00     -349.134      -37.097      -27.154      165.783      113.208       69.157    27484.127    12816.074     4782.643        8.454        2.254      351.099       75.349        0.046      345.687       23.392      860.393
07/11/2013  05:12:00     -334.704      -76.084       -2.498      174.153      118.723       69.798    30329.413    14095.050     4871.695        8.355        2.465      343.243       84.103        0.060      345.624       23.284      860.388
07/11/2013  05:13:00     -417.935      -50.471      -30.420      165.220      115.160       73.212    27297.506    13261.722     5359.949       11.202        2.296      420.971       84.673        0.040      345.595       23.233      860.383
07/11/2013  05:14:00     -374.960      -59.363      -25.504      192.506      170.036       80.493    37058.740    28912.386     6479.086       10.860        3.623      379.630       95.769        0.064      345.560       23.173      860.403
07/11/2013  05:15:00     -494.708      -93.218      -22.170      172.776      150.561       77.723    29851.709    22668.686     6040.822       15.623        2.928      503.414       88.719        0.031      345.527       23.117      860.415
07/11/2013  05:16:00     -381.184      -38.479      -15.018      173.191      142.357       76.288    29995.194    20265.573     5819.831       10.153        2.804      383.122       85.379        0.050      345.475       23.027      860.442
07/11/2013  05:17:00     -416.332      -52.399       -4.877      204.530      153.619       92.251    41832.680    23598.814     8510.161       12.501        3.697      419.616       93.763        0.050      345.447       22.980      860.465
07/11/2013  05:18:00     -361.790      -80.643      -18.447      209.057      132.918       79.542    43704.959    17667.256     6326.904       10.270        3.385      370.669       87.954        0.056      345.429       22.949      860.464
07/11/2013  05:19:00     -380.781      -36.341      -10.536      182.311      149.613       75.816    33237.452    22384.037     5748.023       10.389        3.068      382.511       78.281        0.042      345.396       22.893      860.417
07/11/2013  05:20:00     -301.880     -109.037        7.556      202.959      143.125       91.834    41192.196    20484.700     8433.518        8.658        3.506      320.968      109.124        0.116      345.393       22.888      860.409
07/11/2013  05:21:00     -497.716       -1.547      -32.129      200.819      217.748       91.524    40328.128    47414.195     8376.580       17.242        4.806      497.719       76.391        0.024      345.403       22.905      860.412
07/11/2013  05:22:00     -283.301      -48.833        2.040      206.080      132.648       85.948    42469.083    17595.509     7387.006        7.504        3.373      287.479       99.364        0.119      345.389       22.880      860.437
07/11/2013  05:23:00     -169.860      -92.323       26.968      127.192      123.716       79.218    16177.829    15305.653     6275.487        3.792        1.888      193.329       75.395        0.152      345.387       22.879      860.461
07/11/2013  05:24:00     -203.513      -90.503       12.850      164.588      126.683       72.096    27089.293    16048.479     5197.818        4.904        2.417      222.729       87.783        0.155      345.424       22.940      860.472
07/11/2013  05:25:00     -436.349      -83.965      -22.990      177.717      181.472       68.343    31583.320    32931.993     4670.796       13.357        3.459      444.354       60.251        0.018      345.434       22.956      860.442
07/11/2013  05:26:00     -416.350      -37.065       -5.731      200.163      183.113       88.420    40065.338    33530.195     7818.028       12.807        4.071      417.997       94.496        0.051      345.412       22.920      860.472
07/11/2013  05:27:00     -270.292      -96.831       -1.332      139.453      136.198       72.500    19447.001    18549.960     5256.276        6.284        2.163      287.113       83.945        0.085      345.413       22.923      860.464
07/11/2013  05:28:00     -244.864      -60.003       -4.072      113.829      125.969       67.876    12957.088    15868.183     4607.113        4.850        1.672      252.109       63.934        0.064      345.393       22.888      860.437
07/11/2013  05:29:00     -409.527      -71.853      -11.948      257.973      162.969      104.578    66549.913    26558.763    10936.528       13.851        5.202      415.783      133.178        0.103      345.387       22.878      860.376
07/11/2013  05:30:00     -436.550      -95.975      -24.106      232.664      146.854       83.386    54132.516    21566.128     6953.184       14.149        4.133      446.976       97.825        0.048      345.399       22.898      860.401
07/11/2013  05:31:00     -305.816      -52.990        6.658      198.817      120.206       86.095    39528.068    14449.395     7412.294        7.887        3.069      310.373       96.888        0.097      345.379       22.863      860.381
07/11/2013  05:32:00     -405.802      -27.264      -16.398      227.276      150.622       93.899    51654.441    22687.014     8817.066       12.441        4.158      406.717      112.150        0.076      345.401       22.901      860.408
07/11/2013  05:33:00     -339.938     -134.821       -2.596      159.992      133.176       87.131    25597.451    17735.903     7591.880        9.232        2.546      365.697       88.968        0.059      345.425       22.941      860.426
07/11/2013  05:34:00     -360.522      -38.554       -4.476      167.582      157.511       69.979    28083.610    24809.699     4897.064        9.463        2.890      362.578       79.048        0.048      345.411       22.917      860.443
07/11/2013  05:35:00     -353.549      -99.030      -18.226      167.666      162.904       72.892    28112.011    26537.630     5313.195        9.754        2.998      367.156       73.168        0.040      345.449       22.983      860.457
07/11/2013  05:36:00     -292.922      -34.713        3.106      216.739      114.721       89.326    46975.866    13160.945     7979.202        7.755        3.406      294.972      100.955        0.117      345.458       22.999      860.499
07/11/2013  05:37:00     -152.972      -32.277        6.993      118.005      126.280       81.421    13925.192    15946.513     6629.418        3.049        1.825      156.340       71.282        0.208      345.456       22.996      860.525
07/11/2013  05:38:00     -185.255     -141.412       -1.815      157.294      123.108       74.918    24741.290    15155.505     5612.778        4.991        2.275      233.060       84.460        0.131      345.436       22.962      860.516
07/11/2013  05:39:00     -267.520       -0.362      -11.912      125.023      109.988       57.363    15630.695    12097.457     3290.559        5.136        1.551      267.520       60.812        0.052      345.432       22.954      860.510
07/11/2013  05:40:00     -184.564      -63.198      -18.274      122.759      114.853       58.354    15069.820    13191.319     3405.145        3.502        1.583      195.085       52.031        0.071      345.420       22.936      860.512
07/11/2013  05:41:00     -238.690       20.115       -6.441      164.614      124.969       76.517    27097.900    15617.157     5854.824        5.298        2.428      239.536       67.679        0.080      345.391       22.884      860.517
07/11/2013  05:42:00     -396.218      -54.754      -24.064      142.062      110.668       56.584    20181.534    12247.376     3201.751        9.809        1.782      399.983       63.892        0.026      345.380       22.864      860.506
07/11/2013  05:43:00     -447.419      -90.478      -11.472      229.005      150.574       97.068    52443.243    22672.465     9422.218       14.650        4.227      456.475      114.965        0.063      345.355       22.821      860.489
07/11/2013  05:44:00     -444.701     -116.459      -14.302      181.507      145.553       86.055    32944.783    21185.751     7405.512       13.652        3.077      459.697       97.827        0.045      345.360       22.832      860.483
07/11/2013  05:45:00     -454.808     -127.803      -14.368      250.380      144.680       78.609    62689.934    20932.245     6179.310       15.658        4.490      472.424       89.138        0.036      345.333       22.786      860.477
07/11/2013  05:46:00     -480.407     -155.733      -14.364      213.894      156.481       85.205    45750.827    24486.297     7259.844       16.636        3.875      505.019       96.395        0.036      345.313       22.750      860.484
07/11/2013  05:47:00     -484.884     -126.940       -8.745      229.998      175.017       96.306    52898.883    30630.939     9274.902       17.203        4.640      501.225      117.759        0.055      345.311       22.747      860.551
07/11/2013  05:48:00     -418.009     -135.272      -21.492      211.185      175.040       97.725    44598.980    30639.160     9550.164       13.912        4.239      439.352      120.927        0.076      345.348       22.810      860.609
07/11/2013  05:49:00     -276.238     -225.233       -2.315      139.816      122.060       77.489    19548.543    14898.697     6004.536        8.374        2.023      356.423       77.469        0.047      345.314       22.752      860.623
07/11/2013  05:50:00     -309.811     -163.693      -13.854      115.517       81.550       51.434    13344.123     6650.458     2645.475        7.280        1.132      350.397       54.723        0.024      345.308       22.741      860.584
07/11/2013  05:51:00     -184.901     -139.213       -5.996      149.838      113.161       82.228    22451.535    12805.364     6761.455        4.780        2.101      231.449       89.996        0.151      345.288       22.708      860.630
07/11/2013  05:52:00      -63.987      -84.623       -2.488       57.392       57.246       33.593     3293.852     3277.158     1128.508        0.948        0.385      106.092       28.281        0.071      345.345       22.808      860.589
07/11/2013  05:53:00      -87.672      -12.335        8.342      111.276       52.891       34.119    12382.337     2797.449     1164.075        1.212        0.817       88.536       15.766        0.032      345.260       22.661      860.589
07/11/2013  05:54:00      -71.733      -47.687      -23.831       48.506       47.951       15.237     2352.794     2299.271      232.173        0.643        0.244       86.137       19.346        0.050      345.276       22.690      860.576
07/11/2013  05:55:00      -37.483     -238.523       14.276       65.379       80.592       37.270     4274.426     6495.088     1389.090        3.533        0.608      241.450       29.616        0.015      345.339       22.796      860.559
07/11/2013  05:56:00      -92.041     -236.027        1.921       73.457      138.197       50.527     5395.939    19098.285     2552.968        4.561        1.352      253.338       31.159        0.015      345.391       22.887      860.477
07/11/2013  05:57:00      -20.306      -82.793        8.800       84.624       86.393       42.460     7161.211     7463.770     1802.887        1.188        0.821       85.247       38.213        0.201      345.331       22.784      860.517
07/11/2013  05:58:00      -27.626      -63.285        4.610       41.419       38.461       37.524     1715.504     1479.241     1408.074        0.470        0.230       69.052       23.128        0.112      345.327       22.777      860.606
07/11/2013  05:59:00       14.539      -38.902       13.177       34.917       39.482       28.176     1219.183     1558.802      793.865        0.273        0.179       41.530       25.107        0.365      345.283       22.704      860.702
07/11/2013  06:00:00       81.475      -33.537       31.868       63.266       70.797       46.387     4002.570     5012.235     2151.787        0.997        0.558       88.107       48.642        0.305      345.314       22.757      860.710
07/11/2013  06:01:00        7.075        6.364       34.846       29.891       46.287       29.666      893.458     2142.468      880.089        0.261        0.196        9.516       27.158        8.145      345.318       22.763      860.741
07/11/2013  06:02:00       33.333      -32.683       24.464       36.686       61.875       30.258     1345.832     3828.538      915.535        0.443        0.304       46.682       27.760        0.354      345.361       22.836      860.741
07/11/2013  06:03:00       20.534      -31.791       32.804       48.003       66.642       47.230     2304.297     4441.155     2230.626        0.574        0.449       37.846       42.035        1.234      345.319       22.764      860.710
07/11/2013  06:04:00      -24.725      -32.726       32.234       64.871       87.837       61.705     4208.279     7715.396     3807.473        0.922        0.787       41.016       48.775        1.414      345.277       22.691      860.665
07/11/2013  06:05:00      -77.709      -14.026       11.406       60.812       50.550       36.199     3698.053     2555.353     1310.355        0.696        0.378       78.965       39.247        0.247      345.348       22.814      860.700
07/11/2013  06:06:00      -89.353      -32.563        6.356       56.808       36.764       29.555     3227.167     1351.572      873.479        0.727        0.273       95.102       30.832        0.105      345.327       22.778      860.714
07/11/2013  06:07:00      -12.703        6.814       14.943       28.130       26.269       17.610      791.286      690.062      310.112        0.111        0.090       14.415       14.142        0.962      345.291       22.716      860.727
07/11/2013  06:08:00       -2.823      -14.378        4.616       15.845       29.198       11.270      251.057      852.514      127.008        0.073        0.062       14.652        8.065        0.303      345.347       22.814      860.724
07/11/2013  06:09:00        4.522       20.009       24.878       20.272       23.832       15.140      410.958      567.960      229.205        0.112        0.060       20.513       11.654        0.323      345.260       22.663      860.678
07/11/2013  06:10:00      -13.186       41.738       -4.766       20.436       21.845       18.590      417.626      477.192      345.589        0.159        0.062       43.771       14.111        0.104      345.270       22.682      860.642
07/11/2013  06:11:00      -10.796      -40.745        1.648       37.330       57.166       22.903     1393.515     3268.003      524.532        0.348        0.259       42.151       15.394        0.133      345.298       22.729      860.637
07/11/2013  06:12:00      -38.427       -9.705        6.108       71.543       52.446       56.544     5118.329     2750.618     3197.219        0.633        0.553       39.633       56.318        2.019      345.312       22.753      860.666
07/11/2013  06:13:00     -118.526      -59.381       -5.943       64.258       61.920       37.718     4129.028     3834.131     1422.684        1.350        0.469      132.569       30.176        0.052      345.320       22.764      860.648
07/11/2013  06:14:00     -134.851      -64.843       -6.208       91.623       66.226       41.550     8394.701     4385.890     1726.391        1.846        0.725      149.631       37.880        0.064      345.326       22.772      860.643
07/11/2013  06:15:00     -111.841     -133.454        7.572      103.975       96.425       56.611    10810.816     9297.754     3204.794        2.684        1.166      174.122       59.536        0.117      345.286       22.707      860.707
07/11/2013  06:16:00      -47.211     -125.913        4.506       79.605       90.233       51.889     6337.016     8142.004     2692.428        1.763        0.859      134.473       54.683        0.165      345.306       22.741      860.762
07/11/2013  06:17:00      -43.220     -169.752        7.007       60.071       66.301       42.270     3608.479     4395.810     1786.776        2.026        0.490      175.168       31.486        0.032      345.288       22.710      860.802
07/11/2013  06:18:00       -1.707      -82.230       17.091       59.571       85.097       33.295     3548.666     7241.522     1108.559        0.948        0.595       82.248       33.442        0.165      345.275       22.688      860.797
07/11/2013  06:19:00       12.997      -65.176       11.053       51.637       71.217       28.514     2666.336     5071.830      813.046        0.654        0.428       66.459       34.174        0.264      345.335       22.792      860.713
07/11/2013  06:20:00     -144.551       -9.999      -13.380       66.098       45.417       21.789     4368.930     2062.686      474.739        1.404        0.345      144.897       30.077        0.043      345.307       22.741      860.664
07/11/2013  06:21:00     -207.714      -92.686       -9.994       58.277       46.225       38.158     3396.174     2136.721     1456.068        2.941        0.349      227.455       33.163        0.021      345.276       22.687      860.641
07/11/2013  06:22:00     -169.236     -139.946        4.475       94.177      141.616       60.026     8869.307    20055.192     3603.128        4.038        1.626      219.603       69.068        0.099      345.337       22.792      860.630
07/11/2013  06:23:00     -173.565      -99.560        5.090      115.304       90.768       59.222    13295.056     8238.849     3507.197        3.255        1.252      200.093       61.020        0.093      345.312       22.749      860.647
07/11/2013  06:24:00     -101.519      -63.757        7.910       67.165       59.472       39.622     4511.151     3536.889     1569.865        1.202        0.481      119.879       36.512        0.093      345.287       22.709      860.643
07/11/2013  06:25:00     -146.717     -128.102        0.969      136.659      103.458       49.406    18675.591    10703.634     2440.910        3.487        1.591      194.771       53.349        0.075      345.305       22.736      860.632
07/11/2013  06:26:00     -271.627     -103.942        2.562      128.692      129.294       62.613    16561.619    16716.810     3920.365        6.089        1.860      290.835       60.169        0.043      345.325       22.770      860.617
07/11/2013  06:27:00     -291.417     -173.493       -9.419      159.921      129.867       67.043    25574.593    16865.392     4494.723        8.101        2.347      339.152       81.702        0.058      345.377       22.861      860.615
07/11/2013  06:28:00     -154.829      -41.123        4.399      188.401       85.639       63.500    35494.901     7334.010     4032.215        3.626        2.343      160.197       77.732        0.235      345.370       22.850      860.612
07/11/2013  06:29:00     -254.656      -58.977       -0.033      207.100      116.176       79.053    42890.363    13496.908     6249.300        6.547        3.132      261.396       97.226        0.138      345.386       22.876      860.572
07/11/2013  06:30:00     -306.782      -90.307      -10.168      165.946      120.292       70.649    27537.972    14470.262     4991.258        7.468        2.350      319.798       73.375        0.053      345.427       22.946      860.531
07/11/2013  06:31:00     -244.149      -74.720       15.062      160.118      138.869       78.417    25637.891    19284.725     6149.197        5.824        2.554      255.327       81.666        0.102      345.462       23.006      860.523
07/11/2013  06:32:00     -285.794      -87.241       -6.772      136.597      114.655       57.403    18658.808    13145.809     3295.081        6.221        1.755      298.813       65.558        0.048      345.522       23.110      860.551
07/11/2013  06:33:00     -267.286      -60.282       -2.543      149.779      110.877       68.268    22433.851    12293.635     4660.456        5.723        1.969      274.000       73.477        0.072      345.539       23.139      860.542
07/11/2013  06:34:00     -178.545      -94.350       14.655      157.078      118.878       64.648    24673.489    14132.029     4179.331        4.198        2.149      201.941       83.694        0.172      345.584       23.215      860.556
07/11/2013  06:35:00      -58.469      -26.535       14.166       61.186       57.733       39.138     3743.671     3333.085     1531.794        0.646        0.430       64.208       37.964        0.350      345.555       23.169      860.614
07/11/2013  06:36:00      -85.875      -73.324       19.729       96.684       73.749       48.393     9347.844     5438.882     2341.906        1.513        0.856      112.920       38.599        0.117      345.630       23.296      860.641
07/11/2013  06:37:00     -214.008      -81.471       -6.159       97.768       77.507       45.551     9558.521     6007.335     2074.932        3.505        0.882      228.992       47.658        0.043      345.638       23.309      860.665
07/11/2013  06:38:00     -207.802     -150.345        0.421      130.558       89.175       53.880    17045.515     7952.102     2903.035        4.684        1.395      256.486       54.329        0.045      345.661       23.349      860.678
07/11/2013  06:39:00     -172.866     -120.616       14.326      137.363      111.616       60.594    18868.597    12458.154     3671.640        3.981        1.750      210.786       69.580        0.109      345.705       23.424      860.661
07/11/2013  06:40:00     -227.400     -104.025       -0.189      121.684      102.918       53.568    14806.884    10592.141     2869.497        4.539        1.413      250.064       62.331        0.062      345.741       23.484      860.648
07/11/2013  06:41:00     -169.787      -85.904        3.612      110.811      101.185       58.843    12279.079    10238.362     3462.458        3.109        1.299      190.282       65.084        0.117      345.741       23.487      860.641
07/11/2013  06:42:00     -180.009      -98.158       11.572      128.247       95.553       55.374    16447.298     9130.386     3066.247        3.540        1.432      205.033       58.533        0.082      345.753       23.508      860.627
07/11/2013  06:43:00     -211.301     -135.182       -4.014      186.569      136.516       60.437    34808.076    18636.529     3652.639        6.001        2.855      250.843       78.487        0.098      345.745       23.493      860.599
07/11/2013  06:44:00     -196.601      -85.151       21.181      171.426      158.228       85.271    29386.861    25036.060     7271.193        5.401        3.085      214.249      101.634        0.225      345.792       23.575      860.596
07/11/2013  06:45:00     -219.164     -155.754        4.020      165.213      119.926       80.016    27295.326    14382.166     6402.615        6.018        2.404      268.872       84.954        0.100      345.797       23.582      860.667
07/11/2013  06:46:00     -233.701     -152.861       -0.699      125.155       88.367       58.754    15663.747     7808.799     3452.042        5.245        1.346      279.253       66.928        0.057      345.762       23.521      860.683
07/11/2013  06:47:00        4.100     -147.235        6.987       88.153       51.296       44.490     7770.886     2631.242     1979.383        1.706        0.619      147.292       36.578        0.062      345.668       23.362      860.663
07/11/2013  06:48:00     -111.669      -81.319        7.303       89.257       53.690       33.571     7966.777     2882.647     1127.044        1.555        0.599      138.140       38.083        0.076      345.639       23.312      860.683
07/11/2013  06:49:00     -108.857      -40.449       21.146       96.692       49.219       38.964     9349.257     2422.487     1518.163        1.361        0.664      116.129       46.178        0.158      345.617       23.274      860.709
07/11/2013  06:50:00     -114.761      -86.867       -8.774       92.759       86.500       39.340     8604.160     7482.198     1547.641        1.921        0.882      143.931       38.088        0.070      345.714       23.441      860.668
07/11/2013  06:51:00     -127.487      -40.146       -8.649      144.356       81.074       53.796    20838.540     6572.949     2894.009        2.412        1.515      133.658       66.872        0.250      345.590       23.229      860.626
07/11/2013  06:52:00     -282.939      -49.481      -24.207      114.844       96.945       67.403    13189.206     9398.366     4543.196        5.510        1.357      287.233       59.241        0.043      345.901       23.759      860.622
07/11/2013  06:53:00     -165.458      -61.702       -1.752      102.356       72.228       45.899    10476.653     5216.821     2106.691        2.449        0.890      176.588       47.204        0.071      345.947       23.840      860.653
07/11/2013  06:54:00       -9.872     -108.479      -14.283       66.432       47.756       34.342     4413.217     2280.678     1179.394        0.997        0.394      108.927       13.741        0.016      345.774       23.544      860.679
07/11/2013  06:55:00       -4.235     -106.313       10.777       50.193       80.424       34.510     2519.364     6468.034     1190.970        1.081        0.509      106.397       17.097        0.026      345.752       23.506      860.715
07/11/2013  06:56:00      -67.896      -76.210        4.428       48.141       81.112       37.374     2317.515     6579.126     1396.835        1.036        0.515      102.068       35.568        0.121      345.792       23.576      860.732
07/11/2013  06:57:00      -38.988      -42.201       19.325       61.301       45.902       42.972     3757.856     2106.954     1846.559        0.569        0.386       57.454       34.073        0.352      345.786       23.565      860.737
07/11/2013  06:58:00     -159.177        0.018      -11.466       91.463      106.396       41.394     8365.409    11320.113     1713.424        2.343        1.070      159.177       37.491        0.055      345.828       23.635      860.742
07/11/2013  06:59:00      -40.754       -8.365       30.480       87.480       69.442       54.550     7652.664     4822.223     2975.677        0.905        0.773       41.604       62.553        2.261      345.810       23.606      860.723
07/11/2013  07:00:00     -201.232      -20.641       -6.361      156.372       86.489       47.712    24452.312     7480.362     2276.482        3.758        1.710      202.288       54.017        0.071      345.890       23.741      860.740
07/11/2013  07:01:00     -185.072     -153.108        9.391      160.080      118.884       71.053    25625.626    14133.484     5048.511        5.129        2.240      240.195       80.528        0.112      345.975       23.888      860.760
07/11/2013  07:02:00     -188.946      -74.525       10.977      111.745       99.480       64.902    12487.043     9896.356     4212.300        3.398        1.330      203.112       68.548        0.114      346.047       24.010      860.751
07/11/2013  07:03:00     -144.624      -92.280      -19.355       49.298       55.121       24.926     2430.296     3038.273      621.317        1.795        0.304      171.556       15.060        0.008      346.093       24.089      860.752
07/11/2013  07:04:00      -82.076      -11.928       -5.145       55.924       37.609       21.901     3127.527     1414.466      479.662        0.596        0.251       82.938       17.093        0.042      346.094       24.092      860.729
07/11/2013  07:05:00     -267.177       21.961      -21.976      122.687       85.001       45.924    15051.979     7225.090     2109.017        4.836        1.219      268.078       54.280        0.041      346.006       23.942      860.727
07/11/2013  07:06:00     -382.677     -224.686      -14.869      212.836      162.842       80.929    45299.301    26517.400     6549.448       13.774        3.918      443.763       93.388        0.044      346.055       24.023      860.746
07/11/2013  07:07:00     -296.368      -73.038       -5.996      145.203       87.716       60.949    21083.821     7694.142     3714.765        6.284        1.625      305.235       68.709        0.051      346.035       23.990      860.765
07/11/2013  07:08:00     -195.635       19.820       -2.323      124.170       87.885       54.140    15418.074     7723.787     2931.173        3.237        1.304      196.636       55.130        0.079      346.018       23.962      860.738
07/11/2013  07:09:00     -163.988      -58.651        3.944      110.461      105.290       51.979    12201.603    11086.039     2701.820        2.816        1.299      174.161       29.954        0.030      346.036       23.992      860.730
07/11/2013  07:10:00     -122.156      -47.922        9.154      107.430       92.615       54.950    11541.215     8577.517     3019.496        2.022        1.157      131.219       51.079        0.152      346.074       24.058      860.731
07/11/2013  07:11:00     -228.372     -125.900       -2.299      116.038      108.994       63.149    13464.755    11879.677     3987.791        4.867        1.467      260.777       53.785        0.043      346.136       24.162      860.762
07/11/2013  07:12:00     -249.802     -182.201       -8.906      127.293       95.957       61.927    16203.563     9207.763     3834.934        6.246        1.462      309.189       63.867        0.043      346.157       24.200      860.799
07/11/2013  07:13:00     -195.118     -159.494       -5.095      108.104       92.299       53.985    11686.379     8519.125     2914.351        4.332        1.156      252.011       54.478        0.047      346.087       24.078      860.808
07/11/2013  07:14:00     -162.057     -103.109       -4.746       68.561       90.047       41.171     4700.610     8108.459     1695.063        2.571        0.725      192.079       43.322        0.051      346.131       24.153      860.796
07/11/2013  07:15:00      -77.231     -161.379       -4.153       45.920       40.306       24.209     2108.627     1624.536      586.080        1.817        0.216      178.907       20.808        0.014      346.122       24.138      860.793
07/11/2013  07:16:00      -38.072      -87.066       -1.045       40.120       53.438       22.841     1609.648     2855.603      521.704        0.701        0.249       95.026       17.529        0.034      346.180       24.243      860.772
07/11/2013  07:17:00      -55.483      -56.157       13.798       47.730       48.388       28.498     2278.143     2341.367      812.155        0.593        0.272       78.943       22.905        0.084      346.147       24.183      860.742
07/11/2013  07:18:00      -55.901       -0.302        4.875       29.648       32.511       18.237      879.019     1056.972      332.588        0.271        0.113       55.902       16.712        0.089      346.166       24.217      860.706
07/11/2013  07:19:00      -17.096      -22.847        6.136       39.776       41.761       15.787     1582.145     1743.990      249.235        0.221        0.179       28.535        9.222        0.104      346.130       24.155      860.730
07/11/2013  07:20:00     -182.340       26.107      -15.878      101.958       64.642       31.398    10395.339     4178.606      985.814        2.487        0.778      184.199       25.571        0.019      346.038       23.994      860.737
07/11/2013  07:21:00      -96.284      -70.803       -2.786       96.672      103.169       46.059     9345.569    10643.903     2121.397        1.820        1.106      119.515       49.852        0.174      345.993       23.919      860.728
07/11/2013  07:22:00     -109.037      -48.810      -15.686       75.956      103.595       36.721     5769.257    10731.873     1348.438        1.618        0.892      119.463       38.895        0.106      345.986       23.908      860.711
07/11/2013  07:23:00     -150.979      -45.313        0.059       91.068       48.548       38.959     8293.450     2356.910     1517.785        1.851        0.608      157.632       40.826        0.067      345.969       23.878      860.745
07/11/2013  07:24:00     -162.175      -46.087       -2.995       71.530       51.063       28.043     5116.547     2607.422      786.428        1.847        0.426      168.596       19.725        0.014      345.948       23.841      860.758
07/11/2013  07:25:00      -50.254      -91.812        6.542       41.162       78.871       27.523     1694.343     6220.556      757.542        0.983        0.434      104.665       28.741        0.075      346.008       23.947      860.782
07/11/2013  07:26:00      -52.531     -138.135        6.875       57.296       52.404       38.502     3282.866     2746.187     1482.411        1.470        0.376      147.786       31.735        0.046      345.926       23.804      860.806
07/11/2013  07:27:00      -30.599      -61.500        3.610       40.979       40.820       24.846     1679.316     1666.313      617.304        0.435        0.198       68.692       16.459        0.057      345.937       23.823      860.804
07/11/2013  07:28:00      -12.810       -3.738       19.576       17.421       27.125       21.753      303.493      735.754      473.175        0.104        0.076       13.344       13.748        1.062      346.068       24.050      860.810
07/11/2013  07:29:00       22.798       23.476       49.807       42.804       37.796       38.177     1832.193     1428.543     1457.457        0.413        0.236       32.725       30.090        0.845      345.863       23.698      860.805
07/11/2013  07:30:00        8.257       -1.645       54.020       54.959       78.131       56.014     3020.516     6104.513     3137.571        0.762        0.613        8.419       63.822       57.465      345.792       23.576      860.797
07/11/2013  07:31:00       95.476     -136.238      -29.815       45.153       50.533       27.425     2038.789     2553.537      752.124        1.695        0.267      166.362       20.565        0.015      345.895       23.752      860.800
07/11/2013  07:32:00       46.914      -84.080      -22.266       51.697       45.720       19.622     2672.545     2090.283      385.008        0.746        0.257       96.283       21.703        0.051      345.850       23.675      860.807
07/11/2013  07:33:00      -33.731      -14.622       12.888       32.371       20.052       15.749     1047.909      402.090      248.030        0.161        0.085       36.764       19.999        0.296      345.867       23.704      860.834
07/11/2013  07:34:00      -90.624      -37.601        2.606       48.195       25.649       17.291     2322.792      657.889      298.981        0.646        0.164       98.115       11.355        0.013      345.749       23.501      860.860
07/11/2013  07:35:00     -144.830      -59.810        0.806       33.637       29.476       15.468     1131.432      868.855      239.249        1.340        0.112      156.694        4.098        0.001      345.703       23.420      860.859
07/11/2013  07:36:00     -158.502      -62.006       -2.842       36.831       40.023       23.304     1356.498     1601.874      543.056        1.624        0.175      170.199       16.099        0.009      345.676       23.376      860.851
07/11/2013  07:37:00     -223.998      -66.048        4.262       64.105       43.491       33.623     4109.417     1891.503     1130.517        3.084        0.357      233.532       32.080        0.019      345.722       23.451      860.844
07/11/2013  07:38:00     -158.137      -52.065       -1.125       44.803       32.609       24.959     2007.349     1063.332      622.953        1.571        0.185      166.487       22.751        0.019      345.861       23.695      860.851
07/11/2013  07:39:00      -69.168     -106.130       -1.146       45.861       26.889       21.469     2103.275      723.019      460.939        0.967        0.164      126.680       22.089        0.030      345.885       23.736      860.865
07/11/2013  07:40:00      -40.282     -106.778        4.921       38.450       23.936       19.547     1478.408      572.935      382.087        0.774        0.122      114.123       19.254        0.028      345.921       23.799      860.893
07/11/2013  07:41:00       -7.288      -65.042       17.260       26.413       43.355       19.325      697.636     1879.657      373.444        0.377        0.148       65.449       16.238        0.062      345.944       23.837      860.922
07/11/2013  07:42:00       -4.055      -27.280       25.260       39.895       49.770       36.589     1591.587     2477.072     1338.750        0.340        0.270       27.580       29.084        1.112      345.872       23.714      860.942
07/11/2013  07:43:00       11.587      -38.139       17.350       47.906       51.273       31.100     2294.992     2628.969      967.222        0.389        0.295       39.860       27.356        0.471      345.806       23.601      860.945
07/11/2013  07:44:00       13.964      -51.134       15.421       37.598       45.706       30.645     1413.636     2089.033      939.126        0.374        0.222       53.007       23.750        0.201      345.876       23.720      860.945
07/11/2013  07:45:00       12.903      -65.431       -0.009       41.823       56.992       34.289     1749.169     3248.139     1175.734        0.531        0.309       66.692       24.088        0.130      345.797       23.584      860.932
07/11/2013  07:46:00       -0.932       25.941       51.274       21.568       30.549       25.453      465.182      933.263      647.866        0.267        0.102       25.958       15.996        0.380      345.878       23.723      860.922
07/11/2013  07:47:00       -4.075        6.774       20.327       36.642       35.091       30.563     1342.653     1231.403      934.086        0.199        0.175        7.905       29.680       14.096      345.738       23.484      860.906
07/11/2013  07:48:00      -44.235       -2.446       -1.174       22.425       22.508       13.748      502.894      506.620      189.019        0.158        0.060       44.303       12.541        0.080      345.911       23.781      860.896
07/11/2013  07:49:00      -32.652        9.404        8.060       23.877       20.247       12.104      570.091      409.932      146.513        0.117        0.056       33.979       12.699        0.140      346.085       24.081      860.870
07/11/2013  07:50:00      -27.234       27.436       10.360       30.586       26.812       19.880      935.509      718.886      395.217        0.183        0.102       38.658       15.427        0.159      346.140       24.174      860.832
07/11/2013  07:51:00       15.833       15.774       27.558       25.267       22.428       14.825      638.434      503.000      219.769        0.131        0.068       22.350       14.434        0.417      346.457       24.719      860.825
07/11/2013  07:52:00       38.422       39.674       19.956       22.509       22.011       21.967      506.672      484.466      482.543        0.246        0.074       55.229       15.398        0.078      346.205       24.285      860.826
07/11/2013  07:53:00       48.708       29.971       15.468       26.220       20.446       18.736      687.496      418.041      351.032        0.248        0.073       57.190       13.034        0.052      346.140       24.173      860.814
07/11/2013  07:54:00      -37.640       -7.465        3.441       27.868       14.801        7.907      776.605      219.057       62.524        0.127        0.053       38.373        8.180        0.045      346.158       24.203      860.824
07/11/2013  07:55:00     -105.060      -40.433       -6.652       24.970       21.039       16.131      623.522      442.653      260.215        0.702        0.066      112.572        3.890        0.001      346.009       23.949      860.843
07/11/2013  07:56:00      -65.971      -46.295       -6.996       28.750       28.168       20.796      826.574      793.428      432.479        0.430        0.103       80.594        9.570        0.014      346.017       23.963      860.853
07/11/2013  07:57:00      -17.192       -9.181        9.935       20.507       14.680       20.909      420.526      215.503      437.172        0.078        0.054       19.490       16.555        0.722      346.290       24.432      860.837
07/11/2013  07:58:00      -18.282      -14.837      -10.451       11.491        7.124        7.288      132.039       50.753       53.112        0.045        0.012       23.545        6.901        0.086      346.066       24.045      860.826
07/11/2013  07:59:00      -14.498       -1.661        6.706       10.722       13.720       13.833      114.969      188.246      191.344        0.038        0.025       14.593       10.711        0.539      346.451       24.708      860.829
07/11/2013  08:00:00      -31.321      -17.208       -7.531       21.884       13.956       10.735      478.889      194.764      115.244        0.106        0.039       35.736        4.589        0.016      346.062       24.039      860.854
07/11/2013  08:01:00      -11.385      -41.153        2.333       47.007       25.149       22.295     2209.686      632.496      497.050        0.258        0.167       42.699        9.473        0.049      346.175       24.234      860.884
07/11/2013  08:02:00     -115.078     -109.383        2.451       71.454       57.692       32.316     5105.639     3328.321     1044.330        1.734        0.474      158.769       36.055        0.052      346.054       24.024      860.927
07/11/2013  08:03:00     -124.588      -97.300        3.479       76.402       49.713       31.429     5837.308     2471.352      987.758        1.715        0.465      158.080       30.681        0.038      346.006       23.942      860.948
07/11/2013  08:04:00     -106.074      -96.117       -1.415       81.561       66.623       36.825     6652.231     4438.662     1356.098        1.647        0.622      143.144       27.492        0.037      346.025       23.975      860.954
07/11/2013  08:05:00     -116.801     -136.341        0.083       78.772       68.896       33.192     6205.071     4746.659     1101.697        2.214        0.603      179.531       38.362        0.046      345.996       23.924      860.967
07/11/2013  08:06:00      -37.103      -93.584        6.873       36.668       56.600       31.338     1344.506     3203.589      982.055        0.785        0.277      100.671       20.822        0.043      346.045       24.010      860.976
07/11/2013  08:07:00      -70.356     -130.016       -6.582       37.861       49.484       21.976     1433.449     2448.689      482.957        1.313        0.218      147.831       19.116        0.017      346.036       23.996      860.971
07/11/2013  08:08:00      -14.568      -85.411        0.999       17.846       41.624       21.019      318.492     1732.571      441.795        0.500        0.125       86.644       16.725        0.037      346.089       24.086      860.969
07/11/2013  08:09:00      -44.004      -20.756        1.330       29.211       20.140       17.525      853.261      405.621      307.110        0.197        0.078       48.654       16.629        0.117      346.172       24.229      860.936
07/11/2013  08:10:00      -17.613       -4.483       12.932       26.202       18.603       13.330      686.549      346.082      177.682        0.085        0.061       18.174        9.237        0.258      346.410       24.638      860.919
07/11/2013  08:11:00      -17.142        8.238       17.306       12.883       13.467       12.425      165.970      181.363      154.383        0.058        0.025       19.018        7.696        0.164      346.526       24.837      860.916
07/11/2013  08:12:00       -3.259        1.317       32.750       11.025       20.735        9.084      121.555      429.925       82.518        0.086        0.032        3.515        7.697        4.795      346.914       25.505      860.928
07/11/2013  08:13:00       -8.027       -4.813       17.161       20.841       22.693       16.613      434.349      514.991      275.995        0.080        0.061        9.359       13.236        2.000      346.543       24.866      860.930
07/11/2013  08:14:00      -41.195       11.542       -6.061       12.397       16.332       14.306      153.678      266.731      204.658        0.125        0.031       42.781        9.792        0.052      346.130       24.155      860.941
07/11/2013  08:15:00      -18.996       26.569       -5.115       21.515       12.863       15.357      462.916      165.464      235.844        0.098        0.043       32.661        4.962        0.023      346.226       24.319      860.931
07/11/2013  08:16:00       -5.661       21.092       10.430       19.988       21.707       17.565      399.519      471.193      308.545        0.088        0.059       21.839       10.822        0.246      346.438       24.684      860.934
07/11/2013  08:17:00       -6.565       15.082       11.047       11.216       12.499       12.762      125.805      156.229      162.870        0.042        0.022       16.449        6.651        0.163      346.594       24.955      860.933
07/11/2013  08:18:00      -30.493       15.857        6.868       21.532       12.892       12.706      463.631      166.203      161.433        0.101        0.040       34.370       12.750        0.138      346.481       24.759      860.931
07/11/2013  08:19:00      -73.662      -21.828       -0.265       22.147       22.173       11.280      490.497      491.656      127.240        0.351        0.055       76.828       11.402        0.022      346.225       24.319      860.939
07/11/2013  08:20:00      -85.062      -18.969       -0.469       25.153       18.380       14.688      632.689      337.828      215.742        0.439        0.059       87.151       13.822        0.025      346.222       24.314      860.937
07/11/2013  08:21:00      -63.826      -38.687        0.714       22.833       23.408       13.044      521.324      547.921      170.139        0.340        0.062       74.635        6.668        0.008      346.321       24.484      860.951
07/11/2013  08:22:00      -67.159      -25.690        1.124       34.000       22.495       14.253     1155.978      506.043      203.136        0.352        0.093       71.905       12.995        0.033      346.394       24.611      860.961
07/11/2013  08:23:00      -59.982      -56.188       -1.707       29.842       25.935       14.513      890.564      672.639      210.620        0.427        0.089       82.189       12.922        0.025      346.371       24.571      860.959
07/11/2013  08:24:00      -58.682      -37.321       -3.087       27.126       18.376       11.917      735.816      337.672      142.010        0.303        0.061       69.544        8.768        0.016      346.470       24.741      860.959
07/11/2013  08:25:00      -90.676      -98.929       -7.198       37.065       36.996       20.838     1373.830     1368.686      434.235        1.062        0.159      134.198       14.581        0.012      346.396       24.612      860.947
07/11/2013  08:26:00      -92.985      -26.207        9.887       55.433       43.657       31.436     3072.783     1905.913      988.248        0.770        0.298       96.608       27.777        0.083      346.468       24.736      860.933
07/11/2013  08:27:00      -40.289      -74.931        3.506       24.250       28.380       22.262      588.067      805.407      495.577        0.457        0.094       85.075       14.055        0.027      346.385       24.596      860.904
07/11/2013  08:28:00      -73.318      -30.407       -3.818       37.944       54.188       25.265     1439.756     2936.301      638.320        0.566        0.251       79.374       22.475        0.080      346.421       24.657      860.887
07/11/2013  08:29:00      -80.452      -72.986        4.189       61.996       70.305       42.498     3843.488     4942.746     1806.122        1.120        0.530      108.625       36.348        0.112      346.753       25.227      860.894
07/11/2013  08:30:00     -129.593      -40.869        3.334       66.709       51.550       29.848     4450.110     2657.417      890.915        1.324        0.400      135.884       31.006        0.052      346.549       24.876      860.900
07/11/2013  08:31:00      -90.721      -48.564        3.393       86.409       43.972       36.778     7466.442     1933.576     1352.640        1.067        0.538      102.902       41.103        0.160      346.795       25.300      860.890
07/11/2013  08:32:00      -90.877      -42.509        1.149       66.015       45.892       28.179     4357.917     2106.108      794.036        0.866        0.363      100.328       32.305        0.104      346.658       25.064      860.893
07/11/2013  08:33:00      -21.260       11.007        8.781       28.665       38.769       22.637      821.704     1503.031      512.423        0.174        0.142       23.940        5.305        0.049      347.002       25.657      860.897
07/11/2013  08:34:00       -1.121      105.415       -0.369       31.905       45.617       31.489     1017.916     2080.938      991.576        0.760        0.205      105.421       26.209        0.062      346.791       25.293      860.890
07/11/2013  08:35:00      -16.621       83.712        6.175       32.666       78.893       31.553     1067.094     6224.167      995.593        0.780        0.414       85.347       38.724        0.206      346.961       25.586      860.876
07/11/2013  08:36:00      -19.225       32.086       16.937       65.435       31.291       29.709     4281.727      979.108      882.605        0.391        0.307       37.405       19.731        0.278      346.909       25.496      860.854
07/11/2013  08:37:00       92.481       49.177       18.723       52.889       34.450       38.114     2797.293     1186.781     1452.641        0.838        0.272      104.743       27.174        0.067      346.853       25.399      860.842
07/11/2013  08:38:00      117.592       52.331       27.096       70.779       46.697       40.200     5009.646     2180.606     1616.057        1.305        0.440      128.710       30.950        0.058      346.847       25.388      860.840
07/11/2013  08:39:00       55.557       78.171       -6.832       40.182       32.505       26.552     1614.592     1056.551      704.998        0.631        0.169       95.903       16.447        0.029      346.943       25.553      860.843
07/11/2013  08:40:00       45.716      132.657      -16.944       40.011       48.102       34.764     1600.885     2313.847     1208.506        1.255        0.256      140.313       28.823        0.042      346.908       25.494      860.841
07/11/2013  08:41:00       19.634       46.974        8.420       31.502       50.938       26.953      992.361     2594.726      726.470        0.349        0.216       50.912       27.964        0.302      346.870       25.430      860.832
07/11/2013  08:42:00       31.080       65.515        6.158       32.435       50.132       29.099     1052.060     2513.225      846.768        0.485        0.221       72.513       28.603        0.156      347.056       25.749      860.829
07/11/2013  08:43:00       32.798       95.029      -12.571       33.949       42.723       28.681     1152.550     1825.288      822.615        0.703        0.190      100.530       23.020        0.052      346.966       25.593      860.836
07/11/2013  08:44:00       33.295       25.332       22.282       31.491       28.394       23.112      991.686      806.233      534.154        0.229        0.117       41.836       16.679        0.159      347.346       26.250      860.845
07/11/2013  08:45:00       87.213       53.489       30.435       60.889       36.608       29.399     3707.473     1340.150      864.328        0.865        0.296      102.309       22.238        0.047      347.232       26.053      860.840
07/11/2013  08:46:00      139.132       66.788       18.832       42.290       34.205       38.610     1788.406     1169.996     1490.770        1.431        0.222      154.332       20.612        0.018      347.001       25.654      860.834
07/11/2013  08:47:00       83.414       70.193       -0.815       40.278       33.419       26.345     1622.295     1116.840      694.075        0.766        0.172      109.018       17.586        0.026      346.788       25.288      860.834
07/11/2013  08:48:00       19.509       59.854        7.610       32.924       42.916       31.440     1083.977     1841.820      988.448        0.397        0.196       62.953       26.786        0.181      347.277       26.130      860.841
07/11/2013  08:49:00       76.381       63.284        0.442       41.630       30.861       28.690     1733.021      952.429      823.111        0.667        0.175       99.191       13.907        0.020      346.935       25.540      860.861
07/11/2013  08:50:00       65.958       69.275       41.888       29.062       26.318       27.866      844.594      692.644      776.493        0.661        0.116       95.653       13.055        0.019      346.925       25.524      860.869
07/11/2013  08:51:00      144.317       93.470       57.390       60.064       36.447       44.742     3607.687     1328.415     2001.826        1.990        0.347      171.943       27.794        0.026      346.974       25.607      860.875
07/11/2013  08:52:00      120.231       58.260       27.223       74.698       55.211       44.666     5579.771     3048.285     1995.065        1.460        0.531      133.602       42.577        0.102      347.006       25.661      860.875
07/11/2013  08:53:00       -5.390        7.467       29.506       22.756       38.989       29.506      517.849     1520.146      870.607        0.193        0.145        9.209       15.222        2.732      347.099       25.824      860.875
07/11/2013  08:54:00       40.509      -65.862       23.046       50.546       54.150       45.764     2554.929     2932.203     2094.347        0.704        0.379       77.322       31.770        0.169      346.978       25.615      860.871
07/11/2013  08:55:00       39.198       61.032       39.178       36.793       30.758       38.841     1353.743      946.043     1508.636        0.530        0.190       72.535       25.122        0.120      347.154       25.919      860.876
07/11/2013  08:56:00      108.404       63.396       25.645       60.446       48.097       34.645     3653.697     2313.309     1200.302        1.180        0.358      125.581       24.280        0.037      347.319       26.202      860.887
07/11/2013  08:57:00      138.204       78.033       53.275       75.940       53.795       46.503     5766.943     2893.941     2162.534        1.942        0.541      158.712       37.668        0.056      347.109       25.840      860.879
07/11/2013  08:58:00      115.184       62.125       62.682       84.837       56.390       52.289     7197.236     3179.850     2734.140        1.708        0.656      130.870       42.879        0.107      346.925       25.523      860.868
07/11/2013  08:59:00      109.664       91.884       52.951       73.368       40.228       55.680     5382.909     1618.288     3100.274        1.669        0.505      143.070       18.788        0.017      347.005       25.661      860.869
07/11/2013  09:00:00      106.225       56.302       69.525       77.260       54.595       39.712     5969.066     2980.617     1577.060        1.491        0.526      120.223       30.356        0.064      347.188       25.976      860.883
07/11/2013  09:01:00       99.506      119.350       84.606      103.279       58.270       79.269    10666.593     3395.435     6283.515        2.582        1.017      155.390       73.277        0.222      346.953       25.569      860.887
07/11/2013  09:02:00      126.188      116.339      101.046      113.239       69.209       65.051    12822.992     4789.924     4231.675        3.075        1.092      171.634       45.427        0.070      347.118       25.853      860.874
07/11/2013  09:03:00      200.533      139.209      110.087      107.115       93.755       74.473    11473.676     8789.915     5546.194        4.876        1.290      244.116       63.751        0.068      346.931       25.529      860.863
07/11/2013  09:04:00      137.351       80.110       40.353       67.812       44.769       50.507     4598.479     2004.265     2550.972        1.803        0.458      159.006       36.002        0.051      347.114       25.849      860.838
07/11/2013  09:05:00       56.586       48.628       65.331       47.610       56.508       40.151     2266.757     3193.190     1612.112        0.845        0.354       74.610       26.243        0.124      347.363       26.278      860.830
07/11/2013  09:06:00       44.711       79.788       85.646       60.187       56.792       40.036     3622.521     3225.304     1602.887        1.207        0.423       91.461       35.962        0.155      347.155       25.919      860.827
07/11/2013  09:07:00      105.326      -39.515       25.524       81.180       78.561       47.034     6590.228     6171.782     2212.217        1.414        0.749      112.495       47.390        0.177      346.892       25.466      860.848
07/11/2013  09:08:00       70.586      -56.474       16.858       57.453       57.900       43.151     3300.858     3352.420     1861.994        0.848        0.426       90.397       38.471        0.181      347.171       25.946      860.840
07/11/2013  09:09:00       55.390      -56.046       14.713       44.481       58.506       33.076     1978.600     3422.905     1093.995        0.646        0.325       78.798       37.961        0.232      347.130       25.878      860.819
07/11/2013  09:10:00       15.635        5.873       29.618       36.823       43.198       30.482     1355.944     1866.050      929.130        0.265        0.208       16.702       26.076        2.438      347.391       26.326      860.784
07/11/2013  09:11:00       85.553       46.792       40.929       62.966       69.748       42.571     3964.757     4864.816     1812.316        1.091        0.532       97.513       35.527        0.133      347.202       26.001      860.758
07/11/2013  09:12:00       86.397       81.233       49.786       69.656       69.370       48.762     4851.975     4812.173     2377.708        1.429        0.602      118.589       22.829        0.037      347.476       26.472      860.765
07/11/2013  09:13:00       92.059       35.143       73.579       90.600       67.536       58.553     8208.378     4561.065     3428.485        1.566        0.810       98.539       48.109        0.238      347.191       25.981      860.768
07/11/2013  09:14:00      117.300       41.928       52.417       57.884       53.916       52.434     3350.508     2906.920     2749.316        1.363        0.450      124.568       41.019        0.108      347.197       25.990      860.771
07/11/2013  09:15:00       87.595       56.726       39.677       83.554       46.281       41.284     6981.275     2141.918     1704.330        1.164        0.541      104.358       34.470        0.109      347.705       26.868      860.791
07/11/2013  09:16:00       86.370      -10.857       44.381       74.851       71.165       53.428     5602.608     5064.419     2854.498        1.153        0.676       87.050       38.916        0.200      347.432       26.397      860.780
07/11/2013  09:17:00       46.266       35.915       69.569       44.323       58.873       39.626     1964.561     3466.034     1570.228        0.763        0.350       58.570       31.698        0.293      347.444       26.417      860.753
07/11/2013  09:18:00       50.952       -7.340       32.553       43.432       74.981       45.676     1886.342     5622.133     2086.314        0.665        0.480       51.478       28.955        0.316      347.543       26.588      860.738
07/11/2013  09:19:00      119.332       82.493       76.290       93.882       66.600       52.494     8813.891     4435.538     2755.651        2.143        0.800      145.070       46.783        0.104      347.721       26.894      860.718
07/11/2013  09:20:00      100.658      112.008      106.424       87.884       92.669       59.874     7723.670     8587.462     3584.868        2.695        0.995      150.592       47.335        0.099      347.463       26.447      860.681
07/11/2013  09:21:00      230.691      121.176       86.223       94.450       87.049       76.001     8920.773     7577.484     5776.216        4.880        1.114      260.580       57.538        0.049      347.343       26.239      860.663
07/11/2013  09:22:00       70.871       77.257       80.677       99.234       67.966       58.408     9847.463     4619.335     3411.522        1.769        0.894      104.839       58.919        0.316      347.656       26.782      860.643
07/11/2013  09:23:00       56.725       19.303       47.878       52.164       58.468       49.340     2721.042     3418.526     2434.435        0.723        0.429       59.920       26.508        0.196      347.770       26.981      860.622
07/11/2013  09:24:00       80.466       84.633       51.190       53.949       55.241       41.050     2910.497     3051.529     1685.072        1.195        0.382      116.779       20.092        0.030      347.724       26.901      860.610
07/11/2013  09:25:00       26.054       24.447       20.285       72.882       63.212       40.910     5311.786     3995.719     1673.630        0.633        0.549       35.728       32.072        0.806      347.639       26.754      860.601
07/11/2013  09:26:00        5.638       -7.628       47.217       42.010       58.745       34.517     1764.881     3450.958     1191.418        0.436        0.320        9.486       29.482        9.660      348.232       27.777      860.590
07/11/2013  09:27:00       49.343       26.804       65.188       55.637       86.055       51.235     3095.423     7405.496     2625.020        1.026        0.656       56.153       51.470        0.840      347.764       26.971      860.562
07/11/2013  09:28:00       18.747      -32.939       34.141       42.939       92.466       43.546     1843.770     8549.921     1896.237        0.744        0.614       37.900       45.130        1.418      347.740       26.930      860.531
07/11/2013  09:29:00       11.514      -51.463       22.735       77.608      114.934       38.552     6022.951    13209.725     1486.261        1.200        1.036       52.736       18.931        0.129      347.959       27.304      860.502
07/11/2013  09:30:00       -7.667      -18.856       30.301       72.871       84.217       57.115     5310.152     7092.491     3262.093        0.850        0.783       20.355       45.808        5.065      347.933       27.261      860.523
07/11/2013  09:31:00     -120.882      -57.301       -0.849       69.011       56.063       30.524     4762.510     3143.067      931.731        1.337        0.442      133.775       31.662        0.056      347.818       27.063      860.552
07/11/2013  09:32:00       15.761      -12.609       32.356       32.727       35.989       37.684     1071.050     1295.235     1420.108        0.262        0.189       20.184       21.588        1.144      348.749       28.673      860.549
07/11/2013  09:33:00       19.745      -33.288       36.200       37.217       63.524       46.340     1385.100     4035.273     2147.351        0.519        0.378       38.704       40.016        1.069      348.153       27.643      860.540
07/11/2013  09:34:00       51.444      -11.255       44.764       74.460       96.355       57.139     5544.268     9284.324     3264.848        1.143        0.905       52.661       47.243        0.805      347.821       27.068      860.529
07/11/2013  09:35:00      -26.902       -5.573       43.621       50.571       65.229       55.657     2557.431     4254.835     3097.690        0.628        0.495       27.473       45.119        2.697      347.907       27.216      860.531
07/11/2013  09:36:00      -42.287      -61.845        5.651       43.438       45.529       29.728     1886.825     2072.927      883.747        0.524        0.242       74.919       11.317        0.023      348.070       27.498      860.543
07/11/2013  09:37:00       -3.157      -26.347       51.247       36.758       79.648       49.295     1351.123     6343.852     2429.969        0.673        0.506       26.536       45.042        2.881      348.234       27.782      860.549
07/11/2013  09:38:00        5.525      -76.921       14.959       47.400       52.621       37.484     2246.803     2768.973     1405.068        0.629        0.321       77.119       32.246        0.175      348.027       27.423      860.560
07/11/2013  09:39:00       82.210      -24.257       36.802      139.690      112.646       70.536    19513.237    12689.069     4975.393        2.293        1.859       85.714       63.808        0.554      347.998       27.372      860.559
07/11/2013  09:40:00       70.090      -42.163       13.065       73.970       86.283       57.411     5471.633     7444.710     3296.068        1.153        0.811       81.794       49.521        0.367      347.662       26.794      860.569
07/11/2013  09:41:00       94.308     -130.239       30.873       96.880      139.681       71.947     9385.690    19510.899     5176.381        3.043        1.704      160.798       91.071        0.321      347.809       27.045      860.574
07/11/2013  09:42:00       89.310      -56.381       46.882       90.846      108.864       67.831     8252.997    11851.370     4601.031        1.902        1.235      105.618       67.285        0.406      347.890       27.187      860.601
07/11/2013  09:43:00       18.160      -72.322       -7.670       42.989       48.706       37.326     1848.063     2372.252     1393.217        0.562        0.281       74.567       15.184        0.041      347.863       27.139      860.673
07/11/2013  09:44:00     -135.536      -75.025        0.227       94.373       57.791       37.844     8906.215     3339.839     1432.139        1.884        0.684      154.915       36.547        0.056      347.735       26.918      860.731
07/11/2013  09:45:00      -87.852      -66.382       -0.416      149.783       87.798       46.702    22434.818     7708.572     2181.050        2.222        1.616      110.112       47.224        0.184      347.762       26.964      860.692
07/11/2013  09:46:00      -71.794       11.535       26.007       48.800       40.376       34.719     2381.429     1630.257     1205.377        0.559        0.261       72.715       28.865        0.158      347.698       26.856      860.639
07/11/2013  09:47:00       11.430       35.881       31.043       53.529       37.300       28.175     2865.382     1391.269      793.834        0.372        0.253       37.657       22.396        0.354      348.025       27.421      860.608
07/11/2013  09:48:00      -64.067      -33.726       -7.227       57.944       52.615       23.222     3357.457     2768.331      539.266        0.598        0.333       72.402       26.141        0.130      347.846       27.111      860.591
07/11/2013  09:49:00     -143.995      -33.137      -27.918      142.199      104.748       67.694    20220.554    10972.121     4582.443        2.919        1.789      147.759       58.580        0.157      347.567       26.628      860.546
07/11/2013  09:50:00     -202.182     -184.212       30.233      177.109      158.203       72.157    31367.759    25028.273     5206.610        6.865        3.080      273.518       74.214        0.074      347.716       26.882      860.516
07/11/2013  09:51:00     -263.349     -206.172        5.619      160.654      124.253       72.882    25809.678    15438.916     5311.781        7.922        2.328      334.454       67.559        0.041      347.681       26.823      860.495
07/11/2013  09:52:00     -114.156     -161.276        4.794      152.558      101.071       65.064    23273.938    10215.369     4233.293        3.839        1.886      197.590       63.435        0.103      347.877       27.163      860.481
07/11/2013  09:53:00     -147.981     -194.492       -6.527      135.275       90.312       47.706    18299.372     8156.187     2275.874        4.424        1.437      244.388       34.172        0.020      347.711       26.875      860.463
07/11/2013  09:54:00     -263.335     -217.584        0.097      131.355      102.931       73.618    17254.040    10594.726     5419.579        7.497        1.663      341.596       76.207        0.050      347.589       26.663      860.413
07/11/2013  09:55:00     -167.992     -120.433        7.476      149.648       98.834       61.520    22394.587     9768.255     3784.681        3.936        1.797      206.701       79.182        0.147      347.815       27.057      860.371
07/11/2013  09:56:00     -434.702       59.096      -26.897      265.349      188.462       98.736    70409.864    35518.038     9748.737       15.441        5.784      438.701      123.500        0.079      347.772       26.980      860.170
07/11/2013  09:57:00        5.264      211.051      196.340      261.592      184.679      176.252    68430.262    34106.166    31064.727       10.833        6.680      211.116      176.574        0.700      347.911       27.220      860.023
07/11/2013  09:58:00       68.376       33.810      117.895      110.889      151.238      104.315    12296.371    22873.039    10881.675        3.288        2.303       76.278      114.038        2.235      348.044       27.450      860.286
07/11/2013  09:59:00       70.217     -116.826        3.400       77.141      118.352       49.934     5950.713    14007.301     2493.360        2.052        1.123      136.304       55.349        0.165      348.165       27.661      860.400
07/11/2013  10:00:00     -144.812      -53.557       -8.653      131.331       69.281       34.677    17247.926     4799.845     1202.505        2.358        1.163      154.398       40.788        0.070      348.017       27.404      860.509
07/11/2013  10:01:00     -265.465      -67.949      -14.682      103.359      126.074       60.414    10683.004    15894.579     3649.858        5.276        1.511      274.023       55.185        0.041      347.689       26.836      860.498
07/11/2013  10:02:00      -76.781      -74.198       -4.562       66.939       91.300       46.525     4480.832     8335.680     2164.607        1.320        0.749      106.774       29.956        0.079      347.915       27.230      860.486
07/11/2013  10:03:00     -174.873     -100.546      -14.923      150.680       88.698       53.746    22704.596     7867.332     2888.622        3.718        1.673      201.718       51.868        0.066      347.758       26.959      860.469
07/11/2013  10:04:00      -41.960      -49.895       10.719       83.190       85.565       57.657     6920.500     7321.434     3324.359        1.096        0.878       65.193       46.207        0.502      348.138       27.618      860.430
07/11/2013  10:05:00       16.241        0.442       31.398       44.181       50.575       34.866     1951.941     2557.862     1215.636        0.349        0.286       16.247       22.246        1.875      348.371       28.019      860.472
07/11/2013  10:06:00     -109.589       -6.477        1.598       71.986       37.805       31.228     5181.934     1429.192      975.160        0.982        0.379      109.780       31.178        0.081      348.079       27.512      860.501
07/11/2013  10:07:00     -177.161      -66.855      -20.348       90.926       76.122       52.062     8267.511     5794.635     2710.453        2.652        0.839      189.356       40.874        0.047      347.944       27.279      860.466
07/11/2013  10:08:00     -195.086     -119.448       -5.483      139.996      104.755       50.137    19598.861    10973.580     2513.756        4.271        1.654      228.750       52.357        0.052      347.734       26.913      860.403
07/11/2013  10:09:00      -30.770       50.595        9.179      148.385       96.770       52.330    22018.251     9364.438     2738.412        1.885        1.706       59.217       68.888        1.353      347.804       27.036      860.295
07/11/2013  10:10:00      -18.686      134.556      -10.841      240.451      121.280       73.610    57816.837    14708.934     5418.472        4.824        3.897      135.848       78.992        0.338      347.960       27.305      860.152
07/11/2013  10:11:00       58.270     -154.245       45.213      157.300      260.366      118.631    24743.436    67790.291    14073.412        6.790        5.330      164.885      152.681        0.857      348.035       27.434      860.160
07/11/2013  10:12:00      -97.586      -76.423       31.827      121.141       79.527       53.177    14675.035     6324.547     2827.810        2.010        1.191      123.950       56.185        0.205      348.214       27.744      860.350
07/11/2013  10:13:00       15.063     -148.527        4.211       73.893       90.514       59.544     5460.196     8192.821     3545.486        1.975        0.860      149.289       54.086        0.131      348.103       27.554      860.418
07/11/2013  10:14:00       -9.712      -34.661       17.913      108.255       53.221       58.441    11719.167     2832.458     3415.359        0.979        0.898       35.996       61.295        2.900      347.991       27.362      860.423
07/11/2013  10:15:00      -11.328      -47.703       -0.234       43.870       51.245       30.454     1924.564     2626.010      927.443        0.394        0.274       49.029       20.459        0.174      348.098       27.547      860.419
07/11/2013  10:16:00      -85.930     -107.530       -2.726       91.311       77.485       47.032     8337.702     6003.893     2211.976        1.775        0.828      137.647       32.887        0.057      347.920       27.237      860.439
07/11/2013  10:17:00     -135.377     -133.564      -11.618      133.701       66.832       53.515    17875.979     4466.563     2863.815        3.075        1.260      190.174       27.179        0.020      347.764       26.967      860.411
07/11/2013  10:18:00     -164.314     -231.254       13.052      136.610      156.300       69.041    18662.370    24429.807     4766.689        6.424        2.393      283.686       68.871        0.059      347.750       26.941      860.397
07/11/2013  10:19:00     -211.250     -324.108      -21.750      150.818      129.367       62.597    22746.131    16735.839     3918.362        9.676        2.170      386.876       54.055        0.020      347.669       26.800      860.393
07/11/2013  10:20:00     -220.680     -305.992        1.230      154.452      143.019       89.751    23855.365    20454.567     8055.222        9.734        2.618      377.267       68.198        0.033      347.604       26.691      860.408
07/11/2013  10:21:00     -282.751     -227.373      -20.220      140.871       93.635       66.639    19844.713     8767.439     4440.796        8.255        1.653      362.832       58.437        0.026      347.743       26.931      860.425
07/11/2013  10:22:00     -189.996      -96.708       10.952      117.508       84.379       54.847    13808.081     7119.813     3008.232        3.475        1.197      213.192       57.450        0.073      347.752       26.948      860.412
07/11/2013  10:23:00      -91.209     -183.803       -8.152       65.933      104.464       46.407     4347.147    10912.759     2153.611        2.979        0.871      205.189       29.228        0.020      347.685       26.831      860.400
07/11/2013  10:24:00      -44.744      -63.384       15.559       77.960       89.652       47.741     6077.747     8037.448     2279.219        1.132        0.820       77.585       51.625        0.443      347.866       27.146      860.369
07/11/2013  10:25:00       26.182     -101.439       11.756       65.715      101.761       51.424     4318.447    10355.309     2644.413        1.421        0.866      104.764       44.145        0.178      347.763       26.967      860.369
07/11/2013  10:26:00      -21.687     -113.122       11.581       59.437       83.387       54.041     3532.768     6953.319     2920.419        1.340        0.670      115.182       42.512        0.136      347.752       26.949      860.361
07/11/2013  10:27:00      -34.154     -170.315      -21.172       92.777       92.179       53.601     8607.501     8496.915     2873.110        2.530        0.999      173.705       39.726        0.052      347.642       26.757      860.377
07/11/2013  10:28:00      -42.681     -108.829       14.031      102.862       95.281       48.146    10580.573     9078.429     2318.032        1.792        1.099      116.900       50.704        0.188      347.678       26.820      860.378
07/11/2013  10:29:00       -8.318     -114.550       16.623       75.113       73.751       42.081     5642.020     5439.165     1770.810        1.316        0.643      114.851       46.907        0.167      347.721       26.895      860.373
07/11/2013  10:30:00      -17.361      -84.741        6.508       85.258      105.783       54.254     7268.965    11190.144     2943.448        1.446        1.070       86.501       63.961        0.547      347.887       27.182      860.383
07/11/2013  10:31:00      -25.398      -79.252       29.530      125.928      124.288       69.337    15857.869    15447.386     4807.674        2.195        1.806       83.223       76.947        0.855      348.012       27.396      860.392
07/11/2013  10:32:00      -65.226     -101.581       -5.893       84.148       64.596       33.385     7080.929     4172.616     1114.527        1.349        0.618      120.719       34.554        0.082      347.934       27.263      860.390
07/11/2013  10:33:00     -105.210     -191.289       -4.816      152.804      149.056       65.798    23349.006    22217.606     4329.349        4.878        2.495      218.313       38.975        0.032      347.737       26.921      860.419
07/11/2013  10:34:00     -101.714      -18.813       10.264      125.147       71.710       57.651    15661.708     5142.260     3323.684        1.746        1.206      103.439       60.320        0.340      347.869       27.151      860.393
07/11/2013  10:35:00      -33.789      -86.343       -3.389       83.680      101.334       46.977     7002.336    10268.478     2206.847        1.404        0.974       92.719       37.396        0.163      347.857       27.130      860.395
07/11/2013  10:36:00      -63.746     -104.030      -11.426       57.940       66.055       41.650     3357.060     4363.218     1734.682        1.223        0.473      122.008       23.280        0.036      347.762       26.967      860.391
07/11/2013  10:37:00      -76.726      -91.366       13.445       85.931      111.826       56.714     7384.149    12505.033     3216.453        1.876        1.155      119.309       38.840        0.106      347.834       27.089      860.390
07/11/2013  10:38:00       63.174     -158.228       -2.164      109.817      115.231       74.044    12059.755    13278.287     5482.478        2.992        1.541      170.373       72.111        0.179      347.871       27.152      860.387
07/11/2013  10:39:00       26.773     -157.028       -5.187      125.521      131.936       69.179    15755.429    17407.024     4785.800        3.167        1.897      159.294       57.953        0.132      347.895       27.192      860.419
07/11/2013  10:40:00        0.220     -219.552      -18.291       99.102       93.063       51.902     9821.158     8660.788     2693.817        3.485        1.059      219.552       27.882        0.016      347.962       27.310      860.446
07/11/2013  10:41:00      -63.329     -266.781       -0.593      136.868      102.509       78.481    18732.768    10508.085     6159.198        5.528        1.770      274.195       53.820        0.039      347.653       26.775      860.481
07/11/2013  10:42:00      -55.416     -194.177       12.305       80.797       97.165       54.854     6528.211     9440.988     3009.010        2.995        0.949      201.929       26.654        0.017      347.666       26.798      860.471
07/11/2013  10:43:00      -62.322     -104.671       -1.907       89.488      132.788       51.122     8008.082    17632.748     2613.427        2.154        1.413      121.820       33.990        0.078      347.921       27.239      860.427
07/11/2013  10:44:00       21.676     -193.666      -12.499      108.676      137.382       69.429    11810.382    18873.930     4820.359        3.681        1.775      194.875       69.622        0.128      347.890       27.185      860.417
07/11/2013  10:45:00      -71.402     -134.522       25.816      127.217       82.131       73.202    16184.079     6745.560     5358.522        2.607        1.414      152.297       48.465        0.101      348.094       27.538      860.380
07/11/2013  10:46:00       38.248     -237.596       -2.321      158.910      156.412       67.292    25252.525    24464.727     4528.227        5.607        2.712      240.655       70.825        0.087      347.878       27.164      860.405
07/11/2013  10:47:00       71.620     -306.427      -13.965      140.230      153.034       88.561    19664.437    23419.523     7843.115        7.506        2.546      314.685       66.157        0.044      347.767       26.970      860.400
07/11/2013  10:48:00       34.825     -215.785        7.277      105.574      191.121       65.322    11145.838    36527.127     4266.956        4.987        2.597      218.577       67.393        0.095      347.783       27.001      860.426
07/11/2013  10:49:00      145.509     -204.002       27.075      129.432      150.059       87.489    16752.747    22517.615     7654.307        5.521        2.346      250.578       91.450        0.133      347.606       26.694      860.434
07/11/2013  10:50:00       85.335     -183.166       -2.749      122.819      149.854       78.060    15084.620    22456.272     6093.309        4.223        2.182      202.069       94.628        0.219      347.850       27.116      860.418
07/11/2013  10:51:00       62.956     -305.926      -32.480      114.931      166.520       83.440    13209.162    27728.991     6962.299        7.325        2.395      312.337       55.674        0.032      347.591       26.668      860.425
07/11/2013  10:52:00        1.516     -133.191       16.710       96.678       94.248       61.992     9346.553     8882.641     3842.974        2.004        1.104      133.200       56.995        0.183      347.952       27.292      860.378
07/11/2013  10:53:00       35.103     -183.337       -6.465      119.616      120.698       72.176    14308.011    14567.991     5209.305        3.448        1.704      186.667       48.431        0.067      347.832       27.086      860.355
07/11/2013  10:54:00       71.783     -202.862      -14.808      141.135      136.079       61.116    19918.999    18517.562     3735.179        4.434        2.109      215.188       58.353        0.074      347.758       26.956      860.341
07/11/2013  10:55:00      104.660     -217.858        0.909       99.727      160.915       78.881     9945.566    25893.667     6222.189        5.023        2.103      241.693       86.203        0.127      348.080       27.514      860.313
07/11/2013  10:56:00       13.408      -71.698       37.949       64.935       90.346       53.659     4216.601     8162.326     2879.329        1.101        0.763       72.941       52.314        0.514      348.313       27.918      860.302
07/11/2013  10:57:00      106.045      -89.924       49.244      114.195      141.204       85.041    13040.430    19938.570     7232.045        3.098        2.011      139.038       98.513        0.502      348.384       28.039      860.290
07/11/2013  10:58:00      -47.235      -87.908       -9.818       87.716       73.335       46.330     7694.074     5378.028     2146.434        1.263        0.761       99.794       36.014        0.130      348.437       28.132      860.318
07/11/2013  10:59:00      -52.540     -118.694        8.140       84.026       96.659       49.568     7060.416     9342.976     2456.995        1.788        0.943      129.803       29.752        0.053      348.373       28.021      860.316
07/11/2013  11:00:00     -129.326      -91.817       -4.153      101.488       65.153       44.058    10299.806     4244.950     1941.144        2.083        0.824      158.605       37.558        0.056      348.192       27.706      860.312
07/11/2013  11:01:00       -9.239     -180.817        0.388      123.918      147.687       79.151    15355.713    21811.340     6264.960        3.810        2.172      181.053       72.942        0.162      348.172       27.675      860.334
07/11/2013  11:02:00      -35.802      -74.889       25.264      128.219       88.529       67.463    16440.007     7837.367     4551.229        1.817        1.441       83.007       62.561        0.568      348.344       27.970      860.308
07/11/2013  11:03:00     -152.873     -159.739       -0.201      133.235      159.452       65.452    17751.655    25424.915     4283.915        4.816        2.373      221.103       71.367        0.104      348.390       28.051      860.337
07/11/2013  11:04:00      -40.644     -178.667      -17.681      136.313      109.764       67.680    18581.281    12048.050     4580.548        3.454        1.760      183.232       45.307        0.061      348.387       28.045      860.303
07/11/2013  11:05:00      -70.913     -237.784       -6.060      162.215      129.840       78.169    26313.758    16858.498     6110.438        5.543        2.464      248.133       70.201        0.080      348.212       27.739      860.339
07/11/2013  11:06:00       22.545     -127.000       33.839       87.930      113.553       65.194     7731.655    12894.251     4250.285        2.132        1.244      128.986       60.138        0.217      348.464       28.178      860.298
07/11/2013  11:07:00      -33.939     -191.452       16.530      111.837      134.203       79.553    12507.589    18010.479     6328.638        3.746        1.842      194.437       48.888        0.063      348.489       28.221      860.235
07/11/2013  11:08:00     -240.460     -216.313      -21.672      173.992      201.326       84.433    30273.276    40531.996     7128.904        9.149        3.897      323.438       77.527        0.057      348.337       27.957      860.301
07/11/2013  11:09:00     -270.192     -214.941       11.476      228.077      186.463       80.063    52019.149    34768.490     6410.034       10.625        4.660      345.258       82.889        0.058      348.120       27.580      860.321
07/11/2013  11:10:00     -259.905     -237.316      -20.947      160.994      143.263       74.844    25918.955    20524.327     5601.577        8.817        2.602      351.951       78.184        0.049      348.116       27.573      860.318
07/11/2013  11:11:00     -314.292     -194.353       -0.396      262.775      275.246       84.403    69050.911    75760.527     7123.840       14.421        7.597      369.531      137.916        0.139      348.223       27.759      860.322
07/11/2013  11:12:00     -346.257     -233.044        3.332      184.174      149.384       84.953    33920.033    22315.437     7216.937       11.882        3.173      417.377      101.034        0.059      348.039       27.440      860.312
07/11/2013  11:13:00     -194.429     -277.723       -3.681      204.088      167.684       90.187    41651.893    28117.769     8133.664        9.641        3.895      339.018       91.577        0.073      348.214       27.743      860.341
07/11/2013  11:14:00     -336.705     -251.603       -6.581      218.358      169.410       98.299    47680.040    28699.593     9662.740       13.136        4.302      420.327      107.404        0.065      348.087       27.525      860.366
07/11/2013  11:15:00     -236.331      -82.041       18.852      155.644      138.265       68.701    24225.184    19117.203     4719.892        5.549        2.403      250.166       75.732        0.092      348.132       27.603      860.342
07/11/2013  11:16:00     -201.887     -199.548       -4.741      178.221      136.327       73.426    31762.713    18584.993     5391.346        6.816        2.787      283.862       46.408        0.027      348.227       27.767      860.351
07/11/2013  11:17:00      -31.814     -123.862       15.029      168.976      117.923       79.517    28552.927    13905.898     6322.976        3.267        2.439      127.882       60.857        0.226      348.449       28.151      860.343
07/11/2013  11:18:00      -86.872      -83.078        6.551      106.690       83.150       48.968    11382.679     6913.928     2397.882        1.759        1.035      120.203       29.811        0.062      348.328       27.943      860.340
07/11/2013  11:19:00       -8.298      -38.957       38.988      105.488      146.294       66.659    11127.659    21402.061     4443.432        2.003        1.849       39.831       65.854        2.734      348.566       28.355      860.344
07/11/2013  11:20:00      -89.338     -195.493        6.549      107.848      137.554       68.308    11631.215    18921.082     4666.036        4.072        1.761      214.939       85.906        0.160      348.301       27.894      860.311
07/11/2013  11:21:00       41.258     -122.889        8.479       80.781       92.575       68.737     6525.514     8570.087     4724.719        1.834        0.991      129.630       63.149        0.237      348.333       27.952      860.294
07/11/2013  11:22:00     -133.796     -133.787       -4.215      135.348      107.950       55.334    18319.054    11653.175     3061.888        3.442        1.652      189.210       49.796        0.069      348.520       28.273      860.288
07/11/2013  11:23:00       21.156     -127.179       38.804      176.596      124.965       86.515    31186.096    15616.200     7484.779        3.620        2.714      128.927       77.912        0.365      348.615       28.437      860.273
07/11/2013  11:24:00       19.790     -380.044      -21.897      124.826       98.086       69.018    15581.542     9620.799     4763.458        8.763        1.498      380.559       42.602        0.013      348.024       27.414      860.308
07/11/2013  11:25:00       -1.959      -93.960        7.785      105.585       72.129       44.547    11148.255     5202.533     1984.466        1.361        0.917       93.981       34.863        0.138      348.511       28.262      860.264
07/11/2013  11:26:00        5.172     -117.023       -0.782      108.677       94.864       67.384    11810.744     8999.165     4540.617        1.953        1.268      117.137       50.216        0.184      348.488       28.219      860.246
07/11/2013  11:27:00       22.467     -221.306      -29.157       95.736      154.312       74.743     9165.314    23812.277     5586.541        4.444        1.928      222.444       76.111        0.117      348.369       28.013      860.246
07/11/2013  11:28:00      -51.360     -240.498      -16.419      174.207      119.625       51.002    30348.047    14310.181     2601.168        5.399        2.363      245.921       42.854        0.030      348.283       27.863      860.206
07/11/2013  11:29:00     -261.453      -93.791       -2.195      148.705       92.594       63.561    22113.127     8573.582     4040.027        5.594        1.736      277.767       61.155        0.048      348.450       28.150      860.234
07/11/2013  11:30:00     -160.779      -74.461       -0.895      120.672      104.252       55.682    14561.671    10868.419     3100.506        2.996        1.427      177.185       55.339        0.098      348.818       28.789      860.268
07/11/2013  11:31:00     -262.820     -278.268       -6.886      166.198      113.115       69.930    27621.898    12794.914     4890.154        9.592        2.265      382.763       74.132        0.038      348.018       27.405      860.245
07/11/2013  11:32:00     -215.439      -63.084      -12.517      149.266      124.700       57.211    22280.350    15550.197     3273.148        4.582        2.055      224.485       53.593        0.057      348.189       27.701      860.227
07/11/2013  11:33:00     -350.536      -36.941       -7.949      178.344      154.274       85.970    31806.551    23800.451     7390.897        9.364        3.150      352.477      100.355        0.081      348.562       28.346      860.230
07/11/2013  11:34:00     -199.555       -6.736       10.659      130.492       90.838       58.850    17028.107     8251.530     3463.354        3.436        1.437      199.669       58.314        0.085      348.450       28.154      860.247
07/11/2013  11:35:00     -125.532      -96.302        4.422      132.172       85.468       48.545    17469.393     7304.729     2356.607        2.609        1.357      158.216       69.614        0.194      348.590       28.395      860.238
07/11/2013  11:36:00     -180.827     -110.300       -0.978       98.970       88.491       54.122     9795.096     7830.722     2929.176        3.271        1.028      211.812       55.132        0.068      348.299       27.892      860.274
07/11/2013  11:37:00     -227.144       58.759       -5.621      211.754      102.619       72.862    44839.960    10530.759     5308.855        5.787        3.034      234.621      106.366        0.206      348.398       28.064      860.206
07/11/2013  11:38:00     -203.301     -139.305        9.066      181.126      134.245       70.497    32806.747    18021.772     4969.843        5.830        2.790      246.449       83.505        0.115      348.635       28.473      860.138
07/11/2013  11:39:00     -337.364     -227.631      -13.270      154.687      169.056       75.644    23928.013    28579.945     5722.066       11.201        2.912      406.977       71.334        0.031      348.221       27.754      860.234
07/11/2013  11:40:00     -254.735     -143.292       -7.381      191.638      185.420       65.533    36725.127    34380.507     4294.570        8.042        3.770      292.271       67.212        0.053      348.251       27.809      860.201
07/11/2013  11:41:00     -269.442      -11.224      -19.867      133.552      130.173       66.865    17836.010    16945.055     4470.931        5.618        1.963      269.676       67.195        0.062      348.364       28.003      860.201
07/11/2013  11:42:00     -188.245      -15.374        4.305       98.962      118.941       48.679     9793.445    14146.977     2369.644        3.100        1.316      188.872       54.530        0.083      348.612       28.431      860.157
07/11/2013  11:43:00     -280.898     -107.771       -3.975      178.853      106.572       65.178    31988.272    11357.671     4248.174        6.905        2.380      300.862       68.135        0.051      348.431       28.119      860.144
07/11/2013  11:44:00     -231.432     -102.755       14.674      171.256      110.140       64.985    29328.622    12130.832     4223.040        5.500        2.284      253.218       63.469        0.063      348.869       28.877      860.207
07/11/2013  11:45:00      -98.316     -137.466      -12.444      125.015       99.708       48.497    15628.671     9941.650     2351.975        2.831        1.396      169.006       29.383        0.030      348.895       28.924      860.263
07/11/2013  11:46:00      -40.455     -226.164      -15.402      122.793      103.178       60.581    15078.139    10645.674     3670.001        4.120        1.470      229.754       52.891        0.053      348.729       28.634      860.236
07/11/2013  11:47:00      -40.571     -172.837       -9.382      134.286      135.050       73.986    18032.616    18238.370     5473.911        3.667        2.087      177.535       81.633        0.211      348.503       28.245      860.218
07/11/2013  11:48:00      -16.396     -128.318      -24.729      139.648       75.775       59.285    19501.432     5741.864     3514.663        2.305        1.438      129.361       45.361        0.123      348.497       28.235      860.190
07/11/2013  11:49:00     -203.028     -114.982       15.724      175.498      155.922       71.816    30799.588    24311.808     5157.596        5.747        3.013      233.327       89.162        0.146      348.665       28.525      860.241
07/11/2013  11:50:00     -507.642     -191.400      -22.158      269.021      184.256      112.812    72372.465    33950.312    12726.588       20.691        5.952      542.526      132.718        0.060      348.307       27.904      860.199
07/11/2013  11:51:00     -441.014     -190.219      -26.385      252.450      221.297       95.761    63730.758    48972.430     9170.239       17.660        6.094      480.289      118.723        0.061      348.420       28.099      860.212
07/11/2013  11:52:00     -344.093     -241.657      -19.181      214.224      152.858       94.881    45892.072    23365.638     9002.366       12.770        3.913      420.474       92.021        0.048      348.386       28.040      860.187
07/11/2013  11:53:00     -318.580     -233.657        8.324      213.434      149.251       94.856    45553.997    22275.926     8997.725       11.648        3.841      395.080      111.622        0.080      348.280       27.857      860.183
07/11/2013  11:54:00     -349.741     -244.173      -13.707      160.656      138.832       84.950    25810.472    19274.431     7216.557       11.720        2.615      426.543       84.530        0.039      348.200       27.720      860.148
07/11/2013  11:55:00     -329.825     -194.954       -6.020      183.467      137.159       79.393    33660.308    18812.603     6303.199       10.279        2.939      383.134       89.635        0.055      348.348       27.974      860.143
07/11/2013  11:56:00     -345.034      -50.311      -33.787      198.910      152.584       87.133    39565.171    23281.890     7592.211        9.657        3.522      348.682       95.432        0.075      348.336       27.956      860.151
07/11/2013  11:57:00     -277.667      -32.866       -3.789      157.303      119.081       68.058    24744.131    14180.324     4631.951        6.087        2.178      279.605       68.945        0.061      348.291       27.877      860.157
07/11/2013  11:58:00     -369.787      -17.620      -16.534      155.798      119.148       64.281    24273.139    14196.207     4132.103        8.996        2.130      370.206       65.282        0.031      348.237       27.784      860.161
07/11/2013  11:59:00     -291.286        1.905       -6.990      193.703      135.023       74.079    37520.802    18231.086     5487.654        7.306        3.062      291.292       85.100        0.085      348.582       28.382      860.158
07/11/2013  12:00:00     -337.608        6.692        0.633      162.809      134.717       72.996    26506.878    18148.568     5328.353        8.199        2.499      337.674       73.888        0.048      348.554       28.333      860.178
07/11/2013  12:01:00     -256.941     -153.112        4.555      162.641      150.902       67.763    26451.989    22771.441     4591.805        7.164        2.691      299.102       63.397        0.045      348.754       28.678      860.176
07/11/2013  12:02:00     -442.022     -319.746      -29.601      252.912      230.670      106.653    63964.355    53208.872    11374.841       21.350        6.427      545.547      131.314        0.058      348.268       27.836      860.157
07/11/2013  12:03:00     -325.499     -293.224        9.797      237.330      209.149      102.751    56325.402    43743.174    10557.709       15.130        5.531      438.098      110.969        0.064      348.359       27.995      860.125
07/11/2013  12:04:00     -365.797     -224.331        5.956      206.410      176.353       91.286    42604.926    31100.302     8333.079       13.309        4.102      429.106      103.715        0.058      348.216       27.747      860.128
07/11/2013  12:05:00     -103.527     -159.759        3.357      155.667      143.081       83.422    24232.246    20472.112     6959.154        4.395        2.583      190.369       83.752        0.194      348.488       28.217      860.110
07/11/2013  12:06:00     -372.519     -197.889        2.627      212.790      183.735      106.172    45279.723    33758.417    11272.545       13.411        4.516      421.818      113.413        0.072      348.476       28.196      860.136
07/11/2013  12:07:00     -358.291     -178.870        0.343      186.011      140.918       88.617    34600.210    19857.901     7852.940       11.133        3.116      400.458       97.858        0.060      348.457       28.163      860.142
07/11/2013  12:08:00     -269.518     -218.263       -4.745      186.510      153.770       89.942    34786.033    23645.193     8089.645        9.340        3.326      346.813       89.500        0.067      348.571       28.361      860.131
07/11/2013  12:09:00     -492.175     -266.119      -23.891      204.368      151.719       96.192    41766.365    23018.594     9252.911       19.382        3.702      559.513       94.481        0.029      348.452       28.156      860.140
07/11/2013  12:10:00     -250.998     -101.870       -2.144      171.578      112.000       57.703    29438.985    12544.070     3329.605        5.934        2.266      270.883       76.879        0.081      348.368       28.011      860.180
07/11/2013  12:11:00     -116.704      -84.522       28.183      160.229      105.015       73.189    25673.486    11028.065     5356.696        3.180        2.103      144.096       90.971        0.399      348.818       28.789      860.167
07/11/2013  12:12:00     -217.950     -194.181       -9.861      141.606      124.727       66.253    20052.262    15556.777     4389.494        6.264        2.000      291.905       69.252        0.056      348.465       28.179      860.143
07/11/2013  12:13:00     -180.368     -136.798        4.156      179.095      120.371       80.534    32075.008    14489.218     6485.681        5.215        2.652      226.376       91.625        0.164      348.666       28.527      860.124
07/11/2013  12:14:00     -214.988     -175.378       -0.120      162.112      134.621       88.591    26280.237    18122.821     7848.369        6.460        2.613      277.448       92.945        0.112      348.616       28.439      860.104
07/11/2013  12:15:00     -277.222     -203.612       12.339      198.814      144.693       88.118    39527.052    20936.066     7764.810        9.333        3.411      343.962      106.570        0.096      348.706       28.595      860.078
07/11/2013  12:16:00     -301.408     -260.073        2.158      251.899      124.322       95.800    63453.110    15455.985     9177.588       12.327        4.404      398.101      116.905        0.086      348.511       28.259      860.091
07/11/2013  12:17:00     -389.716     -303.059      -13.979      264.347      183.749      120.628    69879.078    33763.582    14550.995       18.103        5.910      493.683      141.684        0.082      348.513       28.261      860.077
07/11/2013  12:18:00     -530.571     -247.495      -13.447      263.019      193.126      101.264    69178.765    37297.807    10254.326       22.981        5.837      585.457      109.307        0.035      348.428       28.111      860.074
07/11/2013  12:19:00     -387.027     -237.515      -22.343      236.403      145.521       96.830    55886.358    21176.241     9376.109       14.655        4.322      454.096      107.381        0.056      348.438       28.132      860.108
07/11/2013  12:20:00     -380.765      -97.368      -22.051      190.092      145.597       71.163    36134.824    21198.371     5064.218       10.866        3.120      393.017       86.642        0.049      348.444       28.141      860.126
07/11/2013  12:21:00     -399.462      -73.465      -25.599      197.961      156.498       80.054    39188.391    24491.500     6408.697       11.784        3.504      406.161       85.368        0.044      348.479       28.200      860.104
07/11/2013  12:22:00     -588.163      -80.922      -27.225      303.258      214.056      107.211    91965.469    45820.104    11494.130       25.122        7.464      593.704      127.201        0.046      348.429       28.115      860.079
07/11/2013  12:23:00     -312.430     -127.103      -10.824      212.439      162.482       81.905    45130.537    26400.383     6708.401        9.605        3.912      337.295       91.836        0.074      348.389       28.047      860.117
07/11/2013  12:24:00     -397.482     -110.631       -9.788      155.873      132.889       78.278    24296.445    17659.495     6127.389       10.920        2.404      412.591       68.839        0.028      348.463       28.175      860.113
07/11/2013  12:25:00     -396.218      -86.002      -30.020      260.530      125.587       72.538    67875.929    15772.150     5261.711       12.708        4.445      405.444       83.653        0.043      348.503       28.244      860.093
07/11/2013  12:26:00     -350.258     -105.645        7.215      200.894      148.913       90.470    40358.589    22174.983     8184.745       10.229        3.536      365.843       98.515        0.073      348.637       28.475      860.110
07/11/2013  12:27:00     -436.308     -210.992      -28.561      195.526      149.451       78.549    38230.558    22335.716     6169.989       15.120        3.337      484.647       60.343        0.016      348.538       28.302      860.112
07/11/2013  12:28:00     -511.872     -164.636      -29.146      215.138      167.648       77.363    46284.418    28105.856     5985.095       18.516        4.019      537.697       87.303        0.026      348.325       27.936      860.100
07/11/2013  12:29:00     -488.881      -89.107      -13.621      291.648      191.907      101.379    85058.338    36828.408    10277.768       18.962        6.608      496.936      125.403        0.064      348.611       28.429      860.066
07/11/2013  12:30:00     -420.087     -291.438       -3.530      230.157      234.992      113.115    52972.298    55221.096    12795.013       19.118        6.049      511.282      122.892        0.058      348.514       28.263      860.031
07/11/2013  12:31:00     -327.746     -232.107       -7.984      243.071      161.778      102.246    59083.628    26172.246    10454.317       12.851        4.786      401.611      101.416        0.064      348.578       28.373      860.018
07/11/2013  12:32:00     -373.759     -309.929      -13.930      235.658      201.617      109.507    55534.528    40649.612    11991.824       17.204        5.409      485.543      130.473        0.072      348.698       28.583      860.024
07/11/2013  12:33:00     -401.029     -179.338      -31.223      200.856      147.629       82.349    40342.998    21794.183     6781.333       13.143        3.446      439.302       93.977        0.046      348.651       28.498      860.055
07/11/2013  12:34:00     -365.619      -86.800       10.077      212.292      136.553       85.289    45068.029    18646.789     7274.157       10.614        3.549      375.781       90.045        0.057      348.846       28.837      860.032
07/11/2013  12:35:00     -243.696     -174.676       -2.060      167.007      191.375       83.721    27891.176    36624.372     7009.235        8.070        3.576      299.832       86.321        0.083      348.786       28.734      860.031
07/11/2013  12:36:00     -381.439     -129.728      -20.366      222.692      202.657       89.950    49591.637    41069.988     8090.948       13.073        4.938      402.896       98.373        0.060      348.917       28.960      860.052
07/11/2013  12:37:00     -351.501      -66.208        6.092      204.297      146.269       77.542    41737.361    21394.689     6012.688        9.855        3.457      357.682       82.829        0.054      348.883       28.900      860.073
07/11/2013  12:38:00     -534.179     -139.820      -22.370      183.232      137.169       84.432    33573.924    18815.204     7128.775       18.245        2.976      552.175       94.086        0.029      348.170       27.666      860.042
07/11/2013  12:39:00     -329.863     -115.358       -2.285      165.473      118.301       65.500    27381.350    13995.074     4290.238        8.389        2.283      349.452       77.760        0.050      348.520       28.272      860.024
07/11/2013  12:40:00     -274.420     -218.990       18.973      193.099      174.721      108.983    37287.035    30527.394    11877.287       10.164        3.985      351.088      113.204        0.104      348.751       28.673      860.033
07/11/2013  12:41:00     -246.630      -94.055       26.534      192.402      142.118       92.087    37018.496    20197.643     8479.934        6.802        3.285      263.956       88.316        0.112      348.799       28.757      860.033
07/11/2013  12:42:00     -464.224       -5.401      -29.128      188.113      125.730       83.879    35386.626    15808.109     7035.712       13.729        2.912      464.256       78.794        0.029      348.599       28.408      860.003
07/11/2013  12:43:00     -430.935     -157.301      -16.412      215.684      163.959       88.921    46519.641    26882.694     7907.009       14.600        4.065      458.747       93.632        0.042      348.719       28.615      859.999
07/11/2013  12:44:00     -371.211     -145.249        4.920      310.812      168.465      122.495    96604.092    28380.329    15005.141       14.943        6.999      398.617      166.525        0.175      348.833       28.816      860.005
07/11/2013  12:45:00     -582.143     -407.602       10.503      347.590      240.976      152.379   120818.938    58069.289    23219.315       35.358       10.105      710.654      175.833        0.061      348.727       28.630      859.890
07/11/2013  12:46:00     -406.776     -186.226       -6.140      257.889      159.299      112.100    66506.661    25376.180    12566.382       15.230        5.222      447.377      136.247        0.093      348.774       28.712      859.977
07/11/2013  12:47:00     -641.095     -293.192      -21.368      269.157      233.679      111.497    72445.601    54605.655    12431.623       31.842        6.974      704.957      127.936        0.033      348.443       28.139      859.987
07/11/2013  12:48:00     -211.633     -136.199       14.370      216.938      147.327       89.674    47062.180    21705.134     8041.474        7.016        3.840      251.672      114.415        0.207      348.589       28.392      860.013
07/11/2013  12:49:00     -396.244     -283.510      -22.711      220.271      187.022      105.988    48519.134    34977.045    11233.469       16.630        4.736      487.224      119.967        0.061      348.539       28.306      859.981
07/11/2013  12:50:00     -398.149     -306.045      -12.908      245.057      147.383       98.798    60053.008    21721.839     9761.063       17.193        4.577      502.181      103.140        0.042      348.793       28.746      859.973
07/11/2013  12:51:00     -414.819     -257.398      -15.354      245.993      226.691      112.423    60512.624    51388.959    12638.968       18.153        6.227      488.189      125.381        0.066      348.677       28.544      859.999
07/11/2013  12:52:00     -346.042     -288.080        9.552      262.150      227.941      132.601    68722.515    51957.032    17583.063       17.052        6.913      450.261      152.631        0.115      348.563       28.347      859.918
07/11/2013  12:53:00     -453.780     -182.990       -2.796      258.532      172.797       98.691    66838.851    29858.863     9740.005       17.290        5.322      489.287       97.217        0.039      348.848       28.839      859.939
07/11/2013  12:54:00     -449.566     -245.310      -21.798      269.176      254.363      118.412    72455.767    64700.577    14021.336       20.694        7.559      512.139      118.507        0.054      348.681       28.551      859.985
07/11/2013  12:55:00     -351.006     -304.501       -0.210      276.271      251.207      160.259    76325.623    63105.049    25683.001       19.049        8.256      464.678      142.143        0.094      348.534       28.297      859.892
07/11/2013  12:56:00     -152.705     -109.764        7.051      168.396      139.994       93.609    28357.339    19598.437     8762.581        4.606        2.836      188.061      102.597        0.298      348.846       28.839      859.968
07/11/2013  12:57:00     -338.962       -9.970      -23.123      140.414      136.390       67.083    19716.051    18602.105     4500.091        7.917        2.141      339.108       65.087        0.037      348.808       28.772      859.937
07/11/2013  12:58:00     -366.988      -54.809      -24.060      222.250      147.724       79.445    49395.027    21822.318     6311.471       10.788        3.876      371.058       97.420        0.069      348.955       29.025      859.897
07/11/2013  12:59:00     -512.164     -102.553      -27.929      244.100      144.054      100.789    59585.036    20751.560    10158.455       18.203        4.525      522.331      116.847        0.050      348.794       28.747      859.928
07/11/2013  13:00:00     -253.030     -127.517       12.553      199.448      181.482       94.410    39779.409    32935.811     8913.204        8.102        4.081      283.345      101.543        0.128      349.078       29.239      859.912
07/11/2013  13:01:00     -348.855     -125.147       -4.677      235.633      196.741      101.991    55522.924    38706.879    10402.203       12.099        5.232      370.624      113.734        0.094      348.868       28.876      859.916
07/11/2013  13:02:00     -301.555     -152.855       -4.546      239.042      149.056       83.360    57140.883    22217.768     6948.905       10.030        4.315      338.083       79.462        0.055      348.923       28.973      859.923
07/11/2013  13:03:00     -481.887     -231.708      -18.001      233.701      235.717      107.656    54616.307    55562.694    11589.825       20.397        6.088      534.700      123.411        0.053      348.855       28.852      859.937
07/11/2013  13:04:00     -327.181     -204.098        0.593      223.728      171.753       95.359    50054.211    29499.114     9093.342       11.866        4.432      385.621      108.127        0.079      348.513       28.261      859.928
07/11/2013  13:05:00     -336.656     -165.433       12.705      209.712      166.468      108.177    43979.217    27711.550    11702.189       11.211        4.170      375.108      115.666        0.095      348.531       28.292      859.911
07/11/2013  13:06:00     -626.092      -59.043      -39.162      242.349      197.390      110.805    58732.904    38962.646    12277.825       25.347        5.499      628.870      116.360        0.034      348.749       28.669      859.926
07/11/2013  13:07:00     -605.342      -56.497      -15.114      233.136      178.198       94.379    54352.626    31754.704     8907.475       23.242        4.751      607.973      104.832        0.030      348.571       28.361      859.944
07/11/2013  13:08:00     -506.170     -141.742      -20.588      191.983      164.945       79.667    36857.349    27206.773     6346.910       17.355        3.521      525.641       94.395        0.032      348.620       28.445      859.934
07/11/2013  13:09:00     -419.426     -114.833      -19.059      148.304      126.436       73.250    21994.129    15986.090     5365.506       11.640        2.167      434.862       74.014        0.029      348.626       28.455      859.933
07/11/2013  13:10:00     -248.903      -93.778      -11.978      215.365      152.927       95.796    46382.231    23386.546     9176.828        7.490        3.947      265.983      117.311        0.195      348.820       28.792      859.931
07/11/2013  13:11:00     -492.402      -67.631      -20.970      186.974      148.899       90.588    34959.404    22170.977     8206.111       15.639        3.267      497.025       92.266        0.034      348.724       28.626      859.882
07/11/2013  13:12:00     -378.744      -89.687      -31.499      240.695      138.797       91.313    57934.322    19264.650     8338.118       11.899        4.277      389.218      115.129        0.087      348.929       28.981      859.932
07/11/2013  13:13:00     -378.146     -226.138       -9.316      247.009      212.058      104.150    61013.384    44968.441    10847.233       15.550        5.841      440.605      108.755        0.061      348.839       28.827      859.886
07/11/2013  13:14:00     -539.321     -219.249      -37.679      267.696      188.850      106.716    71661.373    35664.476    11388.307       22.951        5.936      582.183      124.789        0.046      348.739       28.652      859.876
07/11/2013  13:15:00     -306.752     -237.635       13.792      197.838      173.234       90.707    39139.843    30010.055     8227.784       11.405        3.869      388.030      100.379        0.067      348.872       28.883      859.872
07/11/2013  13:16:00     -487.263     -121.702      -11.368      230.511      255.700      110.148    53135.155    65382.587    12132.682       19.148        6.533      502.232      120.349        0.057      348.846       28.836      859.854
07/11/2013  13:17:00     -489.914     -145.451      -18.678      227.150      170.977      102.145    51597.045    29233.063    10433.588       17.637        4.563      511.050      116.760        0.052      348.835       28.818      859.850
07/11/2013  13:18:00     -480.721     -287.446       -5.041      285.240      202.754      122.971    81361.976    41109.207    15121.856       22.564        6.880      560.105      140.229        0.063      348.788       28.735      859.831
07/11/2013  13:19:00     -474.667     -144.606      -14.807      255.765      184.189      101.004    65415.494    33925.485    10201.819       17.797        5.477      496.205      124.073        0.063      348.844       28.834      859.866
07/11/2013  13:20:00     -333.549     -102.859       16.439      244.192      172.602      109.111    59629.529    29791.345    11905.156       11.170        5.066      349.049      113.200        0.105      348.998       29.101      859.866
07/11/2013  13:21:00     -492.631      -79.042      -13.915      248.298      184.465       99.765    61651.697    34027.518     9952.982       17.736        5.282      498.932      116.334        0.054      348.767       28.700      859.887
07/11/2013  13:22:00     -553.982     -133.024      -17.143      239.577      170.554       93.766    57396.948    29088.722     8792.149       21.006        4.764      569.730      110.199        0.037      348.722       28.623      859.894
07/11/2013  13:23:00     -468.562     -268.192       -7.018      264.189      204.778      101.473    69796.071    41934.225    10296.786       20.675        6.101      539.887      128.253        0.056      348.852       28.848      859.898
07/11/2013  13:24:00     -303.031     -167.871       -1.747      223.404      162.551       94.086    49909.430    26422.888     8852.138       10.258        4.259      346.422      105.410        0.093      348.834       28.817      859.904
07/11/2013  13:25:00     -463.463     -232.212      -18.087      185.726      174.444      100.082    34494.297    30430.555    10016.326       17.198        3.747      518.383      100.978        0.038      348.568       28.356      859.904
07/11/2013  13:26:00     -247.232      -70.940       -7.040      120.086      100.376       53.962    14420.737    10075.277     2911.942        4.680        1.370      257.208       51.068        0.039      348.510       28.255      859.869
07/11/2013  13:27:00     -200.039      -46.476      -10.940      108.314       66.779       51.698    11731.991     4459.466     2672.643        3.058        0.943      205.367       50.458        0.060      348.999       29.104      859.853
07/11/2013  13:28:00     -252.438     -193.030        1.055      195.723      149.739       64.037    38307.640    22421.676     4100.750        8.290        3.242      317.782       68.225        0.046      348.902       28.935      859.847
07/11/2013  13:29:00     -354.287      -49.901       -2.994      230.134      161.692       80.012    52961.817    26144.230     6401.846       10.675        4.275      357.784       94.819        0.070      348.918       28.962      859.864
07/11/2013  13:30:00     -208.610       22.924       27.589      242.130      156.598      104.054    58626.967    24522.790    10827.247        6.937        4.699      209.866      118.341        0.318      349.320       29.657      859.856
07/11/2013  13:31:00     -397.237     -191.980        3.542      282.134      207.796      120.679    79599.709    43179.293    14563.335       16.598        6.867      441.195      132.547        0.090      349.036       29.166      859.837
07/11/2013  13:32:00     -539.539     -322.972      -25.169      234.515      216.873      107.756    54997.286    47033.701    11611.389       25.482        5.682      628.819      127.059        0.041      348.648       28.495      859.839
07/11/2013  13:33:00     -574.684     -224.759      -26.407      288.859      172.524      123.039    83439.271    29764.526    15138.506       25.488        6.417      617.072      144.079        0.055      348.752       28.674      859.824
07/11/2013  13:34:00     -342.296     -129.510        2.880      205.961      193.860       99.977    42420.045    37581.798     9995.383       11.195        4.500      365.977      110.905        0.092      348.888       28.910      859.851
07/11/2013  13:35:00     -553.100     -151.528      -20.618      224.482      142.429       88.640    50392.072    20286.098     7857.007       20.390        3.927      573.481       92.712        0.026      348.650       28.499      859.857
07/11/2013  13:36:00     -509.087      -84.411       -5.607      265.559      187.276      113.646    70521.805    35072.166    12915.500       19.239        5.925      516.038      131.429        0.065      348.699       28.583      859.828
07/11/2013  13:37:00     -496.309     -218.224      -14.622      190.395      202.338       94.350    36250.277    40940.595     8901.841       19.011        4.305      542.167       90.258        0.028      348.541       28.307      859.819
07/11/2013  13:38:00     -354.845       44.398      -18.008      178.946      101.363       85.267    32021.559    10274.516     7270.528        8.888        2.478      357.612       87.177        0.059      348.822       28.794      859.781
07/11/2013  13:39:00     -391.860     -157.363      -14.421      171.958      154.411       77.577    29569.451    23842.654     6018.138       11.897        2.972      422.276       66.799        0.025      348.997       29.098      859.782
07/11/2013  13:40:00     -456.047     -261.209      -10.875      303.264      218.186      131.304    91968.948    47605.120    17240.840       21.654        7.841      525.556      158.681        0.091      348.890       28.914      859.831
07/11/2013  13:41:00     -241.361     -231.724        3.241      138.169      128.732       78.292    19090.780    16571.880     6129.589        7.687        2.090      334.591       76.225        0.052      348.537       28.303      859.850
07/11/2013  13:42:00     -147.870     -182.979        6.761      136.846      104.785       75.052    18726.909    10979.914     5632.830        4.536        1.767      235.259       73.848        0.099      348.654       28.504      859.777
07/11/2013  13:43:00     -252.951      -69.505       14.593      107.855       89.422       61.226    11632.625     7996.218     3748.662        4.620        1.169      262.327       56.587        0.047      348.955       29.025      859.782
07/11/2013  13:44:00     -458.017     -146.442      -21.991      174.439      163.690       87.043    30429.020    26794.455     7576.538       14.824        3.240      480.858       88.440        0.034      348.849       28.842      859.784
07/11/2013  13:45:00     -518.728     -270.860      -28.699      234.287      195.270       99.481    54890.485    38130.346     9896.382       22.307        5.146      585.187      120.003        0.042      348.748       28.668      859.710
07/11/2013  13:46:00     -323.499     -248.318        2.363      204.203      191.063       92.530    41698.972    36505.047     8561.858       12.653        4.338      407.816       96.296        0.056      348.982       29.071      859.736
07/11/2013  13:47:00     -370.872     -349.169       -5.156      237.557      164.767      109.983    56433.283    27148.191    12096.188       17.757        4.784      509.378      108.683        0.046      348.944       29.007      859.758
07/11/2013  13:48:00     -264.944     -248.072       -0.773      177.958      145.033       94.215    31669.217    21034.488     8876.426        9.665        3.079      362.953       79.607        0.048      348.815       28.783      859.762
07/11/2013  13:49:00     -230.551     -118.098        8.734      174.627      158.269       80.925    30494.501    25049.083     6548.876        6.462        3.105      259.039      102.008        0.155      349.179       29.415      859.765
07/11/2013  13:50:00     -226.296     -275.122      -12.458      205.843      176.522       83.179    42371.255    31160.062     6918.750       10.374        4.023      356.233       74.109        0.043      348.829       28.807      859.741
07/11/2013  13:51:00     -357.386     -288.629       -1.613      239.026      189.869      114.689    57133.659    36050.218    13153.587       15.866        5.317      459.382      124.512        0.073      348.854       28.849      859.703
07/11/2013  13:52:00     -658.555     -124.847      -23.919      313.230      213.141      105.191    98113.049    45428.879    11065.103       30.220        7.730      670.284      128.125        0.037      348.780       28.724      859.700
07/11/2013  13:53:00     -430.073     -187.706        7.326      215.399      175.074       96.058    46396.863    30651.001     9227.145       15.325        4.314      469.251      109.527        0.054      348.947       29.010      859.709
07/11/2013  13:54:00     -335.633     -169.358        0.960      208.690      167.137       93.668    43551.378    27934.736     8773.732       11.078        4.013      375.941      100.733        0.072      349.188       29.429      859.736
07/11/2013  13:55:00     -425.719     -167.955      -16.581      247.458      218.139       96.703    61235.414    47584.558     9351.481       16.392        5.909      457.653      113.683        0.062      348.837       28.822      859.732
07/11/2013  13:56:00     -376.381     -183.085      -10.532      248.693      182.205       88.396    61848.271    33198.504     7813.882       13.906        5.143      418.548       99.467        0.056      348.948       29.012      859.750
07/11/2013  13:57:00     -482.169     -300.052       -3.332      271.805      184.124      112.818    73878.161    33901.547    12727.892       22.149        6.025      567.907      137.689        0.059      348.753       28.675      859.692
07/11/2013  13:58:00     -473.372     -307.919       -9.766      290.656      198.422      103.997    84481.105    39371.212    10815.457       22.680        6.733      564.707      130.397        0.053      348.951       29.019      859.710
07/11/2013  13:59:00     -368.196     -121.761        0.693      259.933      182.785       76.208    67565.043    33410.409     5807.620       12.857        5.339      387.807       88.975        0.053      349.037       29.167      859.733
07/11/2013  14:00:00     -458.961     -181.923       -9.499      207.175      217.973       83.870    42921.356    47512.015     7034.128       17.063        4.873      493.701       81.374        0.027      349.015       29.129      859.750
07/11/2013  14:01:00     -552.270     -162.985      -19.956      266.520      216.654      103.992    71032.677    46938.956    10814.404       23.035        6.439      575.818      132.837        0.053      348.894       28.919      859.730
07/11/2013  14:02:00     -588.293     -113.088       -5.330      259.167      205.686      109.201    67167.533    42306.595    11924.896       24.013        6.070      599.063      118.704        0.039      348.740       28.653      859.696
07/11/2013  14:03:00     -401.458      -45.991       -4.975      247.287      135.415       78.063    61150.884    18337.116     6093.826       12.443        4.279      404.084       89.666        0.049      348.936       28.992      859.739
07/11/2013  14:04:00     -310.873     -222.880        7.874      206.171      180.742       93.985    42506.535    32667.815     8833.163       11.518        4.200      382.515      101.250        0.070      348.923       28.971      859.756
07/11/2013  14:05:00     -322.407      -16.949       -5.549      211.607      138.379       84.157    44777.311    19148.804     7082.388        8.762        3.550      322.852       96.302        0.089      349.038       29.170      859.785
07/11/2013  14:06:00     -437.832      -85.983        3.511      308.747      136.401       95.790    95324.634    18605.222     9175.785       16.108        6.155      446.195      120.760        0.073      348.767       28.701      859.722
07/11/2013  14:07:00     -421.722     -164.648      -20.512      210.110      151.092       82.801    44146.353    22828.773     6856.046       13.959        3.692      452.723       88.536        0.038      348.945       29.009      859.720
07/11/2013  14:08:00     -564.114        9.182      -47.792      219.925      159.679      105.795    48366.993    25497.396    11192.663       20.281        4.253      564.188      111.570        0.039      348.789       28.738      859.665
07/11/2013  14:09:00     -459.755     -189.925       -1.233      221.988      173.762       96.743    49278.781    30193.110     9359.112       16.812        4.442      497.440      108.082        0.047      348.989       29.084      859.638
07/11/2013  14:10:00     -502.787     -212.173      -22.041      212.339      169.188       85.247    45088.040    28624.648     7267.046       18.962        4.049      545.721       96.597        0.031      348.843       28.832      859.666
07/11/2013  14:11:00     -325.826      -62.260       -0.392      224.780      180.571       79.991    50526.177    32605.857     6398.527        9.977        4.477      331.721       93.413        0.079      349.007       29.115      859.677
07/11/2013  14:12:00     -521.261      -80.437      -17.676      182.367      170.878       68.665    33257.800    29199.401     4714.914       17.282        3.359      527.431       60.365        0.013      348.838       28.824      859.713
07/11/2013  14:13:00     -417.105     -174.919      -17.584      181.878      137.344       73.751    33079.606    18863.296     5439.161       13.112        2.869      452.298       78.354        0.030      348.658       28.511      859.711
07/11/2013  14:14:00     -214.110      -43.335       -6.305      133.639      116.470       59.648    17859.300    13565.359     3557.893        4.136        1.749      218.451       49.505        0.051      349.044       29.179      859.685
07/11/2013  14:15:00      -47.688      -14.941       36.031       95.108       67.096       45.247     9045.592     4501.838     2047.252        0.969        0.780       49.974       44.680        0.799      349.199       29.452      859.647
07/11/2013  14:16:00     -130.079      -95.756        6.800      145.061      122.359       61.553    21042.649    14971.639     3788.751        3.296        1.990      161.523       68.917        0.182      349.237       29.516      859.644
07/11/2013  14:17:00     -423.600     -116.934      -23.984      304.272      177.201      101.414    92581.738    31400.322    10284.787       16.395        6.713      439.444      136.981        0.097      349.156       29.375      859.655
07/11/2013  14:18:00     -405.684      -90.709       -9.643      209.511      151.841       96.018    43894.931    23055.800     9219.496       12.452        3.809      415.701      108.370        0.068      349.273       29.576      859.692
07/11/2013  14:19:00     -373.729     -208.393        6.219      278.396      201.187      109.535    77504.326    40476.351    11997.883       15.653        6.499      427.903      144.400        0.114      349.000       29.104      859.696
07/11/2013  14:20:00     -309.030     -129.533        7.572      241.273      152.965       89.935    58212.561    23398.408     8088.346       10.100        4.485      335.080      108.899        0.106      349.095       29.268      859.718
07/11/2013  14:21:00     -399.369      -83.005       -5.193      211.647      226.861       85.429    44794.406    51465.866     7298.104       13.496        5.178      407.904      102.629        0.063      348.822       28.795      859.696
07/11/2013  14:22:00     -320.066      -75.339        8.900      240.034      157.272       85.461    57616.287    24734.473     7303.567        9.891        4.483      328.813      106.534        0.105      348.970       29.051      859.690
07/11/2013  14:23:00     -322.439     -297.150        4.317      207.448      184.544      108.116    43034.567    34056.371    11688.994       14.051        4.439      438.481      113.500        0.067      348.964       29.040      859.691
07/11/2013  14:24:00     -313.185     -189.440      -22.397      212.734      166.036       81.992    45255.756    27567.810     6722.661       10.699        3.977      366.023      103.177        0.079      348.847       28.839      859.734
07/11/2013  14:25:00     -229.701     -192.119       -2.653      189.690      125.841       88.995    35982.240    15835.936     7920.079        7.470        2.987      299.453       97.817        0.107      348.790       28.741      859.708
07/11/2013  14:26:00     -282.888     -175.795        1.116      169.344      133.486       70.752    28677.225    17818.412     5005.799        8.121        2.575      333.061       71.954        0.047      348.890       28.913      859.681
07/11/2013  14:27:00     -472.138     -310.455        0.335      191.118      145.440       95.234    36526.150    21152.930     9069.429       19.301        3.337      565.063       91.816        0.026      348.573       28.365      859.646
07/11/2013  14:28:00     -393.833     -204.360      -14.003      213.335      156.128      100.925    45511.769    24375.998    10185.791       13.855        4.004      443.697      111.503        0.063      348.665       28.524      859.604
07/11/2013  14:29:00     -331.288     -237.964      -32.073      179.816      140.769       71.806    32333.732    19815.807     5156.054       11.235        2.865      407.895       71.408        0.031      348.795       28.748      859.571
07/11/2013  14:30:00     -254.600     -280.805       16.095      190.484      142.598       79.267    36284.053    20334.152     6283.209       10.340        3.145      379.042       84.930        0.050      348.933       28.986      859.569
07/11/2013  14:31:00     -264.786     -205.625        0.059      167.040      132.086       66.486    27902.284    17446.586     4420.342        8.107        2.488      335.251       70.752        0.045      348.920       28.965      859.590
07/11/2013  14:32:00     -175.765     -164.173       10.006      135.263      112.964       58.503    18295.960    12760.769     3422.613        4.621        1.724      240.512       63.638        0.070      348.991       29.089      859.601
07/11/2013  14:33:00     -503.143     -168.232      -14.545      185.939      157.455       83.804    34573.434    24792.156     7023.150       17.401        3.319      530.523       71.543        0.018      348.920       28.966      859.624
07/11/2013  14:34:00     -309.192     -176.801       11.882      235.003      145.180       85.219    55226.321    21077.137     7262.201       10.527        4.178      356.172      109.532        0.095      348.870       28.879      859.564
07/11/2013  14:35:00     -349.710     -111.547        5.479      149.208      154.019       68.161    22263.149    23721.907     4645.955        9.269        2.532      367.069       64.546        0.031      349.048       29.186      859.552
07/11/2013  14:36:00     -571.066     -417.655      -15.507      361.962      278.496      151.575   131016.428    77559.846    22974.919       36.613       11.578      707.497      185.545        0.069      348.900       28.930      859.524
07/11/2013  14:37:00     -594.998     -166.578      -27.015      292.324      219.163      107.782    85453.554    48032.401    11616.959       26.377        7.255      617.877      134.102        0.047      348.721       28.621      859.555
07/11/2013  14:38:00     -419.266      -48.013       -4.488      175.829      175.312       77.911    30915.715    30734.293     6070.127       12.290        3.386      422.006       83.189        0.039      348.895       28.921      859.556
07/11/2013  14:39:00     -368.991      -67.934       -1.538      155.196      136.614       77.089    24085.941    18663.457     5942.772        9.472        2.435      375.192       81.628        0.047      349.259       29.553      859.539
07/11/2013  14:40:00     -561.641     -100.772      -28.797      274.132      147.422      100.386    75148.240    21733.158    10077.375       21.667        5.348      570.610      134.088        0.055      348.698       28.580      859.544
07/11/2013  14:41:00     -620.388      -96.012      -36.379      226.038      207.819      111.826    51093.155    43188.863    12504.952       25.108        5.339      627.773      110.586        0.031      348.871       28.879      859.504
07/11/2013  14:42:00     -229.252      -82.515        8.354      196.485      145.682      101.544    38606.269    21223.122    10311.275        6.477        3.507      243.650       89.303        0.134      349.230       29.502      859.513
07/11/2013  14:43:00     -182.987      -32.173       18.234      185.460      143.344       63.936    34395.273    20547.527     4087.823        4.693        2.952      185.794       77.793        0.175      349.418       29.828      859.565
07/11/2013  14:44:00     -225.344      -95.916       -7.669      148.528      162.956       71.918    22060.581    26554.814     5172.177        5.690        2.689      244.908       74.361        0.092      349.304       29.630      859.543
07/11/2013  14:45:00     -432.235     -223.215      -12.904      208.370      193.004       84.304    43418.044    37250.528     7107.178       16.228        4.389      486.469       95.358        0.038      349.076       29.237      859.535
07/11/2013  14:46:00     -295.513      -95.373       15.588      239.484      187.508       92.513    57352.656    35159.231     8558.675        9.885        5.054      310.522      116.264        0.140      349.086       29.254      859.522
07/11/2013  14:47:00     -320.710     -187.239        0.299      211.162      152.454       99.783    44589.528    23242.299     9956.579       10.784        3.889      371.366      104.890        0.080      348.854       28.849      859.511
07/11/2013  14:48:00     -236.661     -277.094        0.731      167.514      151.944       70.863    28060.862    23086.913     5021.541        9.447        2.808      364.402       58.238        0.026      348.810       28.775      859.474
07/11/2013  14:49:00     -219.541      -47.419       -3.325       98.682       79.510       51.995     9738.210     6321.905     2703.485        3.461        0.938      224.604       44.604        0.039      349.137       29.342      859.460
07/11/2013  14:50:00     -505.048     -103.478       -6.264      370.259      233.161      114.902   137091.959    54364.072    13202.522       23.520       10.233      515.539      160.357        0.097      349.257       29.549      859.456
07/11/2013  14:51:00     -444.331     -147.884       -9.588      204.520      178.170      102.022    41828.401    31744.626    10408.483       15.167        4.199      468.294       92.200        0.039      349.271       29.573      859.411
07/11/2013  14:52:00     -315.508     -258.906       30.034      299.908      230.507      134.035    89944.925    53133.374    17965.426       16.423        8.052      408.140      155.635        0.145      349.116       29.304      859.426
07/11/2013  14:53:00     -320.696     -222.125        2.647      253.822      193.529      138.657    64425.742    37453.667    19225.879       13.662        6.055      390.110      143.249        0.135      349.077       29.237      859.382
07/11/2013  14:54:00     -421.901     -251.259       -8.142      183.508      231.120      105.899    33675.134    53416.626    11214.542       16.973        4.915      491.052      105.694        0.046      348.877       28.890      859.433
07/11/2013  14:55:00     -281.432     -226.960      -16.652      203.675      163.813      102.137    41483.589    26834.561    10431.973       10.486        3.938      361.545      109.465        0.092      349.081       29.245      859.407
07/11/2013  14:56:00     -334.205     -152.527        2.920      238.473      150.637       86.433    56869.343    22691.603     7470.628       11.098        4.352      367.366      111.189        0.092      348.940       29.000      859.420
07/11/2013  14:57:00     -399.402      -91.687       -2.598      266.595      167.965       95.465    71072.967    28212.390     9113.635       13.815        5.420      409.790      117.365        0.082      349.076       29.236      859.401
07/11/2013  14:58:00     -207.602      -78.352       -7.524      131.159      114.883       61.588    17202.647    13198.185     3793.037        4.174        1.710      221.896       67.093        0.091      349.084       29.249      859.377
07/11/2013  14:59:00     -437.111       43.752      -48.457      177.205      149.828       61.721    31401.603    22448.548     3809.493       12.648        2.883      439.295       51.861        0.014      348.986       29.078      859.364
07/11/2013  15:00:00     -450.149      -28.061      -19.038      180.417      194.838       82.454    32550.119    37961.997     6798.655       14.053        3.866      451.023       67.461        0.022      349.183       29.421      859.347
07/11/2013  15:01:00     -448.915      -85.577      -15.907      213.342      126.031       76.894    45514.910    15883.688     5912.682       13.819        3.366      456.999       85.756        0.035      349.016       29.131      859.373
07/11/2013  15:02:00     -461.921     -123.457       -2.822      235.688      142.645       91.819    55548.992    20347.541     8430.648       15.646        4.216      478.135      109.604        0.053      348.944       29.007      859.354
07/11/2013  15:03:00     -429.463      -38.760      -34.518      166.311      137.649       65.844    27659.275    18947.281     4335.381       11.903        2.547      431.209       43.769        0.010      349.128       29.326      859.376
07/11/2013  15:04:00     -383.185     -137.091      -20.121      165.167      122.850       72.033    27279.985    15092.070     5188.696       10.679        2.378      406.970       70.082        0.030      349.076       29.235      859.370
07/11/2013  15:05:00     -135.227      -80.054        5.482      144.749      109.170       80.214    20952.310    11918.112     6434.232        3.201        1.965      157.146       70.505        0.201      349.409       29.814      859.403
07/11/2013  15:06:00     -358.517       11.944      -28.107      156.748      166.419       76.974    24569.964    27695.232     5924.950        9.382        2.910      358.716       83.142        0.054      349.287       29.599      859.345
07/11/2013  15:07:00     -317.802       32.159      -21.541      164.397      160.657       76.505    27026.506    25810.822     5853.000        8.058        2.935      319.425       85.905        0.072      349.104       29.282      859.332
07/11/2013  15:08:00     -426.871       70.659      -20.372      194.012      132.184       74.644    37640.558    17472.534     5571.776       12.414        3.034      432.680       79.764        0.034      349.278       29.584      859.340
07/11/2013  15:09:00     -328.572     -112.400      -18.453      188.103      150.967       73.396    35382.873    22790.928     5386.980        9.223        3.178      347.266       86.838        0.063      349.300       29.623      859.336
07/11/2013  15:10:00     -207.484       45.198       -4.671      129.317      100.168       67.990    16722.785    10033.595     4622.668        3.824        1.569      212.350       69.328        0.107      349.505       29.979      859.328
07/11/2013  15:11:00     -351.982     -199.390      -18.885      206.371      149.217       92.568    42589.078    22265.765     8568.795       11.870        3.671      404.533      105.813        0.068      349.260       29.555      859.336
07/11/2013  15:12:00     -194.995     -174.060       -7.959      178.732      151.692      102.122    31945.296    23010.566    10428.990        6.687        3.269      261.381      112.174        0.184      349.114       29.301      859.324
07/11/2013  15:13:00     -222.653     -149.451        4.685      145.779      149.801       79.540    21251.508    22440.342     6326.602        6.097        2.501      268.160       88.793        0.110      349.110       29.295      859.326
07/11/2013  15:14:00     -159.967     -106.845       18.032      165.065      120.213       71.450    27246.497    14451.057     5105.123        4.206        2.340      192.368       88.753        0.213      349.434       29.859      859.341
07/11/2013  15:15:00     -533.808      -63.681      -40.098      227.343      129.427       86.884    51684.623    16751.413     7548.888       18.328        3.799      537.593      100.991        0.035      349.117       29.307      859.306
07/11/2013  15:16:00     -436.506      -60.967      -13.460      174.660      156.575       81.620    30506.290    24515.856     6661.842       12.805        3.084      440.743       88.212        0.040      349.110       29.294      859.311
07/11/2013  15:17:00     -398.067     -198.809       -5.105      198.921      170.152       77.315    39569.425    28951.632     5977.568       13.624        3.725      444.952       84.753        0.036      349.139       29.345      859.313
07/11/2013  15:18:00     -372.892     -296.249       -6.220      208.677      147.542      104.980    43546.266    21768.722    11020.762       15.158        3.817      476.247      100.002        0.044      348.893       28.918      859.290
07/11/2013  15:19:00     -271.909      -75.887        3.591      221.657      179.167       99.276    49131.907    32100.952     9855.747        8.538        4.554      282.300      111.884        0.157      349.204       29.455      859.232
07/11/2013  15:20:00     -370.888     -213.163       21.176      196.157      136.627       95.512    38477.438    18666.936     9122.559       12.484        3.313      427.781      103.525        0.059      349.028       29.151      859.250
07/11/2013  15:21:00     -326.161     -281.282      -10.658      204.440      132.656       95.126    41795.856    17597.674     9048.932       12.701        3.422      430.697      103.149        0.057      349.124       29.318      859.259
07/11/2013  15:22:00     -345.922     -269.073        3.234      238.493      187.560      100.808    56878.808    35178.693    10162.177       14.713        5.111      438.249      118.376        0.073      348.889       28.910      859.255
07/11/2013  15:23:00     -348.807     -186.160       -3.744      157.042      147.897       90.641    24662.334    21873.482     8215.801       10.553        2.738      395.375       90.860        0.053      348.904       28.937      859.214
07/11/2013  15:24:00     -276.370      -38.037       16.747      210.101      119.063       86.686    44142.429    14175.956     7514.454        7.196        3.292      278.975       98.782        0.125      349.317       29.652      859.225
07/11/2013  15:25:00     -418.707     -171.091      -22.807      240.499      152.689       84.640    57839.657    23313.921     7163.925       14.670        4.416      452.314       94.329        0.043      348.912       28.950      859.220
07/11/2013  15:26:00     -194.338     -157.755       -9.334      210.189      157.712       84.102    44179.381    24873.056     7073.126        6.942        3.806      250.308       92.007        0.135      349.237       29.516      859.215
07/11/2013  15:27:00     -271.711     -190.511        4.261      201.690      206.041      106.965    40678.898    42452.725    11441.554       10.234        4.729      331.845      108.130        0.106      349.126       29.323      859.226
07/11/2013  15:28:00     -349.730     -276.733      -11.751      214.935      173.664      101.999    46197.245    30159.052    10403.832       14.288        4.338      445.973      104.652        0.055      348.830       28.810      859.240
07/11/2013  15:29:00     -279.895     -156.759       -4.559      151.330      128.827       79.711    22900.882    16596.412     6353.789        7.438        2.293      320.802       86.307        0.072      348.840       28.826      859.217
07/11/2013  15:30:00     -319.624     -224.683      -19.552      185.065       98.474       69.300    34249.001     9697.073     4802.469       10.088        2.437      390.694       77.075        0.039      348.971       29.052      859.197
07/11/2013  15:31:00     -354.990     -141.187        0.044      137.284      126.973       65.333    18846.860    16122.222     4268.341        9.259        1.962      382.036       63.795        0.028      349.038       29.169      859.209
07/11/2013  15:32:00     -462.024      -30.146      -16.257      209.550      203.347       85.492    43911.109    41349.964     7308.822       15.359        4.628      463.006       86.322        0.035      348.967       29.047      859.195
07/11/2013  15:33:00     -292.323     -149.846        1.823      151.271      126.281       64.831    22883.059    15946.947     4203.092        7.546        2.152      328.492       70.488        0.046      349.063       29.214      859.190
07/11/2013  15:34:00     -248.228     -228.064      -14.158      182.103      160.775       94.149    33161.392    25848.476     8863.983        9.084        3.394      337.091       75.655        0.050      349.045       29.182      859.190
07/11/2013  15:35:00     -266.420     -334.973      -28.310      126.701      170.216       68.316    16053.051    28973.464     4667.095       11.683        2.485      428.003       57.322        0.018      348.949       29.014      859.175
07/11/2013  15:36:00     -446.332     -342.936      -17.840      234.218      194.517      105.217    54858.289    37836.733    11070.675       21.043        5.188      562.865       97.252        0.030      348.941       29.002      859.133
07/11/2013  15:37:00     -346.796     -197.040      -10.986      162.883      196.003       84.942    26531.033    38417.015     7215.084       11.567        3.608      398.864       97.064        0.059      349.031       29.157      859.133
07/11/2013  15:38:00     -353.153     -325.941       11.199      293.698      262.290       98.838    86258.291    68796.076     9768.937       19.792        8.241      480.577      122.124        0.065      348.948       29.014      859.118
07/11/2013  15:39:00     -527.108     -334.656       -7.643      249.930      197.662      114.460    62465.211    39070.451    13101.157       25.224        5.732      624.370      115.190        0.034      348.681       28.550      859.127
07/11/2013  15:40:00     -512.049     -418.228      -14.568      227.353      183.290      128.604    51689.307    33595.143    16539.100       26.955        5.091      661.142      125.764        0.036      348.475       28.193      859.139
07/11/2013  15:41:00     -365.873     -166.270      -15.730      251.033      215.964      105.253    63017.415    46640.626    11078.290       14.122        6.037      401.881      133.128        0.110      348.755       28.679      859.113
07/11/2013  15:42:00     -395.617     -265.345      -18.826      282.823      152.696      110.641    79988.635    23315.944    12241.474       17.139        5.777      476.362      139.281        0.085      348.834       28.816      859.096
07/11/2013  15:43:00     -484.317      -30.325      -36.488      232.832      163.244      101.215    54210.598    26648.588    10244.516       16.394        4.555      485.266      106.927        0.049      348.890       28.915      859.124
07/11/2013  15:44:00     -544.235     -106.691       -9.652      227.885      164.503       81.153    51931.687    27061.290     6585.852       19.661        4.279      554.594       96.449        0.030      348.764       28.694      859.144
07/11/2013  15:45:00     -334.967      -38.697        0.659      210.403      116.017       78.444    44269.329    13460.031     6153.466        8.878        3.194      337.195      102.352        0.092      348.769       28.704      859.109
07/11/2013  15:46:00     -290.500     -109.955      -21.835      120.377      110.454       67.569    14490.583    12200.187     4565.514        6.410        1.563      310.613       57.571        0.034      348.982       29.072      859.098
07/11/2013  15:47:00     -254.604      -88.055      -15.245      152.940      155.907       63.506    23390.697    24307.128     4032.961        6.226        2.587      269.401       69.831        0.067      349.117       29.305      859.104
07/11/2013  15:48:00     -487.977       15.617       -9.543      307.927      200.348      112.306    94819.262    40139.515    12612.718       19.298        7.379      488.227      153.742        0.099      349.035       29.165      859.070
07/11/2013  15:49:00     -328.769     -302.339       -2.104      259.189      177.630      121.703    67179.032    31552.312    14811.698       15.650        5.677      446.652      144.490        0.105      348.780       28.721      859.092
07/11/2013  15:50:00     -430.823      -88.976      -24.778      220.639      192.206       86.067    48681.505    36943.245     7407.450       14.357        4.652      439.915       89.445        0.041      348.857       28.857      859.071
07/11/2013  15:51:00     -501.997     -235.090        6.935      307.497      201.354      107.465    94554.593    40543.334    11548.770       22.695        7.332      554.318      134.361        0.059      348.861       28.862      859.055
07/11/2013  15:52:00     -344.538     -239.308      -11.227      193.882      201.658       94.701    37590.096    40665.805     8968.227       13.165        4.361      419.494       98.488        0.055      348.912       28.951      859.086
07/11/2013  15:53:00     -302.968     -145.016       -1.220      214.413      191.180       95.472    45973.108    36549.977     9114.842       10.221        4.582      335.886      100.298        0.089      349.010       29.121      859.084
07/11/2013  15:54:00     -292.891      -65.080        0.130      213.106      154.391       89.320    45414.103    23836.577     7978.083        8.361        3.861      300.034       96.960        0.104      349.006       29.114      859.097
07/11/2013  15:55:00     -246.622     -153.518       -1.148      158.544      145.400       70.391    25136.211    21141.056     4954.882        6.780        2.562      290.499       57.114        0.039      348.932       28.986      859.088
07/11/2013  15:56:00     -441.512     -314.420      -18.298      211.201      185.535       93.037    44606.051    34423.182     8655.877       19.089        4.384      542.026       95.890        0.031      348.650       28.496      859.050
07/11/2013  15:57:00     -258.686     -178.415        4.503      165.913      175.621       64.267    27527.229    30842.589     4130.304        8.062        3.125      314.246       64.443        0.042      348.913       28.953      859.039
07/11/2013  15:58:00     -355.638     -329.155       -1.733      237.395      196.199       99.663    56356.438    38493.941     9932.768       16.978        5.239      484.584      112.326        0.054      348.696       28.576      859.036
07/11/2013  15:59:00     -476.812     -362.188       -7.520      251.473      174.658      117.695    63238.795    30505.563    13852.066       23.307        5.380      598.773      115.918        0.037      348.602       28.415      859.036
07/11/2013  16:00:00     -330.509     -222.352      -10.367      189.581      132.695       74.702    35940.807    17608.002     5580.443       10.894        2.956      398.342       85.198        0.046      348.533       28.295      859.057
07/11/2013  16:01:00     -200.069     -119.820       -0.404      163.516      129.590       87.513    26737.438    16793.609     7658.475        5.278        2.559      233.205       84.509        0.131      348.785       28.731      859.025
07/11/2013  16:02:00     -309.840     -224.382        8.483      216.041      152.509       83.525    46673.547    23258.954     6976.493       11.165        3.845      382.555      104.204        0.074      348.767       28.700      859.020
07/11/2013  16:03:00     -252.296      -77.620        2.396      142.864      167.356       86.169    20410.011    28008.081     7425.108        6.275        2.792      263.967       79.755        0.091      349.004       29.110      858.979
07/11/2013  16:04:00     -412.262     -184.337        8.350      234.826      207.341       96.986    55143.328    42990.238     9406.231       15.575        5.377      451.597       97.748        0.047      349.014       29.127      858.982
07/11/2013  16:05:00     -220.343     -225.552        2.714      148.343      146.983       88.201    22005.584    21603.995     7779.458        7.540        2.569      315.317       72.219        0.052      348.953       29.020      859.015
07/11/2013  16:06:00     -422.845     -336.247        1.341      253.675      151.544      103.946    64350.781    22965.453    10804.690       19.497        4.906      540.240      112.711        0.044      348.757       28.682      859.000
07/11/2013  16:07:00     -344.056     -273.801      -14.234      173.611      141.514       89.104    30140.671    20026.351     7939.573       12.581        2.905      439.706       86.315        0.039      348.515       28.265      859.000
07/11/2013  16:08:00     -317.998      -80.910       -5.025      190.042      154.417       58.489    36115.920    23844.606     3420.956        8.553        3.169      328.130       58.760        0.032      348.825       28.800      858.998
07/11/2013  16:09:00     -139.322     -126.822       13.244      139.585      124.117       84.642    19484.009    15404.937     7164.221        3.885        2.103      188.399       89.106        0.224      348.943       29.007      858.936
07/11/2013  16:10:00     -135.490      -65.428        7.257      130.533      150.673       59.234    17038.786    22702.263     3508.702        3.296        2.162      150.461       61.029        0.165      349.143       29.353      858.924
07/11/2013  16:11:00     -349.919     -229.812       -5.600      232.834      144.471       76.973    54211.698    20871.776     5924.808       12.813        4.050      418.637       83.374        0.040      349.023       29.143      858.930
07/11/2013  16:12:00     -337.575     -150.532      -20.081      181.283      158.548       77.733    32863.640    25137.519     6042.362       10.052        3.202      369.617       66.922        0.033      348.916       28.959      858.926
07/11/2013  16:13:00     -332.071     -136.128        0.838      186.502      137.761       86.079    34782.849    18978.208     7409.579        9.497        3.059      358.890       87.166        0.059      348.914       28.954      858.907
07/11/2013  16:14:00     -458.250     -149.754        1.277      247.595      175.654      100.334    61303.271    30854.457    10066.932       16.730        5.111      482.099      108.971        0.051      348.946       29.009      858.883
07/11/2013  16:15:00     -375.553     -227.419        3.896      262.420      209.263       95.893    68864.372    43790.846     9195.477       15.729        6.093      439.044      100.658        0.053      349.023       29.144      858.889
07/11/2013  16:16:00     -430.257     -304.895       19.852      298.125      193.831      120.128    88878.616    37570.318    14430.717       20.965        7.044      527.335      144.764        0.075      348.961       29.035      858.920
07/11/2013  16:17:00     -585.554     -292.060      -17.326      300.434      233.606      125.581    90260.305    54571.647    15770.496       29.450        8.030      654.349      157.910        0.058      348.780       28.722      858.931
07/11/2013  16:18:00     -421.953     -226.848      -14.422      254.353      185.022       96.490    64695.397    34232.965     9310.266       16.895        5.412      479.066      120.648        0.063      348.722       28.623      858.932
07/11/2013  16:19:00     -421.357     -158.925        0.770      217.428      165.865       95.496    47274.881    27511.183     9119.532       14.334        4.195      450.332       94.891        0.044      348.841       28.829      858.913
07/11/2013  16:20:00     -365.999     -179.389       -6.951      197.022      173.564       82.678    38817.852    30124.308     6835.630       12.097        3.789      407.597       73.815        0.033      348.757       28.684      858.917
07/11/2013  16:21:00     -388.980     -134.080      -13.138      195.666      181.214       87.586    38285.095    32838.557     7671.224       12.411        3.940      411.440       89.319        0.047      348.763       28.693      858.914
07/11/2013  16:22:00     -314.537     -320.229      -11.243      143.823      198.289       85.402    20684.940    39318.592     7293.571       13.444        3.365      448.865       79.528        0.031      348.740       28.654      858.904
07/11/2013  16:23:00     -411.717     -257.630       -0.656      219.155      161.839       88.754    48028.759    26191.820     7877.236       15.897        4.105      485.679      106.678        0.048      348.737       28.649      858.863
07/11/2013  16:24:00     -445.474     -276.318      -23.075      182.552      146.434       88.764    33325.330    21442.943     7879.032       16.898        3.132      524.213      100.811        0.037      348.728       28.633      858.848
07/11/2013  16:25:00     -267.194     -224.629       -5.958      178.068      209.494       93.064    31708.163    43887.872     8660.970       10.305        4.213      349.071       80.842        0.054      348.826       28.802      858.834
07/11/2013  16:26:00     -422.275     -304.372      -25.599      210.435      218.220      104.642    44282.872    47619.897    10949.950       18.721        5.143      520.537      119.201        0.052      348.813       28.781      858.840
07/11/2013  16:27:00     -232.629     -121.482       13.101      280.265      171.633       96.067    78548.421    29457.800     9228.954        9.312        5.862      262.439      141.716        0.292      348.864       28.869      858.865
07/11/2013  16:28:00     -240.298      -48.418       15.111      145.658      143.407       74.776    21216.221    20565.634     5591.396        5.383        2.369      245.127       75.361        0.095      349.115       29.303      858.817
07/11/2013  16:29:00     -358.006      -92.018      -12.407      171.333      129.462       73.224    29354.961    16760.452     5361.811        9.412        2.574      369.643       66.782        0.033      349.157       29.375      858.807
07/11/2013  16:30:00     -266.836      -41.748       12.040      193.444      187.387       84.633    37420.594    35113.897     7162.773        7.638        3.985      270.082       94.443        0.122      349.230       29.501      858.804
07/11/2013  16:31:00     -258.242     -237.988        0.822      187.412      185.594       92.472    35123.207    34445.251     8551.161       10.071        3.906      351.180       71.193        0.041      348.953       29.022      858.778
07/11/2013  16:32:00     -357.841     -205.616       -7.020      206.010      179.837       97.192    42439.921    32341.379     9446.344       12.729        4.211      412.708      104.297        0.064      348.917       28.959      858.771
07/11/2013  16:33:00     -381.010     -249.134        2.191      251.592      139.924      106.297    63298.425    19578.664    11298.954       15.069        4.709      455.232      116.843        0.066      348.973       29.056      858.766
07/11/2013  16:34:00     -434.740     -164.227       -1.352      245.010      180.169      102.919    60030.133    32460.697    10592.341       15.951        5.154      464.726      116.539        0.063      348.908       28.944      858.791
07/11/2013  16:35:00     -320.530     -284.465       -0.259      183.592      157.803       97.702    33705.858    24901.686     9545.757       12.589        3.408      428.555       98.105        0.052      348.714       28.608      858.775
07/11/2013  16:36:00     -472.445     -370.868      -26.207      226.020      130.536       91.731    51085.235    17039.711     8414.642       21.897        3.827      600.622       92.642        0.024      348.683       28.554      858.730
07/11/2013  16:37:00     -383.781     -255.904      -11.297      221.301      161.432       99.611    48973.923    26060.234     9922.347       14.891        4.248      461.275      113.534        0.061      348.754       28.678      858.736
07/11/2013  16:38:00     -472.000     -246.563       -5.343      308.463      166.969      112.395    95149.285    27878.551    12632.689       20.961        6.783      532.519      142.077        0.071      348.675       28.540      858.720
07/11/2013  16:39:00     -423.905     -322.230        0.975      267.294      191.060      114.206    71445.965    36503.737    13042.935       20.224        6.050      532.473      138.455        0.068      348.542       28.312      858.709
07/11/2013  16:40:00     -404.641     -315.513       -1.476      206.695      168.379       97.568    42722.803    28351.641     9519.578       17.192        4.030      513.111      105.998        0.043      348.677       28.544      858.679
07/11/2013  16:41:00     -310.351     -118.814        1.785      236.747      176.270       99.974    56049.047    31070.957     9994.765       10.376        4.856      332.317      118.157        0.126      348.867       28.873      858.683
07/11/2013  16:42:00     -527.807     -260.741      -13.440      269.633      249.615      109.278    72702.144    62307.435    11941.790       24.682        7.348      588.699      126.750        0.046      348.732       28.640      858.634
07/11/2013  16:43:00     -540.619     -143.871       -3.568      281.319      234.015      113.346    79140.403    54762.930    12847.212       22.984        7.338      559.435      134.176        0.058      348.704       28.590      858.636
07/11/2013  16:44:00     -491.308     -201.050      -38.282      143.996      141.807       88.015    20734.906    20109.314     7746.721       16.592        2.430      530.853       77.042        0.021      348.678       28.546      858.670
07/11/2013  16:45:00     -381.149      -82.304       -3.969      167.429      130.284       81.405    28032.497    16973.876     6626.840       10.184        2.582      389.934       73.487        0.036      348.773       28.709      858.657
07/11/2013  16:46:00     -299.489      -74.425        1.862      199.760      179.326       90.525    39903.874    32157.698     8194.814        8.773        4.013      308.598       86.163        0.078      349.029       29.155      858.670
07/11/2013  16:47:00     -354.340     -117.953       -4.603      199.018      165.426       97.197    39608.239    27365.702     9447.303       10.794        3.821      373.457       99.956        0.072      349.075       29.233      858.677
07/11/2013  16:48:00     -470.599      -65.427      -28.964      178.445      182.974       89.649    31842.674    33479.552     8037.013       14.996        3.668      475.126       83.447        0.031      348.956       29.027      858.708
07/11/2013  16:49:00     -303.205      -75.146       -9.576      179.724       89.304       70.007    32300.701     7975.166     4900.936        7.142        2.259      312.379       68.339        0.048      348.946       29.011      858.675
07/11/2013  16:50:00     -228.705     -223.972        3.505      197.453      152.833       94.597    38987.683    23357.790     8948.520        8.687        3.565      320.108       95.959        0.090      349.091       29.262      858.676
07/11/2013  16:51:00     -502.247     -381.786        1.354      308.758      269.322      131.739    95331.497    72534.161    17355.109       29.158        9.261      630.882      154.121        0.060      348.727       28.629      858.642
07/11/2013  16:52:00     -471.867     -283.799       -8.242      255.526      183.649      121.113    65293.733    33726.995    14668.402       20.846        5.684      550.636      121.382        0.049      348.668       28.530      858.620
07/11/2013  16:53:00     -539.103     -367.650       -1.871      275.631      185.451      119.070    75972.370    34392.065    14177.606       27.515        6.227      652.532      124.903        0.037      348.676       28.540      858.587
07/11/2013  16:54:00     -460.600     -359.743      -15.249      283.432      214.293      120.698    80333.634    45921.320    14567.976       24.128        7.041      584.438      137.419        0.055      348.762       28.690      858.604
07/11/2013  16:55:00     -287.929      -91.645        5.587      211.867      133.188       83.559    44887.668    17738.951     6982.047        8.046        3.480      302.162      100.277        0.110      348.912       28.951      858.667
07/11/2013  16:56:00     -243.863     -128.077        0.010      168.620      128.386       79.490    28432.585    16482.919     6318.668        6.354        2.562      275.450       85.797        0.097      349.054       29.197      858.657
07/11/2013  16:57:00     -311.395     -267.415        5.298      235.906      176.311      101.302    55651.836    31085.558    10262.052       13.273        4.850      410.460      104.266        0.065      348.815       28.783      858.628
07/11/2013  16:58:00     -308.295     -161.096        8.466      210.680      163.658      106.668    44386.095    26783.891    11378.024       10.179        4.127      347.847      124.982        0.129      348.846       28.837      858.605
07/11/2013  16:59:00     -262.443     -101.144       16.133      292.152      153.218      112.842    85352.640    23475.748    12733.318       10.044        6.078      281.259      149.277        0.282      348.883       28.901      858.592
07/11/2013  17:00:00     -410.397      -98.804      -13.742      182.470      129.313       72.921    33295.217    16721.878     5317.484       11.684        2.767      422.124       68.225        0.026      348.799       28.756      858.570
07/11/2013  17:01:00     -346.194     -182.848       -9.280      189.974      193.590       85.110    36090.142    37477.250     7243.743       11.707        4.041      391.514       92.396        0.056      348.907       28.941      858.568
07/11/2013  17:02:00     -297.778     -164.488        6.109      205.240      125.069       86.368    42123.351    15642.132     7459.381        9.048        3.261      340.188      101.835        0.090      348.892       28.917      858.576
07/11/2013  17:03:00     -312.172     -247.385        2.908      231.963      224.157      108.813    53806.642    50246.467    11840.174       13.725        5.795      398.310      112.119        0.079      348.921       28.967      858.536
07/11/2013  17:04:00     -401.552     -261.701       -9.668      251.987      197.078      107.332    63497.484    38839.668    11520.260       17.182        5.693      479.303      123.712        0.067      348.914       28.954      858.539
07/11/2013  17:05:00     -314.379     -135.618      -10.081      259.025      149.538      102.184    67094.147    22361.543    10441.541       10.859        4.995      342.384       66.950        0.038      349.056       29.201      858.528
07/11/2013  17:06:00     -469.893     -255.680        0.949      256.108      204.580      108.559    65591.288    41852.856    11784.964       20.268        5.961      534.950      130.870        0.060      348.746       28.665      858.521
07/11/2013  17:07:00     -526.513     -319.007      -12.722      208.724      188.160       98.251    43565.642    35404.110     9653.185       23.387        4.431      615.614       98.702        0.026      348.755       28.678      858.527
07/11/2013  17:08:00     -233.940     -154.216       24.829      216.652      157.502       97.072    46938.194    24806.747     9422.909        8.013        4.058      280.197      105.621        0.142      348.885       28.905      858.531
07/11/2013  17:09:00     -219.514     -145.669        0.997      152.593      165.962       76.254    23284.625    27543.456     5814.700        6.301        2.832      263.450       82.671        0.098      349.024       29.145      858.522
07/11/2013  17:10:00     -490.478     -190.453      -36.900      272.515      166.071      109.124    74264.192    27579.716    11908.152       19.595        5.688      526.157      102.677        0.038      348.890       28.913      858.522
07/11/2013  17:11:00     -587.726     -168.133       -8.590      283.788      218.919      104.058    80535.680    47925.375    10827.974       25.650        6.964      611.303      121.860        0.040      348.722       28.623      858.496
07/11/2013  17:12:00     -311.483     -117.020       -7.184      183.761      187.669       80.913    33767.945    35219.628     6546.942        9.314        3.777      332.739       83.086        0.062      348.852       28.848      858.489
07/11/2013  17:13:00     -354.468     -174.192      -15.164      155.992      117.550       72.882    24333.421    13818.072     5311.855        9.983        2.173      394.956       71.148        0.032      349.035       29.163      858.497
07/11/2013  17:14:00     -736.359     -429.925      -24.151      350.711      276.211      120.138   122998.481    76292.603    14433.101       47.064       10.686      852.679      151.375        0.032      348.564       28.349      858.443
07/11/2013  17:15:00     -582.527     -189.451      -18.002      331.185      193.800      116.280   109683.624    37558.566    13520.993       26.813        8.038      612.560      142.075        0.054      348.650       28.497      858.453
07/11/2013  17:16:00     -518.676     -356.195        2.837      252.504      220.147      125.869    63758.487    48464.628    15842.936       26.196        6.403      629.206      124.829        0.039      348.628       28.460      858.439
07/11/2013  17:17:00     -548.209     -365.155      -17.219      242.040      198.912      121.653    58583.502    39566.096    14799.536       27.354        5.647      658.689      131.546        0.040      348.617       28.441      858.439
07/11/2013  17:18:00     -495.712     -397.735       -8.662      303.792      227.955      129.032    92289.857    51963.438    16649.271       28.242        8.045      635.549      146.715        0.053      348.529       28.288      858.431
07/11/2013  17:19:00     -540.834     -403.186        7.509      280.907      225.863      127.033    78908.869    51013.942    16137.351       30.056        7.303      674.582      146.476        0.047      348.524       28.279      858.437
07/11/2013  17:20:00     -515.724     -434.457      -12.048      258.854      220.368      122.706    67005.606    48562.158    15056.868       29.272        6.531      674.332      129.313        0.037      348.552       28.327      858.436
07/11/2013  17:21:00     -426.674     -227.420      -16.922      219.966      198.732      102.374    48385.054    39494.344    10480.491       16.619        4.918      483.498      103.775        0.046      348.700       28.586      858.465
07/11/2013  17:22:00     -456.948     -351.744      -29.822      276.493      209.445      122.871    76448.302    43867.162    15097.280       23.439        6.771      576.650      130.658        0.051      348.506       28.247      858.467
07/11/2013  17:23:00     -440.655     -271.167      -28.201      193.685      211.374      102.381    37514.045    44678.971    10481.891       18.057        4.634      517.405      108.971        0.044      348.539       28.307      858.477
07/11/2013  17:24:00     -339.290     -286.165        6.600      189.958      167.341      102.945    36083.879    28002.974    10597.763       13.585        3.734      443.856      109.889        0.061      348.648       28.494      858.464
07/11/2013  17:25:00     -245.918     -199.874       12.657      196.054      174.445       96.671    38437.229    30431.232     9345.234        8.938        3.911      316.900       99.881        0.099      348.776       28.714      858.464
07/11/2013  17:26:00     -401.650     -285.032       -0.125      229.983      151.085      114.240    52892.165    22826.577    13050.892       16.565        4.438      492.510      134.242        0.074      348.730       28.636      858.443
07/11/2013  17:27:00     -331.864     -265.408        0.918      158.069      121.358       89.997    24985.707    14727.867     8099.526       11.419        2.391      424.941       82.453        0.038      348.758       28.685      858.463
07/11/2013  17:28:00     -381.332     -333.975        8.001      222.042      239.884      122.801    49302.870    57544.515    15080.073       18.945        6.096      506.905      136.717        0.073      348.720       28.617      858.453
07/11/2013  17:29:00     -519.696     -349.709      -12.235      242.522      219.219      115.936    58816.895    48057.096    13441.186       25.640        6.016      626.403      125.958        0.040      348.594       28.401      858.421
07/11/2013  17:30:00     -153.746     -124.671       22.932      191.500      152.598      111.305    36672.062    23286.261    12388.782        5.601        3.617      197.941      105.911        0.286      348.843       28.833      858.438
07/11/2013  17:31:00     -237.901      -70.853        1.965      176.874      138.374       77.932    31284.426    19147.231     6073.352        5.905        2.825      248.228       88.987        0.129      348.857       28.857      858.459
07/11/2013  17:32:00     -262.135      -55.238        2.733      165.614      107.583       79.954    27428.110    11574.147     6392.574        5.858        2.270      267.892       95.307        0.127      348.793       28.744      858.440
07/11/2013  17:33:00     -260.303      -75.580        3.562      227.329      127.905       80.810    51678.509    16359.769     6530.222        7.401        3.728      271.053      103.940        0.147      348.855       28.854      858.391
07/11/2013  17:34:00     -322.954      -74.422       -1.695      218.278      157.061       87.657    47645.491    24668.032     7683.813        9.490        4.000      331.418       88.217        0.071      348.904       28.937      858.449
07/11/2013  17:35:00     -379.745     -313.452      -21.349      236.062      137.179      108.279    55725.445    18818.088    11724.296       16.457        4.313      492.401      123.060        0.062      348.711       28.603      858.457
07/11/2013  17:36:00     -471.048     -164.574      -27.279      307.763      242.576      106.518    94718.309    58843.135    11346.076       20.728        8.245      498.969      113.723        0.052      348.666       28.526      858.466
07/11/2013  17:37:00     -385.074     -369.903       -5.822      230.964      212.207      120.598    53344.573    45031.659    14543.964       19.901        5.646      533.957      133.999        0.063      348.620       28.446      858.475
07/11/2013  17:38:00     -474.172     -343.394       -6.723      296.286      225.808      136.604    87785.436    50989.216    18660.625       25.009        7.872      585.456      155.775        0.071      348.547       28.319      858.457
07/11/2013  17:39:00     -604.796     -323.840      -23.999      240.469      244.499      122.142    57825.260    59779.553    14918.659       30.185        6.626      686.040      131.391        0.037      348.443       28.140      858.479
07/11/2013  17:40:00     -554.195     -290.688       -0.288      272.680      231.997      121.930    74354.271    53822.478    14866.809       26.731        7.152      625.805      137.295        0.048      348.405       28.074      858.476
07/11/2013  17:41:00     -414.238     -237.006      -33.329      221.657      244.167       99.403    49131.700    59617.625     9880.943       17.373        5.932      477.247      102.745        0.046      348.570       28.359      858.493
07/11/2013  17:42:00     -258.245     -134.168       22.123      198.238      151.058       89.998    39298.388    22818.452     8099.609        7.768        3.511      291.018       98.057        0.114      348.754       28.677      858.511
07/11/2013  17:43:00     -323.802      -96.042       -8.839      164.840      168.681       77.922    27172.230    28453.189     6071.871        8.791        3.085      337.745       78.839        0.054      348.688       28.563      858.531
07/11/2013  17:44:00     -296.567     -170.694        0.101      186.121      149.161       80.793    34641.050    22248.966     6527.522        9.024        3.171      342.182       85.831        0.063      348.548       28.320      858.498
07/11/2013  17:45:00     -173.355      -64.645       13.199      217.191      150.253       80.474    47171.727    22575.979     6476.005        5.530        3.811      185.016      101.845        0.303      348.733       28.642      858.515
07/11/2013  17:46:00     -547.319      -41.922      -30.738      245.350      169.540       88.918    60196.579    28743.696     7906.368       19.953        4.842      548.922      101.208        0.034      348.577       28.372      858.522
07/11/2013  17:47:00     -454.574      -85.940       -4.626      215.251      184.317       99.799    46332.884    33972.827     9959.774       15.214        4.513      462.627      113.075        0.060      348.652       28.499      858.542
07/11/2013  17:48:00     -310.640     -117.677       -6.136      202.334      213.405       91.991    40939.141    45541.842     8462.285       10.264        4.747      332.182       92.278        0.077      348.731       28.638      858.556
07/11/2013  17:49:00     -214.240     -137.617        3.422      182.210      128.862       77.019    33200.657    16605.460     5931.929        6.028        2.787      254.631       94.031        0.136      348.787       28.736      858.566
07/11/2013  17:50:00     -224.421     -169.325       21.359      213.617      120.637       85.801    45632.267    14553.193     7361.846        7.351        3.377      281.133       93.093        0.110      348.673       28.537      858.582
07/11/2013  17:51:00     -471.419     -166.802      -27.314      215.194      184.467       88.982    46308.312    34028.166     7917.856       16.951        4.413      500.058       98.767        0.039      348.476       28.196      858.577
07/11/2013  17:52:00     -287.371     -137.747       -7.183      203.415      192.048       98.911    41377.676    36882.564     9783.425        9.481        4.402      318.680       87.681        0.076      348.670       28.532      858.555
07/11/2013  17:53:00     -227.673     -161.816        9.424      235.915      114.188       75.278    55655.732    13038.881     5666.765        7.622        3.718      279.320       99.331        0.126      348.746       28.665      858.572
07/11/2013  17:54:00     -496.939     -411.085       -0.836      355.600      233.501      130.365   126451.537    54522.882    16995.007       30.692        9.898      644.934      153.518        0.057      348.375       28.021      858.543
07/11/2013  17:55:00     -524.688     -352.238      -11.006      273.315      241.122      125.740    74700.914    58140.039    15810.646       27.404        7.433      631.957      154.211        0.060      348.354       27.986      858.559
07/11/2013  17:56:00     -275.145     -156.523        3.987      188.366      129.919       83.277    35481.587    16878.935     6935.122        7.975        2.965      316.550       92.021        0.085      348.526       28.283      858.580
07/11/2013  17:57:00     -220.382     -250.979        2.188      275.093      192.621       93.339    75676.115    37102.754     8712.139       11.650        6.075      334.004      125.938        0.142      348.568       28.355      858.616
07/11/2013  17:58:00     -293.333     -209.467        0.590      198.164      181.904      106.645    39268.975    33089.238    11373.119       10.681        4.187      360.445      113.506        0.099      348.503       28.243      858.617
07/11/2013  17:59:00     -458.180     -218.812      -39.236      213.042      148.765       83.042    45386.702    22130.951     6896.042       16.687        3.721      507.748       83.177        0.027      348.347       27.973      858.630
07/11/2013  18:00:00     -280.526     -159.191       17.814      193.161      147.834       82.756    37311.148    21854.950     6848.567        8.517        3.301      322.547      101.778        0.100      348.470       28.187      858.635
07/11/2013  18:01:00     -408.290     -247.470        0.435      222.929      174.378       99.350    49697.290    30407.667     9870.395       15.894        4.499      477.433      104.854        0.048      348.386       28.039      858.637
07/11/2013  18:02:00     -552.118     -270.645      -50.176      253.724      198.063       97.513    64375.792    39229.144     9508.727       24.683        5.656      614.884      102.855        0.028      348.344       27.969      858.626
07/11/2013  18:03:00     -520.893     -246.502      -36.525      221.194      237.277      120.142    48926.700    56300.263    14434.095       22.652        5.983      576.274      125.689        0.048      348.272       27.842      858.630
07/11/2013  18:04:00     -339.706     -190.387       -3.494      195.961      147.558       86.194    38400.851    21773.284     7429.333       10.962        3.380      389.419      102.790        0.070      348.385       28.039      858.659
07/11/2013  18:05:00     -345.920     -138.647       -8.359      235.853      150.387       98.320    55626.720    22616.106     9666.782       11.341        4.395      372.671      100.020        0.072      348.443       28.140      858.680
07/11/2013  18:06:00     -509.599     -357.460      -22.043      225.989      189.414      114.153    51071.135    35877.740    13030.796       24.395        4.999      622.470      124.017        0.040      348.213       27.741      858.648
07/11/2013  18:07:00     -260.730     -219.322        4.551      238.145      169.423       91.700    56713.116    28704.288     8408.919       10.495        4.691      340.709      113.745        0.111      348.306       27.902      858.636
07/11/2013  18:08:00     -367.793     -281.997        0.221      202.886      165.759       92.327    41162.756    27476.178     8524.360       14.596        3.858      463.458      109.753        0.056      348.342       27.963      858.652
07/11/2013  18:09:00     -482.779     -360.661       -1.815      214.633      229.302      105.046    46067.183    52579.391    11034.698       23.640        5.484      602.621      102.742        0.029      348.268       27.836      858.627
07/11/2013  18:10:00     -476.961     -271.587        8.037      271.060      192.686      110.941    73473.364    37128.083    12307.895       21.209        6.145      548.863      137.134        0.062      348.257       27.818      858.630
07/11/2013  18:11:00     -231.291     -350.766        4.095      166.356      194.173       96.813    27674.227    37703.098     9372.803       12.564        3.738      420.158       79.859        0.036      348.327       27.938      858.622
07/11/2013  18:12:00     -558.075     -369.059      -15.553      258.676      201.533      112.916    66913.026    40615.465    12750.004       28.406        6.014      669.069      120.188        0.032      348.223       27.757      858.573
07/11/2013  18:13:00     -474.480     -241.323       -8.303      232.915      173.037      113.042    54249.336    29941.809    12778.387       19.018        4.848      532.324      130.216        0.060      348.291       27.875      858.614
07/11/2013  18:14:00     -428.003     -246.739       -3.249      258.219      210.278      106.133    66677.160    44216.802    11264.197       18.309        6.108      494.031      116.099        0.055      348.239       27.787      858.627
07/11/2013  18:15:00     -421.682     -360.309       -5.986      237.491      170.058      111.127    56401.811    28919.891    12349.170       20.265        4.884      554.652      127.748        0.053      348.265       27.831      858.627
07/11/2013  18:16:00     -383.918     -270.683      -13.074      225.150      135.621       79.491    50692.316    18392.998     6318.871       14.810        3.770      469.747       76.853        0.027      348.303       27.898      858.638
07/11/2013  18:17:00     -317.735     -190.755       -7.750      221.471      144.916       84.627    49049.269    21000.518     7161.799       10.729        3.861      370.598       92.358        0.062      348.315       27.919      858.658
07/11/2013  18:18:00     -334.503     -258.894        4.235      276.734      201.528      104.309    76581.781    40613.451    10880.469       15.348        6.404      422.988      142.472        0.113      348.336       27.954      858.652
07/11/2013  18:19:00     -529.572     -141.378      -20.423      192.526      232.455      114.434    37066.402    54035.302    13095.208       20.250        5.210      548.119      117.724        0.046      348.240       27.788      858.621
07/11/2013  18:20:00     -414.644     -149.341      -27.345      173.801      149.843       77.080    30206.672    22452.945     5941.295       12.678        2.930      440.718       72.724        0.027      348.305       27.900      858.655
07/11/2013  18:21:00     -375.155     -165.008       -6.604      218.975      159.576       92.361    47950.063    25464.631     8530.580       12.496        4.097      409.840      104.992        0.066      348.342       27.965      858.655
07/11/2013  18:22:00     -429.443     -182.874       -7.167      199.922      208.592       92.369    39968.903    43510.711     8532.069       15.495        4.601      466.759       95.380        0.042      348.271       27.842      858.674
07/11/2013  18:23:00     -288.209     -125.358        9.847      222.311      174.703       85.525    49422.083    30521.162     7314.547        9.305        4.363      314.292      101.887        0.105      348.360       27.997      858.663
07/11/2013  18:24:00     -298.063     -102.526       11.060      200.732      126.371       79.098    40293.251    15969.577     6256.511        8.099        3.126      315.203       83.612        0.070      348.291       27.875      858.678
07/11/2013  18:25:00     -394.769     -101.716      -21.632      187.555      136.302       84.382    35177.030    18578.266     7120.381       11.375        3.044      407.663       88.519        0.047      348.301       27.892      858.666
07/11/2013  18:26:00     -257.301     -123.885       20.848      199.876      155.138       73.467    39950.367    24067.650     5397.372        7.569        3.471      285.572       97.248        0.116      348.349       27.978      858.667
07/11/2013  18:27:00     -429.559     -188.538       -2.423      204.428      141.727       96.981    41790.779    20086.563     9405.362       14.566        3.564      469.113      105.647        0.051      348.283       27.863      858.692
07/11/2013  18:28:00     -333.037     -124.852       18.262      225.164      147.668       87.452    50698.637    21805.716     7647.930       10.348        4.008      355.670      112.845        0.101      348.326       27.937      858.694
07/11/2013  18:29:00     -274.453     -189.830        2.252      199.269      155.539      103.938    39708.124    24192.407    10803.196        9.302        3.735      333.706      111.171        0.111      348.284       27.865      858.711
07/11/2013  18:30:00     -523.233     -210.241      -29.985      283.684      300.442      113.069    80476.471    90265.690    12784.660       25.116        9.176      563.892      132.206        0.055      348.153       27.637      858.685
07/11/2013  18:31:00     -271.263     -134.370        6.273      204.603      139.154       89.824    41862.393    19363.882     8068.308        8.047        3.465      302.719      103.428        0.117      348.274       27.846      858.713
07/11/2013  18:32:00     -469.183     -230.828       -4.250      251.892      209.764      109.810    63449.552    44000.890    12058.201       19.645        5.975      522.891      120.968        0.054      348.183       27.688      858.712
07/11/2013  18:33:00     -324.927     -147.185       -0.050      225.093      172.842       89.765    50667.075    29874.213     8057.720       10.790        4.430      356.709      102.150        0.082      348.157       27.644      858.733
07/11/2013  18:34:00     -479.550     -293.307      -12.355      265.715      203.574      104.140    70604.360    41442.252    10845.069       21.950        6.145      562.136      139.805        0.062      348.064       27.484      858.700
07/11/2013  18:35:00     -395.435     -162.326       -7.525      215.715      155.133       90.236    46532.774    24066.396     8142.569       13.074        3.937      427.456       97.108        0.052      348.124       27.588      858.739
07/11/2013  18:36:00     -344.800     -259.288      -19.030      203.487      138.328       97.047    41406.871    19134.755     9418.134       12.821        3.498      431.413      112.450        0.068      348.182       27.686      858.757
07/11/2013  18:37:00     -564.755     -407.518      -52.193      240.295      228.319      111.236    57741.526    52129.669    12373.504       30.497        6.112      696.433      122.301        0.031      348.011       27.393      858.750
07/11/2013  18:38:00     -403.370     -154.063        1.078      250.704      204.874      113.813    62852.501    41973.185    12953.455       15.209        5.889      431.790      131.459        0.093      348.073       27.500      858.748
07/11/2013  18:39:00     -408.154     -168.045      -16.489      215.650      237.804      103.332    46504.811    56550.717    10677.542       15.439        5.687      441.395      129.395        0.086      348.125       27.587      858.763
07/11/2013  18:40:00     -432.027     -277.489      -22.412      184.659      170.117      105.277    34098.772    28939.945    11083.189       16.912        3.706      513.466      100.343        0.038      348.091       27.532      858.777
07/11/2013  18:41:00     -405.796     -349.050      -15.519      246.277      192.720      126.750    60652.178    37140.869    16065.672       20.028        5.693      535.262      131.145        0.060      348.103       27.550      858.757
07/11/2013  18:42:00     -362.480     -230.348        1.639      216.124      175.240      106.198    46709.740    30709.073    11278.032       13.656        4.435      429.479      117.043        0.074      348.095       27.537      858.764
07/11/2013  18:43:00     -373.401     -243.942       -3.792      195.651      190.031       91.893    38279.380    36111.828     8444.334       14.088        4.142      446.022      103.734        0.054      348.079       27.509      858.762
07/11/2013  18:44:00     -284.117     -228.411       16.082      196.919      176.986       93.498    38777.027    31324.149     8741.819       10.598        3.942      364.547       95.677        0.069      348.097       27.541      858.765
07/11/2013  18:45:00     -242.195     -212.673       15.484      183.006      143.816       87.710    33491.051    20682.987     7693.030        8.299        3.093      322.317       95.990        0.089      348.098       27.543      858.772
07/11/2013  18:46:00     -224.574     -175.194       -6.411      182.001      150.162       80.012    33124.491    22548.539     6401.900        7.161        3.104      284.827       75.294        0.070      348.121       27.582      858.778
07/11/2013  18:47:00     -469.830     -364.232      -13.486      196.170      181.981       96.065    38482.508    33117.235     9228.401       21.719        4.041      594.479       88.122        0.022      347.997       27.369      858.770
07/11/2013  18:48:00     -526.473     -323.157      -29.478      318.263      252.330      123.457   101291.325    63670.405    15241.589       28.130        9.010      617.741      169.413        0.075      347.964       27.311      858.762
07/11/2013  18:49:00     -471.658     -235.168       -2.249      196.518      159.773       88.773    38619.439    25527.428     7880.733       17.488        3.601      527.035       87.759        0.028      348.001       27.375      858.784
07/11/2013  18:50:00     -479.278     -130.490       -8.106      233.372      234.808      112.873    54462.620    55134.856    12740.292       18.454        6.117      496.724      109.789        0.049      348.003       27.380      858.776
07/11/2013  18:51:00     -481.554     -155.210      -28.051      220.374      166.214       78.849    48564.892    27627.107     6217.160       16.957        4.120      505.949       97.175        0.037      348.018       27.406      858.792
07/11/2013  18:52:00     -383.860     -123.040      -16.989      158.732      174.095       89.247    25195.972    30309.000     7964.988       11.311        3.173      403.097       87.497        0.047      348.066       27.488      858.816
07/11/2013  18:53:00     -546.480     -218.006       -9.424      216.563      165.976      108.758    46899.650    27548.067    11828.206       21.625        4.314      588.359       98.960        0.028      347.932       27.257      858.786
07/11/2013  18:54:00     -388.494     -177.068       -8.600      209.281      204.079      100.823    43798.728    41648.294    10165.276       13.896        4.781      426.944      115.253        0.073      348.001       27.375      858.807
07/11/2013  18:55:00     -501.346     -200.192      -22.829      263.935      173.092      115.540    69661.812    29960.977    13349.395       20.244        5.649      539.837      128.334        0.057      347.914       27.224      858.787
07/11/2013  18:56:00     -458.006     -273.964      -16.381      301.796      174.454       91.711    91081.121    30434.031     8410.997       20.748        6.496      533.691      118.429        0.049      347.899       27.199      858.767
07/11/2013  18:57:00     -270.587      -68.095       12.107      183.410      170.007       85.192    33639.144    28902.504     7257.595        7.389        3.490      279.024      102.626        0.135      347.963       27.311      858.757
07/11/2013  18:58:00     -296.286     -210.755      -18.856      191.078      185.860       96.696    36510.864    34543.886     9350.103       10.647        4.020      363.597      110.996        0.093      347.957       27.300      858.775
07/11/2013  18:59:00     -300.928     -110.392       -6.828      138.344      115.407       59.603    19139.140    13318.783     3552.575        6.939        1.801      320.538       57.033        0.032      348.040       27.442      858.770
07/11/2013  19:00:00     -310.397      -87.871       -7.452      162.988      162.443       76.199    26565.076    26387.792     5806.355        8.143        2.938      322.595       66.316        0.042      348.104       27.552      858.782
07/11/2013  19:01:00     -321.161      -39.872       -8.341      204.251      149.021       87.638    41718.545    22207.192     7680.428        8.819        3.580      323.627       95.798        0.088      347.993       27.360      858.765
07/11/2013  19:02:00     -385.873     -104.511      -20.828      222.055      153.227       89.852    49308.393    23478.503     8073.462       12.054        4.043      399.775      100.470        0.063      347.974       27.329      858.746
07/11/2013  19:03:00     -647.274      -59.055      -44.487      191.588      157.429       95.896    36705.924    24783.756     9196.060       24.754        3.534      649.963      100.679        0.024      347.933       27.258      858.738
07/11/2013  19:04:00     -417.244     -104.234      -12.484      180.698      169.354       85.377    32651.659    28680.788     7289.158       12.685        3.431      430.066       85.577        0.040      347.969       27.321      858.748
07/11/2013  19:05:00     -412.958      -83.746       -4.182      183.803      162.993       93.406    33783.484    26566.716     8724.670       12.331        3.454      421.364      103.711        0.061      347.918       27.233      858.744
07/11/2013  19:06:00     -394.340     -119.934      -11.337      153.724      141.849       75.243    23631.155    20121.038     5661.583       10.971        2.471      412.175       69.535        0.028      347.935       27.261      858.747
07/11/2013  19:07:00     -521.419      -70.711      -27.364      194.551      172.374       82.106    37849.932    29712.754     6741.450       17.595        3.715      526.192       88.144        0.028      347.957       27.300      858.713
07/11/2013  19:08:00     -497.905      -65.219      -11.805      223.247      170.983      111.320    49839.140    29235.256    12392.239       17.187        4.573      502.158      110.342        0.048      347.904       27.206      858.722
07/11/2013  19:09:00     -362.555     -142.663      -21.379      153.858      176.922       76.335    23672.159    31301.332     5827.107       10.652        3.040      389.614       68.156        0.031      347.979       27.337      858.712
07/11/2013  19:10:00     -385.538      -44.299        7.065      237.351      164.187       98.480    56335.268    26957.264     9698.398       12.180        4.650      388.075      112.344        0.084      347.881       27.168      858.759
07/11/2013  19:11:00     -420.534      -50.634      -15.535      204.872      165.517       94.310    41972.412    27395.854     8894.331       12.894        3.913      423.571      105.978        0.063      347.874       27.156      858.770
07/11/2013  19:12:00     -242.681     -149.932       -2.522      191.319      164.776       91.651    36602.941    27151.175     8399.977        7.675        3.608      285.261       82.316        0.083      347.900       27.199      858.784
07/11/2013  19:13:00     -460.397     -225.043       -7.160      225.761      191.840       93.361    50967.845    36802.595     8716.234       17.955        4.824      512.454      105.137        0.042      347.795       27.020      858.768
07/11/2013  19:14:00     -439.801      -98.898      -21.319      255.253      142.255       86.641    65154.059    20236.343     7506.622       14.826        4.645      450.783       99.127        0.048      347.833       27.084      858.789
07/11/2013  19:15:00     -478.434     -279.323      -12.446      329.916      252.284      126.592   108844.560    63647.413    16025.463       24.776        9.426      554.004      165.393        0.089      347.788       27.008      858.769
07/11/2013  19:16:00     -368.443     -184.138      -14.058      191.567      190.535       93.188    36697.863    36303.749     8683.940       12.575        4.084      411.894      111.749        0.074      347.788       27.008      858.775
07/11/2013  19:17:00     -394.339       34.632      -10.390      178.494      149.015       75.088    31860.084    22205.591     5638.283       10.825        2.985      395.857       55.830        0.020      347.896       27.194      858.787
07/11/2013  19:18:00     -679.255     -171.705      -35.235      258.910      213.380      106.666    67034.343    45530.902    11377.634       30.800        6.197      700.621      134.663        0.037      347.776       26.989      858.788
07/11/2013  19:19:00     -295.585     -126.297       21.346      259.916      148.230      105.618    67556.135    21972.148    11155.162       10.221        5.034      321.436      127.678        0.158      347.806       27.037      858.781
07/11/2013  19:20:00     -271.546     -129.252       -5.467      190.555      160.887       87.793    36311.096    25884.660     7707.633        8.017        3.495      300.738       83.560        0.077      347.834       27.088      858.787
07/11/2013  19:21:00     -339.758      -90.418       -6.288      179.150      185.297       95.615    32094.687    34335.003     9142.270        9.960        3.779      351.583       98.014        0.078      347.802       27.031      858.783
07/11/2013  19:22:00     -455.478     -190.893      -11.294      294.399      213.493      122.610    86670.977    45579.368    15033.203       19.563        7.364      493.863      155.248        0.099      347.725       26.898      858.790
07/11/2013  19:23:00     -338.092     -116.465        6.587      249.971      204.569      113.881    62485.394    41848.666    12968.789       12.258        5.865      357.590      131.989        0.136      347.731       26.910      858.778
07/11/2013  19:24:00     -308.301      -88.137        6.085      225.783      150.751       88.819    50977.784    22725.999     7888.748        9.221        4.080      320.651      112.350        0.123      347.772       26.981      858.790
07/11/2013  19:25:00     -269.890      -98.748        2.738      224.646      153.658       85.901    50465.882    23610.930     7379.046        8.201        4.073      287.388       98.447        0.117      347.832       27.083      858.799
07/11/2013  19:26:00     -447.919     -132.599      -18.008      190.671      174.715       97.711    36355.467    30525.157     9547.421       14.747        3.821      467.134       94.612        0.041      347.695       26.845      858.794
07/11/2013  19:27:00     -418.161     -196.357        9.130      234.964      164.696      107.423    55208.158    27124.783    11539.778       15.367        4.694      461.968      120.858        0.068      347.700       26.857      858.749
07/11/2013  19:28:00     -443.882     -169.013      -10.968      180.377      187.771       86.117    32535.835    35257.783     7416.166       15.045        3.760      474.970       89.234        0.035      347.686       26.831      858.771
07/11/2013  19:29:00     -481.498     -139.411       -7.609      235.214      170.342      112.886    55325.814    29016.553    12743.333       17.419        4.854      501.274      124.229        0.061      347.640       26.754      858.754
07/11/2013  19:30:00     -440.962     -194.004      -21.314      195.742      134.779       84.419    38314.950    18165.470     7126.594       14.806        3.180      481.752       89.351        0.034      347.649       26.767      858.766
07/11/2013  19:31:00     -498.608     -295.821      -15.170      229.984      175.599      106.201    52892.761    30834.847    11278.749       21.566        4.750      579.758      110.369        0.036      347.625       26.728      858.764
07/11/2013  19:32:00     -336.630     -163.033       -9.148      251.493      171.575       95.054    63248.966    29438.062     9035.237       12.083        5.086      374.032      112.261        0.090      347.612       26.704      858.740
07/11/2013  19:33:00     -502.270     -256.622       -7.018      241.137      219.454      106.971    58147.039    48160.102    11442.755       21.794        5.887      564.031      105.408        0.035      347.565       26.622      858.752
07/11/2013  19:34:00     -460.533     -220.929       -7.303      245.865      223.977      104.125    60449.746    50165.475    10841.944       19.118        6.073      510.784      115.467        0.051      347.583       26.654      858.764
07/11/2013  19:35:00     -702.865     -197.767      -38.181      297.704      180.024      115.681    88627.810    32408.695    13382.182       33.448        6.721      730.158      140.976        0.037      347.525       26.554      858.741
07/11/2013  19:36:00     -441.650     -203.910      -14.362      227.234      144.585       96.198    51635.431    20904.724     9254.080       15.930        4.090      486.450       90.908        0.035      347.549       26.595      858.793
07/11/2013  19:37:00     -228.020      -32.867        5.206      192.656      117.029       77.734    37116.288    13695.787     6042.587        5.497        2.843      230.376       77.613        0.113      347.608       26.700      858.800
07/11/2013  19:38:00     -220.112     -152.862       30.380      207.265      198.404      115.196    42958.610    39364.275    13270.115        8.415        4.780      267.986      122.043        0.207      347.571       26.634      858.797
07/11/2013  19:39:00     -422.167     -235.678      -18.524      202.077      149.490       80.775    40834.988    22347.193     6524.647       15.190        3.485      483.497       79.566        0.027      347.538       26.577      858.792
07/11/2013  19:40:00     -243.417     -120.875        1.679      205.602      151.199       84.851    42272.113    22861.029     7199.665        7.308        3.617      271.776       93.624        0.119      347.518       26.541      858.774
07/11/2013  19:41:00     -233.895     -143.235        1.940      183.475      149.313       82.009    33663.183    22294.239     6725.519        6.894        3.134      274.269       88.125        0.103      347.523       26.551      858.793
07/11/2013  19:42:00     -341.165     -154.871       -3.756      195.965      136.990       81.941    38402.305    18766.152     6714.309       10.212        3.194      374.671       94.277        0.063      347.496       26.505      858.802
07/11/2013  19:43:00     -243.031     -145.010        9.042      150.595      130.868       67.637    22678.715    17126.412     4574.811        6.227        2.219      283.005       69.095        0.060      347.502       26.515      858.820
07/11/2013  19:44:00     -334.269     -203.486      -10.390      156.758       92.207       81.197    24573.012     8502.045     6592.904        9.645        1.983      391.334       85.829        0.048      347.484       26.482      858.840
07/11/2013  19:45:00     -332.024     -116.163       -7.016      233.819      138.670       81.742    54671.381    19229.490     6681.787       10.217        4.029      351.758      108.783        0.096      347.475       26.469      858.835
07/11/2013  19:46:00     -249.481     -112.506       -6.196      199.827      144.769       74.820    39930.809    20958.083     5598.036        7.070        3.324      273.676       71.356        0.068      347.469       26.456      858.816
07/11/2013  19:47:00     -437.742     -229.454      -10.638      296.147      223.843      114.559    87702.827    50105.525    13123.810       19.763        7.547      494.234      137.402        0.077      347.395       26.330      858.823
07/11/2013  19:48:00     -644.505     -354.658      -28.660      260.151      195.108      115.563    67678.705    38067.317    13354.754       33.052        5.955      735.642      109.971        0.022      347.382       26.307      858.802
07/11/2013  19:49:00     -332.153     -209.830        3.858      217.513      190.762      102.898    47311.935    36390.262    10588.090       12.431        4.715      392.879      107.986        0.076      347.371       26.288      858.791
07/11/2013  19:50:00     -259.868     -168.910       -6.766      179.910      126.844       78.991    32367.632    16089.295     6239.590        7.539        2.735      309.938       81.148        0.069      347.400       26.337      858.817
07/11/2013  19:51:00     -325.533      -71.307        1.265      231.331      140.848       88.266    53514.200    19838.034     7790.820        9.608        4.057      333.251      110.164        0.109      347.370       26.286      858.839
07/11/2013  19:52:00     -398.364     -134.936       -8.153      236.586      162.855       96.006    55972.782    26521.616     9217.156       13.432        4.586      420.596      120.041        0.081      347.357       26.264      858.831
07/11/2013  19:53:00     -582.009     -149.516      -28.211      242.521      221.844      111.826    58816.226    49214.576    12505.008       24.119        6.027      600.907      132.791        0.049      347.331       26.219      858.812
07/11/2013  19:54:00     -447.268     -206.048      -13.658      182.617      200.725       80.610    33348.827    40290.704     6497.900       16.140        4.007      492.447       62.676        0.016      347.333       26.223      858.808
07/11/2013  19:55:00     -316.204     -163.521       -3.373      220.625      167.033       91.270    48675.418    27900.046     8330.227       10.580        4.245      355.984      110.111        0.096      347.308       26.180      858.846
07/11/2013  19:56:00     -325.645     -165.867      -19.259      219.435      152.177       88.794    48151.692    23157.776     7884.384       10.654        3.960      365.454      109.793        0.090      347.282       26.135      858.833
07/11/2013  19:57:00     -320.744     -188.840       17.851      229.377      191.205      100.118    52613.934    36559.193    10023.624       11.901        4.960      372.206      116.313        0.098      347.271       26.118      858.829
07/11/2013  19:58:00     -376.488     -151.020        2.899      259.342      179.118      102.488    67258.229    32083.116    10503.775       13.718        5.492      405.648      122.811        0.092      347.252       26.083      858.820
07/11/2013  19:59:00     -474.426     -160.857      -17.637      282.576      220.571      102.813    79849.137    48651.779    10570.563       19.514        6.954      500.954      126.550        0.064      347.239       26.061      858.862
07/11/2013  20:00:00     -342.535     -113.786      -16.591      176.869      103.039       60.242    31282.671    10616.944     3629.141        8.803        2.276      360.940       45.602        0.016      347.240       26.061      858.904
07/11/2013  20:01:00     -365.736     -188.305      -16.388      244.348      215.507       84.202    59706.015    46443.407     7089.896       14.134        5.662      411.366      109.739        0.071      347.216       26.022      858.901
07/11/2013  20:02:00     -294.055     -188.026      -13.561      181.581      166.541       94.198    32971.811    27736.050     8873.246        9.578        3.479      349.030      110.679        0.101      347.179       25.958      858.905
07/11/2013  20:03:00     -395.911     -202.936      -12.790      245.828      184.134       95.905    60431.515    33905.405     9197.766       15.079        5.177      444.891      118.715        0.071      347.155       25.918      858.898
07/11/2013  20:04:00     -400.380      -78.970      -24.071      203.289      138.074       81.577    41326.433    19064.465     6654.748       11.707        3.352      408.093       92.635        0.052      347.148       25.904      858.911
07/11/2013  20:05:00     -439.456      -73.095      -18.120      216.797      159.244       82.817    47000.931    25358.508     6858.680       13.899        3.961      445.493      103.150        0.054      347.122       25.858      858.922
07/11/2013  20:06:00     -236.784     -113.420       10.404      214.031      127.861       75.976    45809.436    16348.481     5772.309        6.847        3.397      262.547       93.494        0.127      347.101       25.823      858.926
07/11/2013  20:07:00     -304.619      -39.713      -15.150      131.149      133.184       73.056    17200.111    17738.083     5337.247        6.743        2.014      307.196       81.706        0.071      347.089       25.802      858.928
07/11/2013  20:08:00     -225.641      -77.653       14.183      152.596      138.230       78.814    23285.691    19107.621     6211.610        5.287        2.430      238.629       79.783        0.112      347.081       25.788      858.909
07/11/2013  20:09:00     -340.833     -193.914      -15.287      183.575      155.364       75.381    33699.884    24138.071     5682.265       10.875        3.176      392.134       87.028        0.049      347.069       25.767      858.915
07/11/2013  20:10:00     -292.370      -76.999       -0.556      221.897      123.431       81.595    49238.057    15235.314     6657.674        8.126        3.557      302.339       91.554        0.092      347.046       25.729      858.901
07/11/2013  20:11:00     -380.650     -183.376      -23.431      225.208      162.410       84.736    50718.441    26376.965     7180.185       13.166        4.214      422.518       90.767        0.046      347.038       25.715      858.890
07/11/2013  20:12:00     -355.579      -95.252       -1.119      225.813      197.546      102.794    50991.460    39024.544    10566.631       11.803        5.029      368.116      109.410        0.088      347.022       25.687      858.871
07/11/2013  20:13:00     -426.509      -73.528        4.773      194.853      192.456       94.045    37967.695    37039.490     8844.390       13.558        4.193      432.801       98.823        0.052      347.003       25.655      858.882
07/11/2013  20:14:00     -440.439     -108.038      -14.206      257.222      182.212       88.269    66163.136    33201.155     7791.492       15.649        5.358      453.496       99.403        0.048      347.002       25.654      858.889
07/11/2013  20:15:00     -356.638      -83.293      -11.127      238.759      152.344       96.781    57005.871    23208.750     9366.487       11.190        4.479      366.235      116.207        0.101      346.970       25.598      858.879
07/11/2013  20:16:00     -457.104      -70.419      -12.022      257.205      167.615       93.500    66154.652    28094.734     8742.173       15.850        5.150      462.497       95.254        0.042      346.995       25.641      858.889
07/11/2013  20:17:00     -351.346      -90.480      -14.559      223.284      144.610       89.179    49855.899    20912.189     7952.863       10.527        3.936      362.809       99.385        0.075      346.965       25.589      858.891
07/11/2013  20:18:00     -208.844      -48.537        7.123      159.971       94.933       59.283    25590.840     9012.292     3514.437        4.206        1.906      214.410       51.853        0.058      346.922       25.515      858.907
07/11/2013  20:19:00     -436.452      -60.352      -15.480      213.531      154.825       73.230    45595.436    23970.634     5362.659       13.464        3.746      440.605       86.572        0.039      346.917       25.506      858.898
07/11/2013  20:20:00     -450.683     -135.074      -21.013      235.365      196.962       97.982    55396.855    38793.994     9600.404       16.278        5.190      470.489      116.330        0.061      346.897       25.471      858.882
07/11/2013  20:21:00     -335.681     -115.428       -9.643      155.173      127.855       74.082    24078.590    16346.813     5488.099        8.600        2.296      354.972       75.336        0.045      346.859       25.406      858.879
07/11/2013  20:22:00     -354.633      -68.143       -9.733      205.028      167.855       83.712    42036.663    28175.407     7007.719       10.385        3.861      361.121       95.433        0.070      346.852       25.394      858.886
07/11/2013  20:23:00     -390.520      -45.979      -14.947      204.518      146.462       79.924    41827.644    21451.248     6387.772       11.224        3.483      393.217      101.789        0.067      346.802       25.309      858.906
07/11/2013  20:24:00     -471.231      -79.046      -25.163      200.369      159.409       94.173    40147.700    25411.089     8868.574       15.167        3.721      477.815       96.258        0.041      346.820       25.339      858.914
07/11/2013  20:25:00     -369.679     -118.672      -15.388      250.390      167.677       69.698    62695.039    28115.459     4857.767       12.331        4.783      388.259       75.146        0.037      346.811       25.324      858.928
07/11/2013  20:26:00     -454.423     -123.416       -6.480      180.410      194.105       92.341    32547.828    37676.864     8526.836       15.025        3.938      470.884      101.694        0.047      346.813       25.327      858.930
07/11/2013  20:27:00     -396.422      -42.560        3.883      172.557      126.312       83.380    29776.078    15954.632     6952.180       10.582        2.634      398.700       91.017        0.052      346.770       25.253      858.955
07/11/2013  20:28:00     -404.190      -55.357      -15.786      194.950      146.232       82.114    38005.407    21383.719     6742.655       11.639        3.307      407.963       98.478        0.058      346.739       25.199      858.943
07/11/2013  20:29:00     -390.780     -160.086      -17.036      167.237      164.113      102.525    27968.088    26933.154    10511.322       12.201        3.271      422.299       97.162        0.053      346.754       25.226      858.904
07/11/2013  20:30:00     -441.634      -66.820      -18.809      244.756      163.355       80.394    59905.415    26684.830     6463.224       14.644        4.653      446.660       79.891        0.032      346.751       25.221      858.894
07/11/2013  20:31:00     -364.514     -112.845        2.633      211.850      193.257       92.446    44880.426    37348.407     8546.299       11.818        4.539      381.582      106.345        0.078      346.710       25.149      858.853
07/11/2013  20:32:00     -437.858     -178.945      -10.250      232.418      216.249      104.651    54018.073    46763.759    10951.872       16.777        5.587      473.012      122.591        0.067      346.711       25.153      858.848
07/11/2013  20:33:00     -428.940     -109.113      -11.108      261.507      210.618      102.285    68385.853    44359.991    10462.129       15.959        6.160      442.600      110.125        0.062      346.739       25.198      858.810
07/11/2013  20:34:00     -615.003     -193.145      -26.203      257.008      225.321      114.387    66053.014    50769.648    13084.346       27.304        6.495      644.619      131.633        0.042      346.745       25.209      858.821
07/11/2013  20:35:00     -305.359      -78.753        8.382      179.832      178.632       84.391    32339.668    31909.565     7121.880        8.543        3.569      315.351       94.057        0.089      346.686       25.107      858.862
07/11/2013  20:36:00     -507.875      -55.464      -25.674      227.205      214.217       88.361    51621.922    45889.100     7807.741       18.347        5.266      510.894       95.690        0.035      346.669       25.079      858.884
07/11/2013  20:37:00     -504.138     -147.059      -19.791      252.727      188.582      107.347    63870.960    35563.114    11523.334       19.354        5.548      525.149      119.177        0.052      346.674       25.088      858.879
07/11/2013  20:38:00     -554.971     -117.823      -28.276      223.476      169.848       91.138    49941.544    28848.505     8306.067       20.487        4.355      567.340      103.446        0.033      346.652       25.049      858.939
07/11/2013  20:39:00     -424.097      -68.450      -23.282      213.883      135.190       85.125    45745.978    18276.346     7246.300       12.816        3.563      429.585       99.378        0.054      346.625       25.005      858.987
07/11/2013  20:40:00     -482.276     -181.972      -16.317      249.321      188.129       89.292    62161.124    35392.518     7973.054       18.573        5.276      515.465      102.313        0.039      346.637       25.024      859.034
07/11/2013  20:41:00     -463.883     -189.301      -12.721      193.634      162.093       79.445    37494.009    26274.301     6311.448       16.062        3.504      501.021       86.043        0.029      346.621       24.997      859.044
07/11/2013  20:42:00     -396.876      -36.338      -18.829      186.602      133.064       81.144    34820.437    17706.161     6584.302       10.914        2.956      398.536       73.947        0.034      346.557       24.886      859.089
07/11/2013  20:43:00     -331.652      -97.466      -19.672      155.396      125.883       68.951    24147.843    15846.638     4754.225        8.231        2.237      345.677       57.653        0.028      346.543       24.862      859.086
07/11/2013  20:44:00     -214.647      -75.268       28.897      203.498      109.261       99.588    41411.545    11937.981     9917.717        5.791        3.163      227.461      110.461        0.236      346.498       24.787      859.064
07/11/2013  20:45:00     -499.085      -80.539      -32.648      182.686      131.982       67.184    33374.016    17419.139     4513.643       15.596        2.765      505.542       83.372        0.027      346.549       24.875      859.096
07/11/2013  20:46:00     -410.142     -118.020      -27.936      199.447      121.999       85.155    39779.285    14883.781     7251.334       12.241        3.096      426.785       98.487        0.053      346.529       24.839      859.079
07/11/2013  20:47:00     -398.439     -118.527      -22.027      169.537      146.281       64.821    28742.958    21398.246     4201.712       11.380        2.717      415.695       69.463        0.028      346.509       24.805      859.093
07/11/2013  20:48:00     -367.701     -151.076       -1.375      205.013      160.729       81.226    42030.295    25833.821     6597.743       11.623        3.723      397.527       94.443        0.056      346.521       24.827      859.090
07/11/2013  20:49:00     -337.396      -99.343      -15.562      184.377      124.142       79.987    33994.992    15411.142     6397.906        8.986        2.790      351.717       92.674        0.069      346.477       24.751      859.094
07/11/2013  20:50:00     -363.795      -53.231      -28.451      128.558      112.466       66.389    16527.173    12648.662     4407.545        8.478        1.679      367.669       57.642        0.025      346.485       24.764      859.119
07/11/2013  20:51:00     -330.470     -131.692      -15.064      204.242      140.226       87.400    41714.821    19663.380     7638.674        9.788        3.451      355.743       95.421        0.072      346.466       24.731      859.116
07/11/2013  20:52:00     -237.376        2.947       10.771      167.207      110.338       67.448    27958.222    12174.520     4549.270        5.057        2.234      237.394       77.582        0.107      346.421       24.655      859.126
07/11/2013  20:53:00     -409.785     -175.608      -13.396      226.728      164.920       90.083    51405.480    27198.617     8114.991       14.281        4.336      445.828      109.524        0.060      346.436       24.679      859.123
07/11/2013  20:54:00     -367.177       27.436      -22.612      140.795      123.302       62.773    19823.315    15203.489     3940.511        8.752        1.948      368.200       68.331        0.034      346.415       24.642      859.153
07/11/2013  20:55:00     -348.382     -131.734      -10.320      159.485      123.843       60.655    25435.408    15337.090     3679.028        9.163        2.223      372.457       67.493        0.033      346.405       24.626      859.135
07/11/2013  20:56:00     -267.530      -48.886      -11.755      185.526      126.007       63.348    34419.853    15877.781     4012.998        6.419        2.716      271.960       67.407        0.061      346.358       24.546      859.173
07/11/2013  20:57:00     -322.845       22.209      -21.924      149.112      107.228       63.531    22234.275    11497.905     4036.201        7.148        1.888      323.608       64.633        0.040      346.357       24.543      859.175
07/11/2013  20:58:00     -350.869      -40.150       -7.276      151.988      130.790       65.609    23100.222    17105.968     4304.573        8.463        2.226      353.159       55.613        0.025      346.340       24.514      859.182
07/11/2013  20:59:00     -409.683     -145.830      -15.884      217.765      160.561       76.093    47421.421    25779.721     5790.207       13.416        3.950      434.864       81.737        0.035      346.349       24.529      859.184
07/11/2013  21:00:00     -349.042      -46.454      -15.977      152.863      122.630       66.629    23367.029    15038.193     4439.450        8.354        2.142      352.120       70.356        0.040      346.284       24.418      859.199
07/11/2013  21:01:00     -553.442       -5.040      -38.701      152.307      148.592       70.371    23197.534    22079.471     4952.053       17.902        2.511      553.465       74.407        0.018      346.329       24.495      859.176
07/11/2013  21:02:00     -540.430      -34.701      -35.072      190.315      153.518       85.209    36219.835    23567.910     7260.516       18.076        3.352      541.543       95.834        0.031      346.326       24.490      859.192
07/11/2013  21:03:00     -408.154      -66.928        2.234      215.915      135.022       84.124    46619.449    18231.023     7076.818       12.149        3.596      413.605       93.303        0.051      346.294       24.435      859.196
07/11/2013  21:04:00     -376.220      -74.397      -12.682      157.287      136.615       81.136    24739.340    18663.692     6583.054        9.860        2.499      383.506       83.403        0.047      346.281       24.412      859.225
07/11/2013  21:05:00     -520.613     -109.716      -14.141      186.436      180.329       86.611    34758.300    32518.411     7501.416       17.901        3.739      532.049       94.271        0.031      346.288       24.424      859.204
07/11/2013  21:06:00     -607.086       -0.232      -39.100      188.105      146.624       80.933    35383.494    21498.479     6550.229       21.674        3.172      607.086       79.804        0.017      346.310       24.462      859.199
07/11/2013  21:07:00     -565.660      -89.378      -41.074      242.395      219.754      105.418    58755.433    48291.610    11113.058       22.388        5.908      572.678      122.110        0.045      346.296       24.438      859.202
07/11/2013  21:08:00     -472.564     -103.023      -21.091      244.340      177.969      106.902    59702.268    31673.141    11427.980       16.857        5.140      483.663      116.063        0.058      346.279       24.409      859.217
07/11/2013  21:09:00     -483.706      -96.508      -18.634      207.386      157.106       93.568    43008.910    24682.297     8754.921       16.002        3.822      493.240      100.814        0.042      346.256       24.370      859.231
07/11/2013  21:10:00     -332.308      -91.576       -3.448      165.542      139.722       92.453    27404.003    19522.376     8547.494        8.714        2.774      344.695       94.351        0.075      346.217       24.301      859.230
07/11/2013  21:11:00     -528.577     -213.806      -17.587      197.422      155.610       83.859    38975.413    24214.467     7032.261       19.780        3.511      570.181       89.208        0.024      346.207       24.284      859.207
07/11/2013  21:12:00     -566.975     -186.730      -21.577      229.978      163.048       89.379    52889.777    26584.522     7988.544       22.211        4.373      596.933      100.108        0.028      346.237       24.336      859.204
07/11/2013  21:13:00     -603.735     -214.259      -26.030      232.687      176.579      100.986    54143.366    31180.203    10198.133       25.328        4.776      640.627      103.512        0.026      346.236       24.335      859.208
07/11/2013  21:14:00     -458.848      -37.305      -24.220      217.598      187.251       96.236    47348.889    35062.759     9261.328       15.208        4.584      460.362      103.660        0.051      346.202       24.275      859.230
07/11/2013  21:15:00     -353.268      -88.651        5.111      213.052      187.743       96.117    45391.277    35247.501     9238.492       11.126        4.494      364.221      104.589        0.082      346.174       24.227      859.267
07/11/2013  21:16:00     -483.605      -71.737      -13.995      161.710      146.175       81.705    26150.255    21367.141     6675.677       14.669        2.710      488.897       69.197        0.020      346.139       24.168      859.287
07/11/2013  21:17:00     -471.341      -76.133      -28.311      218.216      175.645       78.084    47618.157    30851.328     6097.078       15.665        4.228      477.450       81.860        0.029      346.159       24.203      859.318
07/11/2013  21:18:00     -479.713     -125.912      -12.249      131.498      123.098       78.472    17291.818    15153.017     6157.817       14.236        1.930      495.962       73.600        0.022      346.154       24.194      859.313
07/11/2013  21:19:00     -355.344     -110.029      -10.043      231.987      153.087       83.030    53818.124    23435.550     6894.016       11.130        4.207      371.989      105.695        0.081      346.111       24.121      859.340
07/11/2013  21:20:00     -582.863      -57.315      -39.011      206.689      208.107       93.930    42720.355    43308.629     8822.804       21.968        4.743      585.674       99.585        0.029      346.152       24.191      859.387
07/11/2013  21:21:00     -369.219      -58.942       -5.204      173.364      149.870       85.311    30055.045    22460.925     7277.884        9.980        2.990      373.894       94.427        0.064      346.075       24.058      859.426
07/11/2013  21:22:00     -440.807      -89.577      -37.230      181.392      124.974       71.237    32903.049    15618.395     5074.696       12.865        2.680      449.816       74.956        0.028      346.087       24.079      859.446
07/11/2013  21:23:00     -480.407     -157.391      -17.504      200.992      135.418       78.165    40397.920    18338.138     6109.759       16.034        3.242      505.533       85.886        0.029      346.081       24.068      859.477
07/11/2013  21:24:00     -403.667     -170.904       -4.532      248.962      165.031       90.678    61981.859    27235.147     8222.542       14.479        4.872      438.355       96.182        0.048      346.073       24.053      859.475
07/11/2013  21:25:00     -373.267     -127.911       -6.922      185.275      148.275       64.004    34326.652    21985.450     4096.561       10.806        3.020      394.575       65.148        0.027      346.045       24.006      859.511
07/11/2013  21:26:00     -588.225      -74.980      -41.258      144.283      134.969       77.035    20817.625    18216.589     5934.433       19.914        2.248      592.985       73.831        0.016      346.084       24.072      859.483
07/11/2013  21:27:00     -386.171     -134.311      -20.763      181.201      122.841       85.051    32833.868    15089.799     7233.693       11.137        2.758      408.861       71.325        0.030      346.055       24.023      859.469
07/11/2013  21:28:00     -386.307       17.222      -26.726      149.465      159.386       73.199    22339.884    25404.047     5358.072       10.166        2.655      386.691       78.844        0.042      346.012       23.950      859.471
07/11/2013  21:29:00     -506.646     -128.301      -15.455      238.916      160.577       97.301    57081.073    25784.821     9467.416       18.284        4.617      522.639      109.936        0.044      346.025       23.972      859.436
07/11/2013  21:30:00     -678.167       -2.557      -48.564      228.366      207.367       84.628    52151.216    43001.030     7161.847       28.227        5.116      678.172       93.877        0.019      346.036       23.989      859.425
07/11/2013  21:31:00     -372.976      -85.058       -3.118      218.549      160.765       86.216    47763.876    25845.299     7433.254       11.368        4.052      382.552      106.812        0.078      345.991       23.914      859.449
07/11/2013  21:32:00     -472.789      -57.466      -25.260      190.663      207.535       91.243    36352.427    43070.848     8325.242       15.759        4.387      476.269       81.142        0.029      346.004       23.935      859.468
07/11/2013  21:33:00     -360.155     -121.270      -10.896      164.272      179.900       76.166    26985.154    32364.172     5801.331       10.483        3.258      380.024       76.235        0.040      345.983       23.901      859.466
07/11/2013  21:34:00     -351.675      -70.969      -10.447      199.173      138.889       85.354    39669.877    19290.130     7285.354        9.752        3.312      358.764      107.202        0.089      345.961       23.863      859.454
07/11/2013  21:35:00     -439.788     -116.984      -17.666      224.635      148.354       90.054    50460.847    22008.807     8109.804       14.398        4.029      455.081       94.515        0.043      345.963       23.867      859.458
07/11/2013  21:36:00     -547.320      -81.333      -27.741      212.546      208.106       97.179    45175.788    43307.938     9443.835       20.242        4.896      553.330      110.564        0.040      345.993       23.919      859.474
07/11/2013  21:37:00     -402.669      -75.153       -6.909      189.770      154.116       74.895    36012.757    23751.700     5609.224       11.659        3.269      409.622       89.528        0.048      345.950       23.843      859.505
07/11/2013  21:38:00     -364.353      -34.708      -14.761      200.134      143.963       84.379    40053.567    20725.331     7119.761       10.102        3.395      366.003      101.160        0.076      345.952       23.848      859.539
07/11/2013  21:39:00     -468.836      -76.448      -12.517      274.630      156.649      106.814    75421.806    24538.987    11409.128       16.857        5.568      475.028      135.351        0.081      345.964       23.867      859.532
07/11/2013  21:40:00     -481.385      -93.695      -14.398      263.934      173.768       83.014    69661.300    30195.256     6891.281       17.371        5.337      490.418       84.331        0.030      345.974       23.884      859.544
07/11/2013  21:41:00     -379.716       12.543      -16.187      204.480      127.007       77.748    41812.100    16130.684     6044.723       10.428        3.199      379.923       87.114        0.053      345.955       23.853      859.575
07/11/2013  21:42:00     -270.058      -59.428       -1.954      211.582       99.595       69.390    44767.065     9919.200     4815.035        6.797        2.975      276.519       72.144        0.068      345.949       23.844      859.617
07/11/2013  21:43:00     -225.714      -89.163       -2.783      180.342      111.138       71.274    32523.148    12351.647     5080.022        5.442        2.498      242.687       87.266        0.129      345.933       23.816      859.620
07/11/2013  21:44:00      -88.645      -47.992       23.897      123.197       97.171       62.863    15177.546     9442.143     3951.798        1.965        1.429      100.803       71.911        0.509      345.853       23.679      859.622
07/11/2013  21:45:00     -491.574       12.131      -34.170      235.802      134.778       79.398    55602.453    18165.232     6304.051       16.150        4.004      491.724       91.591        0.035      345.926       23.804      859.648
07/11/2013  21:46:00     -322.525     -149.687      -17.928      230.579      174.030       80.476    53166.589    30286.327     6476.410       10.832        4.496      355.568       96.810        0.074      345.919       23.792      859.649
07/11/2013  21:47:00     -224.410     -127.544        7.227      181.959      152.630       93.099    33108.985    23296.008     8667.504        6.586        3.254      258.123       92.049        0.127      345.898       23.755      859.622
07/11/2013  21:48:00     -299.114     -116.285       -6.456      165.319      101.419       77.154    27330.289    10285.803     5952.676        7.329        2.178      320.923       76.787        0.057      345.898       23.754      859.604
07/11/2013  21:49:00     -359.687     -245.296       -2.688      136.558      121.893       80.935    18648.055    14857.850     6550.479       11.480        2.003      435.367       72.885        0.028      345.910       23.775      859.574
07/11/2013  21:50:00     -529.083     -113.894      -12.622      330.884      190.640      112.647   109484.347    36343.756    12689.456       22.576        7.926      541.203      147.159        0.074      345.901       23.761      859.609
07/11/2013  21:51:00     -333.232     -103.966      -18.038      193.705      175.781       94.299    37521.765    30898.941     8892.350        9.973        3.866      349.073      101.360        0.084      345.916       23.785      859.587
07/11/2013  21:52:00     -292.719     -137.994      -22.810      247.507      164.012      101.225    61259.468    26899.784    10246.491       10.181        4.920      323.615      119.424        0.136      345.930       23.810      859.588
07/11/2013  21:53:00     -609.980     -177.785      -13.394      304.994      213.846      118.865    93021.278    45730.151    14128.821       27.834        7.644      635.360      152.465        0.058      345.945       23.836      859.578
07/11/2013  21:54:00     -434.509     -182.681      -14.916      195.320      192.645      101.755    38149.721    37112.221    10354.101       15.399        4.281      471.350      107.374        0.052      345.942       23.831      859.625
07/11/2013  21:55:00     -339.555     -216.005        3.323      207.201      161.025       92.909    42932.270    25929.136     8632.101       11.971        3.875      402.437       99.324        0.061      345.921       23.795      859.627
07/11/2013  21:56:00     -526.805     -124.994      -26.950      268.099      159.195       78.733    71876.829    25342.988     6198.868       19.863        5.171      541.430      102.191        0.036      345.905       23.767      859.641
07/11/2013  21:57:00     -371.381     -183.766      -22.071      182.706      151.755       78.721    33381.435    23029.519     6197.001       11.738        3.130      414.360       86.963        0.044      345.860       23.690      859.659
07/11/2013  21:58:00     -383.414      -66.693       -5.458      209.524      132.327       79.883    43900.176    17510.542     6381.336       10.962        3.390      389.171       84.442        0.047      345.857       23.685      859.683
07/11/2013  21:59:00     -208.817     -126.522       12.304      190.442      162.433       89.692    36268.272    26384.471     8044.669        6.522        3.535      244.156      109.296        0.200      345.829       23.637      859.696
07/11/2013  22:00:00     -153.130     -117.019       16.114      162.479      132.371       72.831    26399.582    17521.977     5304.333        4.330        2.461      192.723       67.107        0.121      345.811       23.605      859.713
07/11/2013  22:01:00     -320.082      -47.709       -1.727      268.413      116.750       84.253    72045.706    13630.623     7098.587        9.873        4.639      323.618      114.114        0.124      345.805       23.595      859.751
07/11/2013  22:02:00     -226.370      -68.978       13.099      179.003      140.803       80.306    32042.151    19825.521     6449.097        5.723        2.916      236.646       92.838        0.154      345.789       23.568      859.746
07/11/2013  22:03:00     -319.892      -51.383        0.738      181.992      123.732       77.986    33120.984    15309.713     6081.748        7.973        2.726      323.993       74.556        0.053      345.782       23.555      859.779
07/11/2013  22:04:00     -119.770      -74.253       17.586      148.115      131.171       74.251    21938.184    17205.865     5513.211        3.240        2.233      140.920       77.114        0.299      345.743       23.490      859.781
07/11/2013  22:05:00     -227.180      -78.004       10.901      161.690      114.421       67.320    26143.624    13092.254     4531.925        5.078        2.188      240.198       74.772        0.097      345.755       23.509      859.793
07/11/2013  22:06:00     -323.487      -67.496       -5.683      194.117      138.463       68.709    37681.254    19172.037     4720.963        8.539        3.079      330.454       88.915        0.072      345.769       23.535      859.791
07/11/2013  22:07:00     -333.589      -61.776        2.469      204.448      110.882       72.902    41799.081    12294.821     5314.768        8.724        2.970      339.261       86.517        0.065      345.745       23.492      859.806
07/11/2013  22:08:00     -282.114      -45.434        2.904      209.636      155.285       89.731    43947.455    24113.445     8051.598        7.887        3.806      285.749       97.009        0.115      345.730       23.467      859.808
07/11/2013  22:09:00     -197.689      -79.153      -12.951      115.040       93.378       69.757    13234.307     8719.434     4866.003        3.616        1.341      212.947       64.182        0.091      345.715       23.442      859.838
07/11/2013  22:10:00     -491.589      -98.491      -25.008      191.029      149.875       85.005    36491.939    22462.389     7225.842       15.907        3.309      501.359       96.415        0.037      345.761       23.520      859.835
07/11/2013  22:11:00     -283.031     -131.903       -3.804      154.389      122.412       63.261    23836.096    14984.693     4001.954        7.016        2.141      312.258       64.657        0.043      345.751       23.502      859.847
07/11/2013  22:12:00     -202.179      -24.443       10.880      162.588      107.002       70.250    26434.852    11449.360     4935.019        4.220        2.141      203.651       82.981        0.166      345.658       23.343      859.873
07/11/2013  22:13:00     -390.375      -92.420      -29.441      162.770      117.736       69.860    26494.144    13861.681     4880.404       10.351        2.262      401.166       64.287        0.026      345.707       23.427      859.902
07/11/2013  22:14:00     -205.383     -145.153        1.212      116.573       85.726       58.342    13589.260     7348.928     3403.800        4.379        1.217      251.499       55.272        0.048      345.731       23.468      859.921
07/11/2013  22:15:00     -273.680     -185.864        1.510      164.441      110.677       76.484    27040.992    12249.405     5849.783        7.729        2.257      330.826       89.167        0.073      345.791       23.569      859.892
07/11/2013  22:16:00     -243.797      -63.318        0.154      111.499      107.523       55.706    12432.061    11561.161     3103.117        4.527        1.355      251.886       58.753        0.054      345.733       23.471      859.924
07/11/2013  22:17:00     -161.207      -20.050        8.125       76.379       74.780       39.736     5833.701     5592.054     1578.966        1.973        0.650      162.449       38.770        0.057      345.644       23.320      859.955
07/11/2013  22:18:00     -263.877      -88.785       -7.279      151.476       94.965       53.259    22945.119     9018.380     2836.497        5.618        1.740      278.413       58.509        0.044      345.665       23.354      859.949
07/11/2013  22:19:00     -305.185      -79.846      -10.914      116.314      103.682       62.537    13528.996    10750.007     3910.843        6.391        1.409      315.457       63.908        0.041      345.659       23.344      859.956
07/11/2013  22:20:00     -385.913      -15.960      -32.378       95.253      122.817       58.475     9073.160    15084.077     3419.318        8.890        1.379      386.243       45.965        0.014      345.722       23.453      859.965
07/11/2013  22:21:00     -352.838     -105.438       -6.109      169.961      132.047       78.107    28886.601    17436.278     6100.656        9.403        2.621      368.256       77.381        0.044      345.694       23.406      859.946
07/11/2013  22:22:00     -188.934      -39.306       -5.336      112.235      100.353       56.006    12596.800    10070.629     3136.622        3.153        1.290      192.979       57.108        0.088      345.658       23.343      859.957
07/11/2013  22:23:00     -186.948      -35.887       -6.770       87.568       74.498       50.247     7668.115     5549.887     2524.734        2.601        0.787      190.362       48.917        0.066      345.619       23.274      859.949
07/11/2013  22:24:00     -272.691      -60.746       -7.073      104.316       97.933       54.968    10881.756     9590.846     3021.471        5.079        1.175      279.375       54.266        0.038      345.588       23.220      859.964
07/11/2013  22:25:00     -276.848     -196.946       -4.237      138.179      118.596       70.167    19093.327    14064.994     4923.446        7.676        1.904      339.754       72.603        0.046      345.594       23.233      859.937
07/11/2013  22:26:00     -159.132      -69.305        3.526      162.710       97.249       69.914    26474.399     9457.368     4887.917        3.547        2.041      173.569       89.140        0.264      345.568       23.189      859.946
07/11/2013  22:27:00     -226.004     -128.002       -7.319      148.378      101.483       57.913    22015.936    10298.871     3353.908        5.159        1.783      259.735       68.772        0.070      345.590       23.225      859.938
07/11/2013  22:28:00     -221.376      -48.702        1.613      122.991      111.675       58.760    15126.703    12471.208     3452.700        4.121        1.553      226.670       56.372        0.062      345.528       23.120      859.951
07/11/2013  22:29:00     -278.529      -69.125       -9.139      176.489       93.573       65.594    31148.293     8755.942     4302.540        6.331        2.210      286.979       79.048        0.076      345.547       23.152      859.959
07/11/2013  22:30:00     -225.951      -59.701        6.270      106.051       89.840       55.201    11246.909     8071.278     3047.097        3.851        1.118      233.705       50.673        0.047      345.563       23.179      859.961
07/11/2013  22:31:00     -268.202      -59.463        1.388      167.198      136.903       72.891    27955.024    18742.461     5313.150        6.373        2.601      274.715       87.259        0.101      345.555       23.165      859.963
07/11/2013  22:32:00     -185.881      -90.492        1.977      126.001       95.278       56.505    15876.234     9077.864     3192.773        3.544        1.407      206.738       64.838        0.098      345.521       23.108      859.967
07/11/2013  22:33:00     -180.273      -22.815       17.497      118.976       96.147       68.002    14155.345     9244.180     4624.307        3.067        1.401      181.711       65.084        0.128      345.452       22.991      859.963
07/11/2013  22:34:00     -301.081      -32.175        9.056      192.396      123.360       80.861    37016.234    15217.742     6538.580        7.526        2.939      302.795       93.943        0.096      345.534       23.130      859.968
07/11/2013  22:35:00     -377.414      -28.694      -23.306      123.538      128.570       66.501    15261.723    16530.120     4422.384        9.000        1.811      378.504       53.938        0.020      345.600       23.243      859.979
07/11/2013  22:36:00     -260.426       10.154      -13.539      195.390      107.317       66.435    38177.209    11517.039     4413.619        6.110        2.705      260.623       78.870        0.092      345.538       23.138      859.999
07/11/2013  22:37:00     -263.138      -50.958      -19.459      152.219      137.141       65.364    23170.588    18807.656     4272.517        5.922        2.313      268.027       82.832        0.096      345.569       23.189      860.012
07/11/2013  22:38:00     -333.171      -45.004      -23.820      114.425      103.210       53.495    13093.108    10652.338     2861.690        7.010        1.330      336.197       55.122        0.027      345.553       23.162      860.024
07/11/2013  22:39:00     -441.986      -76.366      -25.357      150.971      119.166       63.248    22792.374    14200.421     4000.363       12.140        2.050      448.535       60.779        0.018      345.617       23.270      860.021
07/11/2013  22:40:00     -331.339      -37.182        2.088      151.884      111.200       66.743    23068.848    12365.429     4454.586        7.552        1.994      333.418       77.092        0.053      345.571       23.192      860.007
07/11/2013  22:41:00     -307.306      -59.426       -0.097      110.015      137.459       57.617    12103.407    18894.960     3319.760        6.614        1.716      312.999       56.367        0.032      345.559       23.172      860.010
07/11/2013  22:42:00     -209.419      -72.610       -0.158      118.851      103.868       60.621    14125.518    10788.498     3674.855        3.885        1.429      221.649       63.590        0.082      345.504       23.078      860.017
07/11/2013  22:43:00     -265.627      -15.309       -5.866      146.786      102.453       62.016    21546.011    10496.632     3846.040        5.335        1.794      266.068       72.936        0.075      345.467       23.016      860.008
07/11/2013  22:44:00     -360.699      -99.873       -9.886      131.358      149.187       57.825    17255.033    22256.903     3343.701        9.151        2.143      374.270       52.810        0.020      345.532       23.126      859.996
07/11/2013  22:45:00     -274.326      -90.089       -2.932      136.157      116.545       58.396    18538.706    13582.679     3410.140        5.945        1.777      288.740       67.682        0.055      345.501       23.072      860.011
07/11/2013  22:46:00     -337.575      -30.646      -16.454       99.790       98.010       56.240     9958.087     9605.906     3162.928        6.894        1.136      338.963       52.883        0.024      345.551       23.158      860.000
07/11/2013  22:47:00     -330.711        5.049      -39.805       93.176       82.422       51.905     8681.693     6793.354     2694.096        6.457        0.908      330.750       47.716        0.021      345.552       23.161      859.987
07/11/2013  22:48:00     -245.219     -116.236       -4.631      117.641      112.085       59.661    13839.401    12562.957     3559.440        5.181        1.498      271.373       65.405        0.058      345.468       23.016      859.987
07/11/2013  22:49:00     -214.795     -123.521       -2.509       90.866       73.898       45.512     8256.618     5460.918     2071.355        3.859        0.789      247.779       37.403        0.023      345.483       23.040      860.003
07/11/2013  22:50:00     -353.196      -56.745       -5.894      192.602      137.727       71.529    37095.517    18968.591     5116.395        9.458        3.059      357.725       89.016        0.062      345.575       23.200      859.984
07/11/2013  22:51:00     -259.990      -36.885      -13.652      131.360      104.709       62.523    17255.488    10963.941     3909.108        5.063        1.606      262.593       59.232        0.051      345.504       23.079      859.979
07/11/2013  22:52:00     -198.521       -8.438      -10.233      137.286      117.999       51.355    18847.347    13923.712     2637.361        3.749        1.770      198.700       59.172        0.089      345.502       23.077      859.969
07/11/2013  22:53:00     -189.760      -29.382        6.165      140.263       83.289       53.185    19673.692     6937.004     2828.693        3.317        1.472      192.021       66.521        0.120      345.512       23.093      859.994
07/11/2013  22:54:00     -222.068      -19.141       13.725      137.540       96.468       59.116    18917.368     9306.042     3494.729        4.079        1.586      222.891       71.598        0.103      345.464       23.010      860.006
07/11/2013  22:55:00     -212.346      -38.964       -7.586      106.957       81.265       58.561    11439.696     6604.017     3429.445        3.407        1.074      215.892       59.871        0.077      345.514       23.094      860.029
07/11/2013  22:56:00     -179.043      -50.596       -5.329      133.137      110.427       45.936    17725.393    12194.174     2110.135        3.333        1.601      186.055       43.906        0.056      345.534       23.130      860.045
07/11/2013  22:57:00     -213.500      -77.791       -4.319      161.188       80.950       56.485    25981.529     6552.845     3190.593        4.368        1.786      227.230       63.164        0.077      345.570       23.191      860.044
07/11/2013  22:58:00     -300.487      -68.005      -25.303      109.697      108.385       57.214    12033.479    11747.304     3273.396        6.130        1.353      308.086       52.133        0.029      345.579       23.207      860.066
07/11/2013  22:59:00     -235.824      -85.146        3.323       86.886      108.774       53.059     7549.208    11831.742     2815.292        4.253        1.110      250.724       49.296        0.039      345.573       23.197      860.064
07/11/2013  23:00:00     -219.886      -66.689       -2.529      136.821       82.753       61.348    18720.013     6848.020     3763.516        4.106        1.467      229.777       66.155        0.083      345.595       23.236      860.069
07/11/2013  23:01:00     -240.332     -178.694       -4.023      117.907       79.208       55.189    13902.172     6273.895     3045.794        5.646        1.161      299.485       53.362        0.032      345.625       23.285      860.053
07/11/2013  23:02:00     -209.505     -130.350        9.449      132.369      116.831       66.350    17521.455    13649.576     4402.365        4.827        1.779      246.746       76.560        0.096      345.555       23.166      860.077
07/11/2013  23:03:00     -197.094     -116.390       -8.925      135.589       86.515       61.734    18384.369     7484.823     3811.052        4.107        1.484      228.894       56.607        0.061      345.551       23.158      860.114
07/11/2013  23:04:00     -183.587     -163.943       -4.695      149.081      107.799       71.483    22225.072    11620.708     5109.857        4.977        1.948      246.133       85.942        0.122      345.610       23.260      860.107
07/11/2013  23:05:00     -191.079     -118.708       -0.344      110.806       86.478       44.964    12277.926     7478.404     2021.757        3.619        1.089      224.950       44.524        0.039      345.544       23.146      860.121
07/11/2013  23:06:00     -180.597      -89.208        0.805      102.138       70.639       43.898    10432.197     4989.908     1927.013        2.896        0.867      201.428       39.144        0.038      345.526       23.116      860.143
07/11/2013  23:07:00     -271.114     -121.163       -5.652       72.086       82.326       45.680     5196.450     6777.567     2086.633        5.113        0.703      296.956       35.249        0.014      345.519       23.103      860.171
07/11/2013  23:08:00     -145.727      -88.139       -2.811      108.918       62.186       44.837    11863.198     3867.077     2010.400        2.337        0.887      170.308       46.003        0.073      345.431       22.953      860.170
07/11/2013  23:09:00     -167.988      -72.325        2.998      113.127       70.630       43.219    12797.791     4988.572     1867.881        2.655        0.983      182.896       58.031        0.101      345.427       22.947      860.192
07/11/2013  23:10:00     -149.094      -42.692       -4.031       85.165       67.412       35.779     7253.136     4544.336     1280.172        1.857        0.654      155.086       39.723        0.066      345.426       22.944      860.215
07/11/2013  23:11:00     -120.124      -92.916        9.724       78.455       87.615       47.410     6155.154     7676.328     2247.687        1.962        0.804      151.866       50.459        0.110      345.465       23.011      860.226
07/11/2013  23:12:00     -191.682     -150.206        5.836      101.515       75.609       51.911    10305.323     5716.789     2694.729        3.902        0.936      243.524       55.292        0.052      345.502       23.074      860.254
07/11/2013  23:13:00     -185.526      -44.079       -0.963      111.418       73.335       53.262    12413.914     5378.067     2836.867        2.849        1.031      190.690       56.181        0.087      345.429       22.951      860.273
07/11/2013  23:14:00     -272.607      -48.099      -12.503      101.073       77.556       46.376    10215.744     6014.878     2150.749        4.758        0.919      276.818       45.347        0.027      345.458       22.998      860.273
07/11/2013  23:15:00     -173.713      -59.774       -4.391       99.456       78.419       47.438     9891.532     6149.505     2250.372        2.603        0.915      183.709       53.084        0.083      345.311       22.750      860.296
07/11/2013  23:16:00     -169.933      -53.401        0.758       80.453       72.445       39.486     6472.703     5248.349     1559.165        2.250        0.664      178.126       38.427        0.047      345.306       22.739      860.317
07/11/2013  23:17:00     -106.507      -57.843       18.884       83.678       64.428       41.676     7001.998     4151.017     1736.928        1.397        0.644      121.200       43.259        0.127      345.352       22.820      860.312
07/11/2013  23:18:00     -215.848      -50.015        2.037      161.495       53.803       41.889    26080.522     2894.734     1754.653        3.991        1.536      221.566       54.791        0.061      345.422       22.938      860.308
07/11/2013  23:19:00     -245.429      -76.514      -12.684      134.216       75.081       46.802    18013.928     5637.091     2190.413        4.604        1.292      257.080       45.256        0.031      345.489       23.052      860.317
07/11/2013  23:20:00     -295.440      -53.358      -20.446       88.463       90.495       44.260     7825.727     8189.333     1958.954        5.426        0.899      300.219       37.718        0.016      345.509       23.086      860.326
07/11/2013  23:21:00     -217.655      -49.003       -8.771       84.618       59.909       40.505     7160.123     3589.071     1640.645        3.112        0.619      223.103       42.615        0.036      345.439       22.966      860.332
07/11/2013  23:22:00     -183.669      -84.438        2.503       90.410       79.194       44.830     8173.971     6271.662     2009.726        2.866        0.823      202.149       40.787        0.041      345.432       22.954      860.320
07/11/2013  23:23:00     -204.391     -122.621      -11.074       93.901       68.823       45.300     8817.404     4736.587     2052.060        3.627        0.780      238.352       53.023        0.049      345.419       22.932      860.311
07/11/2013  23:24:00     -270.665        3.444       -4.943      105.307       79.805       57.625    11089.630     6368.899     3320.690        4.703        1.039      270.687       57.117        0.045      345.380       22.865      860.299
07/11/2013  23:25:00     -187.808      -74.435       -4.140      109.167       66.950       39.171    11917.413     4482.281     1534.347        2.938        0.897      202.021       42.755        0.045      345.347       22.808      860.306
07/11/2013  23:26:00     -213.391     -145.872      -13.126       93.611       61.555       41.146     8763.069     3789.030     1693.017        4.061        0.712      258.485       38.032        0.022      345.409       22.914      860.298
07/11/2013  23:27:00      -17.878      -48.969       22.381       71.411       53.612       30.177     5099.555     2874.229      910.637        0.605        0.444       52.130       29.658        0.324      345.253       22.649      860.308
07/11/2013  23:28:00     -160.084      -20.288        8.397      166.204       79.227       51.616    27623.628     6276.993     2664.252        3.133        1.828      161.364       64.715        0.161      345.395       22.892      860.315
07/11/2013  23:29:00     -144.179     -114.297       -6.715       95.008       73.307       52.393     9026.439     5373.893     2745.045        2.552        0.857      183.987       47.267        0.066      345.411       22.919      860.319
07/11/2013  23:30:00     -141.964     -111.821        1.400      106.557       72.966       51.736    11354.461     5324.045     2676.564        2.600        0.968      180.714       59.331        0.108      345.396       22.893      860.339
07/11/2013  23:31:00     -174.008     -177.624       -5.515       84.783      109.066       47.050     7188.100    11895.353     2213.680        4.157        1.065      248.655       38.704        0.024      345.518       23.102      860.345
07/11/2013  23:32:00      -78.837     -123.156       -0.684      109.815       58.838       42.456    12059.281     3461.927     1802.517        1.935        0.866      146.228       35.156        0.058      345.447       22.981      860.355
07/11/2013  23:33:00     -120.443     -187.350       -1.894      103.261       80.304       45.744    10662.891     6448.656     2092.547        3.440        0.960      222.725       48.151        0.047      345.471       23.022      860.368
07/11/2013  23:34:00     -154.002      -79.712        5.299       99.585       78.302       41.370     9917.219     6131.204     1711.507        2.393        0.888      173.409       46.745        0.073      345.360       22.831      860.390
07/11/2013  23:35:00      -92.741     -134.258       -2.790       73.634       77.399       32.753     5421.984     5990.623     1072.753        1.956        0.624      163.175       34.244        0.044      345.377       22.862      860.412
07/11/2013  23:36:00      -71.410      -42.006        1.392       57.878       34.784       29.277     3349.915     1209.894      857.128        0.614        0.271       82.849       21.574        0.068      345.227       22.607      860.426
07/11/2013  23:37:00      -51.876      -34.978        9.603       51.568       28.759       28.508     2659.306      827.056      812.687        0.415        0.215       62.567       27.912        0.199      345.130       22.441      860.458
07/11/2013  23:38:00      -31.536      -63.564       -6.933       38.959       40.493       24.866     1517.791     1639.649      618.340        0.443        0.189       70.957       21.663        0.093      345.232       22.615      860.475
07/11/2013  23:39:00      -10.092      -80.550        3.191       69.294       44.815       29.802     4801.611     2008.406      888.165        0.715        0.385       81.180       18.911        0.054      345.268       22.677      860.488
07/11/2013  23:40:00       58.755     -112.346       -6.898       53.200       40.207       33.179     2830.188     1616.638     1100.878        1.083        0.277      126.782       24.439        0.037      345.300       22.731      860.499
07/11/2013  23:41:00       35.308      -38.158       10.269       43.639       35.560       29.105     1904.386     1264.499      847.104        0.341        0.201       51.987       22.639        0.190      345.303       22.736      860.505
07/11/2013  23:42:00       48.258     -112.678       -6.093       59.311       57.240       33.987     3517.793     3276.404     1155.091        1.150        0.397      122.577       34.899        0.081      345.349       22.815      860.501
07/11/2013  23:43:00      -49.812      -92.729       -1.725       47.415       41.280       22.993     2248.226     1704.053      528.676        0.778        0.224      105.261       21.529        0.042      345.290       22.713      860.506
07/11/2013  23:44:00      -82.661     -168.474      -12.726       55.514       62.444       27.466     3081.855     3899.289      754.382        2.156        0.387      187.660       20.793        0.012      345.403       22.906      860.519
07/11/2013  23:45:00     -122.493     -135.058        0.768       57.913       97.579       36.763     3353.897     9521.687     1351.499        2.373        0.711      182.333       32.515        0.032      345.332       22.784      860.513
07/11/2013  23:46:00     -130.019     -104.530        8.836       64.644       55.882       31.746     4178.866     3122.810     1007.828        1.811        0.415      166.828       32.652        0.038      345.196       22.552      860.522
07/11/2013  23:47:00     -121.912      -84.224        0.487       64.225       50.163       29.921     4124.840     2516.317      895.251        1.474        0.377      148.176       31.292        0.045      345.191       22.545      860.535
07/11/2013  23:48:00     -131.414      -90.807       -0.945       68.210       51.637       40.607     4652.553     2666.360     1648.895        1.724        0.448      159.736       34.731        0.047      345.187       22.535      860.534
07/11/2013  23:49:00     -168.795     -123.186       -4.683       51.704       59.957       29.229     2673.344     3594.860      854.306        2.540        0.356      208.965       20.246        0.009      345.184       22.531      860.529
07/11/2013  23:50:00      -83.180      -82.954        2.611       59.321       45.898       24.150     3518.960     2106.641      583.229        1.001        0.310      117.474       25.615        0.048      345.108       22.404      860.537
07/11/2013  23:51:00      -88.668     -145.265       -6.314       44.937       68.476       23.006     2019.295     4688.962      529.276        1.812        0.362      170.188       15.249        0.008      345.235       22.618      860.539
07/11/2013  23:52:00      -75.761     -105.976        7.447       69.575       46.804       36.499     4840.614     2190.630     1332.177        1.269        0.418      130.272       39.024        0.090      345.122       22.428      860.550
07/11/2013  23:53:00     -107.124     -111.124        1.219       81.572       64.417       38.472     6653.935     4149.579     1480.115        1.805        0.614      154.351       43.094        0.078      345.057       22.315      860.569
07/11/2013  23:54:00     -115.665      -86.303       10.085       76.994       54.293       40.045     5928.095     2947.701     1603.615        1.570        0.524      144.314       32.107        0.049      344.961       22.151      860.585
07/11/2013  23:55:00     -120.850     -109.841        1.772       68.175       58.521       30.203     4647.857     3424.727      912.212        1.783        0.449      163.309       29.180        0.032      344.950       22.131      860.597
07/11/2013  23:56:00     -131.914      -95.789        1.177       77.907       45.476       33.777     6069.426     2068.070     1140.904        1.793        0.464      163.024       25.663        0.025      344.914       22.069      860.607
07/11/2013  23:57:00     -108.506      -80.163        8.892       69.163       47.059       37.326     4783.517     2214.511     1393.231        1.333        0.420      134.906       34.831        0.067      344.816       21.902      860.613
07/11/2013  23:58:00      -84.107     -155.209       10.581       60.985       73.675       34.933     3719.123     5427.952     1220.336        2.082        0.518      176.532       41.976        0.057      344.993       22.204      860.613
07/11/2013  23:59:00      -80.816     -190.233      -12.213       56.399       70.930       36.652     3180.826     5031.054     1343.387        2.621        0.478      206.688       17.704        0.007      345.137       22.450      860.596
